ftp/pub/palmer/observations_modified/2019/April/original_files/AR190404_BASE.txt
Download
Sample DateTime Unit Id WS Avg 2min WD Avg 2min WGS 10min WGD 10min Air Temp Rel Humidity Dew Point Pyranometer Quantum Air Pressure Snow Level Rainfall PW Current Visibility CBase 1 CBase 2 CBase 3 Vert Vis
2019/04/04 00:00:00 BASE 7.98 117 13.79 69 1.3 55 -6.9 0 0 966.1 NA 0.0000 9999 5120 12890 0 0
2019/04/04 00:01:00 BASE 8.17 130 13.79 69 1.3 55 -6.8 0 0 966.1 NA 0.0000 9999 5050 0 0 0
2019/04/04 00:02:00 BASE 8.97 142 13.79 69 1.2 55 -6.8 0 0 966.1 NA 0.0000 9999 5120 0 0 0
2019/04/04 00:03:00 BASE 8.58 147 12.60 70 1.1 55 -6.9 0 0 966.1 NA 0.0000 9999 5050 0 0 0
2019/04/04 00:04:00 BASE 7.23 151 12.19 136 1.1 55 -6.9 0 0 966.1 NA 0.0000 9999 5050 0 0 0
2019/04/04 00:05:00 BASE 6.24 143 12.19 136 1.1 55 -6.9 0 0 966.1 NA 0.0000 9999 5090 0 0 0
2019/04/04 00:06:00 BASE 4.34 126 12.19 136 1.1 55 -7.0 0 0 966.1 NA 0.0000 9999 5120 0 0 0
2019/04/04 00:07:00 BASE 3.83 117 12.19 136 1.1 55 -7.0 0 0 966.1 NA 0.0000 9999 5120 0 0 0
2019/04/04 00:08:00 BASE 5.22 127 12.19 136 1.1 55 -6.9 0 0 966.2 NA 0.0000 9999 5090 0 0 0
2019/04/04 00:09:00 BASE 6.58 141 12.19 136 1.1 55 -6.9 0 0 966.1 NA 0.0000 9999 5020 0 0 0
2019/04/04 00:10:01 BASE 6.11 136 12.19 136 1.1 56 -6.8 0 0 966.1 NA 0.0000 9999 4950 0 0 0
2019/04/04 00:11:00 BASE 4.25 125 12.19 136 1.0 56 -6.7 0 0 966.1 NA 0.0000 9999 6590 0 0 0
2019/04/04 00:12:00 BASE 2.56 106 10.49 142 1.0 56 -6.7 0 0 966.1 NA 0.0000 9999 3540 0 0 0
2019/04/04 00:13:00 BASE 1.19 68 10.49 142 1.0 56 -6.7 0 0 966.1 NA 0.0000 9999 6040 0 0 0
2019/04/04 00:14:00 BASE 2.03 338 10.24 138 1.1 56 -6.7 0 0 966.1 NA 0.0000 9999 2950 0 0 0
2019/04/04 00:15:00 BASE 4.64 310 10.24 138 1.2 55 -6.8 0 0 966.1 NA 0.0000 9999 5150 0 0 0
2019/04/04 00:16:00 BASE 5.11 306 10.24 138 1.3 55 -6.8 0 0 966.1 NA 0.0000 9999 9190 0 0 0
2019/04/04 00:17:01 BASE 3.35 291 10.24 138 1.4 54 -6.9 0 0 966.1 NA 0.0000 9999 5680 0 0 0
2019/04/04 00:18:00 BASE 1.75 265 10.24 138 1.5 54 -6.9 0 0 966.1 NA 0.0000 9999 9060 0 0 0
2019/04/04 00:19:00 BASE 1.26 261 10.24 138 1.5 53 -7.0 0 0 966.1 NA 0.0000 9999 9420 0 0 0
2019/04/04 00:20:00 BASE 0.85 170 5.81 307 1.6 53 -7.0 0 0 966.2 NA 0.0000 9999 4990 0 0 0
2019/04/04 00:21:00 BASE 0.83 71 5.81 307 1.6 53 -6.9 0 0 966.2 NA 0.0000 9999 9150 0 0 0
2019/04/04 00:22:00 BASE 0.42 58 5.81 307 1.6 53 -6.9 0 0 966.2 NA 0.0000 9999 10200 0 0 0
2019/04/04 00:23:00 BASE 1.16 153 5.81 307 1.5 54 -6.9 0 0 966.2 NA 0.0000 9999 10140 0 0 0
2019/04/04 00:24:00 BASE 3.66 192 6.53 201 1.5 54 -6.8 0 0 966.2 NA 0.0000 9999 10340 0 0 0
2019/04/04 00:25:00 BASE 5.26 189 6.58 172 1.4 55 -6.7 0 0 966.2 NA 0.0000 9999 10430 0 0 0
2019/04/04 00:26:00 BASE 5.43 170 6.58 172 1.3 56 -6.6 0 0 966.2 NA 0.0000 9999 11610 0 0 0
2019/04/04 00:27:00 BASE 4.33 167 6.58 172 1.1 57 -6.5 0 0 966.2 NA 0.0000 9999 10990 0 0 0
2019/04/04 00:28:00 BASE 3.86 168 6.58 172 1.0 58 -6.3 0 0 966.2 NA 0.0000 9999 13680 0 0 0
2019/04/04 00:29:00 BASE 4.40 151 6.74 156 0.8 60 -6.2 0 0 966.2 NA 0.0000 9999 13650 0 0 0
2019/04/04 00:30:00 BASE 4.53 114 6.74 156 0.7 60 -6.1 0 0 966.2 NA 0.0000 9999 12960 0 0 0
2019/04/04 00:31:00 BASE 5.73 113 8.64 135 0.8 60 -6.1 0 0 966.2 NA 0.0000 9999 12730 0 0 0
2019/04/04 00:32:00 BASE 7.21 134 9.77 149 0.8 60 -6.1 0 0 966.2 NA 0.0000 9999 12400 0 0 0
2019/04/04 00:33:00 BASE 7.73 143 9.77 149 0.9 59 -6.2 0 0 966.2 NA 0.0000 9999 12470 0 0 0
2019/04/04 00:34:00 BASE 7.85 141 9.77 149 1.0 58 -6.3 0 0 966.2 NA 0.0000 9999 12470 0 0 0
2019/04/04 00:35:00 BASE 8.38 133 9.98 130 1.1 58 -6.4 0 0 966.1 NA 0.0000 9999 12400 0 0 0
2019/04/04 00:36:00 BASE 8.14 133 9.98 130 1.1 57 -6.4 0 0 966.2 NA 0.0000 9999 12370 0 0 0
2019/04/04 00:37:00 BASE 7.62 126 9.98 130 1.2 57 -6.4 0 0 966.2 NA 0.0000 9999 12370 0 0 0
2019/04/04 00:38:00 BASE 7.65 127 9.98 130 1.2 57 -6.4 0 0 966.2 NA 0.0000 9999 12370 0 0 0
2019/04/04 00:39:00 BASE 7.63 128 9.98 130 1.2 57 -6.4 0 0 966.1 NA 0.0000 9999 12400 0 0 0
2019/04/04 00:40:00 BASE 7.95 117 9.98 130 1.1 58 -6.3 0 0 966.1 NA 0.0000 9999 6630 7120 0 0
2019/04/04 00:41:00 BASE 7.35 112 9.98 130 1.1 58 -6.2 0 0 966.1 NA 0.0000 9999 6630 0 0 0
2019/04/04 00:42:00 BASE 6.74 115 9.98 130 1.1 58 -6.2 0 0 966.2 NA 0.0000 9999 6270 0 0 0
2019/04/04 00:43:00 BASE 7.32 120 10.24 118 1.2 58 -6.2 0 0 966.2 NA 0.0000 9999 6330 0 0 0
2019/04/04 00:44:00 BASE 8.31 117 10.24 118 1.2 58 -6.2 0 0 966.2 NA 0.0000 9999 6330 0 0 0
2019/04/04 00:45:00 BASE 8.69 109 10.80 110 1.1 58 -6.3 0 0 966.2 NA 0.0000 9999 6330 0 0 0
2019/04/04 00:46:00 BASE 7.97 109 10.80 110 1.0 58 -6.2 0 0 966.2 NA 0.0000 9999 6270 0 0 0
2019/04/04 00:47:00 BASE 7.88 110 10.80 110 0.9 59 -6.1 0 0 966.2 NA 0.0000 9999 6270 0 0 0
2019/04/04 00:48:00 BASE 7.79 101 10.80 110 0.8 60 -6.0 0 0 966.2 NA 0.0000 9999 6200 0 0 0
2019/04/04 00:49:00 BASE 6.84 88 10.80 110 0.8 61 -5.8 0 0 966.3 NA 0.0000 9999 6140 0 0 0
2019/04/04 00:50:00 BASE 6.02 71 10.80 110 0.8 61 -5.8 0 0 966.3 NA 0.0000 9999 6170 0 0 0
2019/04/04 00:51:00 BASE 5.20 47 10.80 110 0.9 62 -5.7 0 0 966.4 NA 0.0000 9999 6200 0 0 0
2019/04/04 00:52:00 BASE 4.61 30 10.80 110 0.9 62 -5.6 0 0 966.4 NA 0.0000 9999 6170 0 0 0
2019/04/04 00:53:00 BASE 4.64 20 10.80 110 0.9 63 -5.4 0 0 966.4 NA 0.0000 9999 6170 0 0 0
2019/04/04 00:54:00 BASE 5.00 15 10.80 110 0.8 64 -5.3 0 0 966.4 NA 0.0000 9999 6140 0 0 0
2019/04/04 00:55:00 BASE 5.29 14 8.95 104 0.8 65 -5.1 0 0 966.4 NA 0.0000 9999 6170 6730 0 0
2019/04/04 00:56:00 BASE 5.40 12 8.95 104 0.7 66 -5.0 0 0 966.4 NA 0.0000 9999 6230 0 0 0
2019/04/04 00:57:00 BASE 5.17 9 8.08 96 0.7 66 -4.9 0 0 966.4 NA 0.0000 9999 6430 0 0 0
2019/04/04 00:58:00 BASE 4.82 6 7.41 91 0.7 66 -4.9 0 0 966.4 NA 0.0000 9999 6590 0 0 0
2019/04/04 00:59:00 BASE 4.51 356 6.02 67 0.7 67 -4.8 0 0 966.4 NA 0.0000 9999 6590 0 0 0
2019/04/04 01:00:00 BASE 3.97 339 5.86 17 0.7 67 -4.8 0 0 966.4 NA 0.0000 9999 6630 0 0 0
2019/04/04 01:01:00 BASE 2.79 344 5.86 17 0.8 66 -4.9 0 0 966.5 NA 0.0000 9999 6530 0 0 0
2019/04/04 01:02:00 BASE 1.88 4 5.86 17 0.9 64 -5.0 0 0 966.5 NA 0.0000 9999 5710 7580 0 0
2019/04/04 01:03:00 BASE 1.90 10 5.86 17 1.0 63 -5.2 0 0 966.5 NA 0.0000 9999 5940 0 0 0
2019/04/04 01:04:00 BASE 1.81 13 5.86 17 1.1 63 -5.3 0 0 966.6 NA 0.0000 9999 6000 6760 0 0
2019/04/04 01:05:00 BASE 1.26 20 5.86 17 1.1 62 -5.3 0 0 966.6 NA 0.0000 9999 5640 6690 0 0
2019/04/04 01:06:00 BASE 0.47 35 5.45 353 1.0 64 -5.2 0 0 966.6 NA 0.0000 9999 5710 6660 7480 0
2019/04/04 01:07:00 BASE 0.96 71 5.30 11 0.9 65 -4.9 0 0 966.6 NA 0.0000 9999 5350 6630 0 0
2019/04/04 01:08:00 BASE 2.65 93 4.84 347 0.7 67 -4.7 0 0 966.7 NA 0.0000 9999 5380 6560 13090 0
2019/04/04 01:09:00 BASE 3.47 91 4.37 94 0.6 68 -4.6 0 0 966.7 NA 0.0000 9999 5020 0 0 0
2019/04/04 01:10:01 BASE 3.51 85 4.37 94 0.6 69 -4.5 0 0 966.7 NA 0.0000 9999 5350 6460 7840 0
2019/04/04 01:11:00 BASE 3.07 76 4.37 94 0.5 69 -4.5 0 0 966.7 NA 0.0000 9999 5250 7740 0 0
2019/04/04 01:12:00 BASE 2.69 71 4.37 94 0.6 68 -4.6 0 0 966.7 NA 0.0000 9999 5090 6230 7450 0
2019/04/04 01:13:00 BASE 2.70 70 4.37 94 0.6 67 -4.8 0 0 966.7 NA 0.0000 9999 5120 7870 13060 0
2019/04/04 01:14:00 BASE 2.69 71 4.37 94 0.7 66 -4.9 0 0 966.7 NA 0.0000 9999 5180 7940 12800 0
2019/04/04 01:15:00 BASE 2.89 74 4.37 94 0.8 65 -5.1 0 0 966.7 NA 0.0000 9999 5320 7090 0 0
2019/04/04 01:16:00 BASE 3.37 74 4.37 94 0.9 64 -5.2 0 0 966.7 NA 0.0000 9999 5350 6960 0 0
2019/04/04 01:17:00 BASE 3.61 67 4.37 94 0.9 63 -5.3 0 0 966.7 NA 0.0000 9999 5280 6630 7150 0
2019/04/04 01:18:00 BASE 3.46 63 4.32 69 1.0 62 -5.4 0 0 966.7 NA 0.0000 9999 5320 6630 7220 0
2019/04/04 01:19:00 BASE 3.28 66 4.32 69 1.1 61 -5.5 0 0 966.7 NA 0.0000 9999 5320 6630 7970 0
2019/04/04 01:20:00 BASE 3.16 68 4.32 69 1.2 61 -5.6 0 0 966.7 NA 0.0000 9999 5250 6860 0 0
2019/04/04 01:21:00 BASE 3.08 71 4.32 69 1.2 60 -5.7 0 0 966.7 NA 0.0000 9999 5220 6170 7220 0
2019/04/04 01:22:00 BASE 2.84 75 4.32 69 1.2 59 -5.8 0 0 966.7 NA 0.0000 9999 5220 6100 7610 0
2019/04/04 01:23:00 BASE 2.36 80 4.32 69 1.2 59 -5.9 0 0 966.7 NA 0.0000 9999 5150 6170 7480 0
2019/04/04 01:24:00 BASE 2.31 75 4.32 69 1.2 59 -6.0 0 0 966.7 NA 0.0000 9999 5120 7220 0 0
2019/04/04 01:25:00 BASE 3.20 60 4.32 69 1.2 59 -6.0 0 0 966.7 NA 0.0000 9999 5120 7150 0 0
2019/04/04 01:26:00 BASE 3.80 52 4.32 69 1.1 59 -6.0 0 0 966.7 NA 0.0000 9999 5220 7050 0 0
2019/04/04 01:27:00 BASE 3.88 53 4.48 59 1.0 60 -5.8 0 0 966.7 NA 0.0000 9999 5150 7090 0 0
2019/04/04 01:28:00 BASE 4.17 58 4.63 61 0.9 62 -5.6 0 0 966.7 NA 0.0000 9999 5090 6530 0 0
2019/04/04 01:29:00 BASE 4.14 63 4.63 61 0.9 63 -5.4 0 0 966.7 NA 0.0000 9999 5020 6300 0 0
2019/04/04 01:30:00 BASE 3.64 64 4.63 61 0.8 64 -5.3 0 0 966.7 NA 0.0000 9999 4860 6140 0 0
2019/04/04 01:31:00 BASE 3.14 62 4.63 61 0.9 64 -5.2 0 0 966.7 NA 0.0000 9999 4690 5610 6960 0
2019/04/04 01:32:00 BASE 2.75 58 4.63 61 0.9 63 -5.3 0 0 966.7 NA 0.0000 9999 4530 13650 0 0
2019/04/04 01:33:00 BASE 2.46 52 4.63 61 1.0 62 -5.4 0 0 966.8 NA 0.0000 9999 4330 6760 13710 0
2019/04/04 01:34:00 BASE 2.58 43 4.63 61 1.1 62 -5.4 0 0 966.8 NA 0.0000 9999 4170 5580 13810 0
2019/04/04 01:35:00 BASE 2.66 44 4.63 61 1.1 62 -5.4 0 0 966.8 NA 0.0000 9999 4460 6330 13810 0
2019/04/04 01:36:00 BASE 2.29 49 4.63 61 1.1 62 -5.3 0 0 966.8 NA 0.0000 9999 4270 6400 13810 0
2019/04/04 01:37:00 BASE 2.19 37 4.63 61 1.1 63 -5.2 0 0 966.8 NA 0.0000 9999 4300 6300 13880 0
2019/04/04 01:38:00 BASE 2.35 15 4.32 58 1.0 64 -5.0 0 0 966.9 NA 0.0000 9999 4360 6300 13880 0
2019/04/04 01:39:00 BASE 2.22 352 3.91 65 0.9 65 -4.9 0 0 966.9 NA 0.0000 9999 4330 6170 13880 0
2019/04/04 01:40:00 BASE 1.88 344 3.45 36 0.9 66 -4.8 0 0 967.0 NA 0.0000 9999 4400 6230 13940 0
2019/04/04 01:41:00 BASE 1.62 345 3.45 36 0.9 66 -4.8 0 0 966.9 NA 0.0000 9999 4200 13850 0 0
2019/04/04 01:42:00 BASE 1.43 351 3.45 36 0.9 66 -4.8 0 0 966.9 NA 0.0000 9999 3970 13780 0 0
2019/04/04 01:43:00 BASE 1.32 357 3.45 36 1.0 65 -4.8 0 0 966.8 NA 0.0000 9999 4990 6000 13850 0
2019/04/04 01:44:00 BASE 1.36 6 3.45 36 1.0 64 -4.9 0 0 966.8 NA 0.0000 9999 4950 6100 13710 0
2019/04/04 01:45:00 BASE 1.50 11 2.68 12 1.1 63 -5.1 0 0 966.8 NA 0.0000 9999 4530 13750 0 0
2019/04/04 01:46:00 BASE 1.80 10 2.68 12 1.1 63 -5.2 0 0 966.8 NA 0.0000 9999 4330 13650 0 0
2019/04/04 01:47:00 BASE 2.33 6 3.09 10 1.1 62 -5.3 0 0 966.8 NA 0.0000 9999 4070 0 0 0
2019/04/04 01:48:00 BASE 2.63 3 3.09 10 1.1 62 -5.3 0 0 966.9 NA 0.0000 9999 3940 6690 0 0
2019/04/04 01:49:00 BASE 2.73 12 3.29 32 1.1 62 -5.3 0 0 966.9 NA 0.0000 9999 3940 5510 0 0
2019/04/04 01:50:00 BASE 2.69 27 3.29 32 1.1 63 -5.2 0 0 966.9 NA 0.0000 9999 3900 5320 6590 0
2019/04/04 01:51:00 BASE 2.55 40 3.29 32 1.1 63 -5.2 0 0 967.0 NA 0.0000 9999 3970 5120 6530 0
2019/04/04 01:52:00 BASE 2.33 51 3.29 32 1.0 64 -5.1 0 0 967.0 NA 0.0000 9999 3870 5020 6590 0
2019/04/04 01:53:00 BASE 2.15 66 3.29 32 1.0 65 -5.0 0 0 967.0 NA 0.0000 9999 3900 4990 6590 0
2019/04/04 01:54:00 BASE 2.01 83 3.29 32 0.9 65 -4.8 0 0 967.0 NA 0.0000 9999 4040 4990 6530 0
2019/04/04 01:55:00 BASE 1.79 86 3.29 32 0.9 66 -4.8 0 0 967.0 NA 0.0000 9999 3970 5640 0 0
2019/04/04 01:56:00 BASE 2.12 79 3.29 32 0.9 65 -4.8 0 0 967.0 NA 0.0000 9999 3970 5320 6630 0
2019/04/04 01:57:00 BASE 3.05 64 4.48 59 1.0 65 -4.9 0 0 967.1 NA 0.0000 9999 4040 5380 0 0
2019/04/04 01:58:00 BASE 4.23 44 5.61 31 1.0 64 -5.0 0 0 967.1 NA 0.0000 9999 4270 5740 0 0
2019/04/04 01:59:00 BASE 3.96 40 5.61 31 1.0 64 -5.0 0 0 967.1 NA 0.0000 9999 4430 5740 0 0
2019/04/04 02:00:00 BASE 3.10 51 5.61 31 1.0 64 -5.0 0 0 967.1 NA 0.0000 9999 4330 6370 0 0
2019/04/04 02:01:00 BASE 3.16 61 5.61 31 1.0 64 -5.0 0 0 967.1 NA 0.0000 9999 4360 5250 0 0
2019/04/04 02:02:00 BASE 3.11 69 5.61 31 1.0 64 -5.0 0 0 967.1 NA 0.0000 9999 4400 6330 0 0
2019/04/04 02:03:00 BASE 3.00 78 5.61 31 1.0 64 -5.1 0 0 967.1 NA 0.0000 9999 4360 6300 0 0
2019/04/04 02:04:00 BASE 2.54 79 5.61 31 1.1 63 -5.2 0 0 967.1 NA 0.0000 9999 4400 6560 0 0
2019/04/04 02:05:00 BASE 2.30 78 5.61 31 1.2 62 -5.3 0 0 967.1 NA 0.0000 9999 4430 6560 0 0
2019/04/04 02:06:00 BASE 2.24 75 5.61 31 1.3 61 -5.4 0 0 967.2 NA 0.0000 9999 4130 6630 0 0
2019/04/04 02:07:00 BASE 1.95 69 5.61 31 1.3 61 -5.4 0 0 967.2 NA 0.0000 9999 4100 6630 0 0
2019/04/04 02:08:00 BASE 1.49 56 4.27 37 1.2 62 -5.4 0 0 967.2 NA 0.0000 9999 4100 5740 0 0
2019/04/04 02:09:00 BASE 1.28 37 4.12 69 1.1 63 -5.2 0 0 967.2 NA 0.0000 9999 3970 5640 6660 0
2019/04/04 02:10:00 BASE 1.18 27 4.12 69 1.1 63 -5.1 0 0 967.2 NA 0.0000 9999 3670 6730 0 0
2019/04/04 02:11:00 BASE 0.61 23 4.12 69 1.0 64 -5.0 0 0 967.2 NA 0.0000 9999 6730 0 0 0
2019/04/04 02:12:00 BASE 0.22 31 4.12 69 1.0 65 -4.9 0 0 967.2 NA 0.0000 9999 3740 6760 0 0
2019/04/04 02:13:00 BASE 0.11 31 3.34 75 1.0 65 -4.8 0 0 967.2 NA 0.0000 9999 3810 6860 0 0
2019/04/04 02:14:00 BASE 0.25 5 3.34 75 1.0 66 -4.7 0 0 967.2 NA 0.0000 9999 4760 0 0 0
2019/04/04 02:15:00 BASE 1.97 0 4.58 10 1.0 66 -4.6 0 0 967.2 NA 0.0000 9999 6760 0 0 0
2019/04/04 02:16:00 BASE 3.78 10 4.68 13 0.9 67 -4.4 0 0 967.2 NA 0.0000 9999 4130 6820 0 0
2019/04/04 02:17:00 BASE 5.10 10 6.48 11 0.9 69 -4.2 0 0 967.2 NA 0.0000 9999 4170 6860 0 0
2019/04/04 02:18:00 BASE 6.23 11 6.64 13 0.9 70 -4.0 0 0 967.2 NA 0.0000 9999 4860 0 0 0
2019/04/04 02:19:00 BASE 6.29 11 7.05 8 0.9 71 -3.8 0 0 967.2 NA 0.0000 9999 4760 6590 0 0
2019/04/04 02:20:00 BASE 6.29 12 7.05 8 0.9 72 -3.6 0 0 967.2 NA 0.0000 9999 4690 6630 0 0
2019/04/04 02:21:00 BASE 6.46 13 7.25 14 0.9 73 -3.4 0 0 967.2 NA 0.0000 9999 4590 0 0 0
2019/04/04 02:22:00 BASE 6.79 13 7.25 15 0.9 73 -3.3 0 0 967.2 NA 0.0000 9999 4590 0 0 0
2019/04/04 02:23:00 BASE 7.03 13 7.61 10 0.9 74 -3.2 0 0 967.2 NA 0.0000 9999 5970 0 0 0
2019/04/04 02:24:00 BASE 7.17 12 7.61 10 0.9 74 -3.2 0 0 967.2 NA 0.0000 9999 5940 0 0 0
2019/04/04 02:25:00 BASE 7.18 11 7.72 10 0.9 75 -3.1 0 0 967.3 NA 0.0000 9999 6560 0 0 0
2019/04/04 02:26:00 BASE 7.28 11 7.72 10 0.9 75 -3.1 0 0 967.3 NA 0.0000 9999 7050 0 0 0
2019/04/04 02:27:00 BASE 7.22 13 7.72 10 0.9 75 -3.0 0 0 967.3 NA 0.0000 9999 4330 0 0 0
2019/04/04 02:28:00 BASE 7.02 12 7.72 12 0.8 75 -3.0 0 0 967.3 NA 0.0000 9999 5020 0 0 0
2019/04/04 02:29:00 BASE 6.92 9 7.72 12 0.8 76 -3.0 0 0 967.3 NA 0.0000 9999 4270 0 0 0
2019/04/04 02:30:00 BASE 6.83 7 7.72 12 0.8 76 -2.9 0 0 967.3 NA 0.0000 9999 4200 0 0 0
2019/04/04 02:31:00 BASE 6.72 9 7.72 12 0.8 76 -2.8 0 0 967.3 NA 0.0000 9999 5180 0 0 0
2019/04/04 02:32:00 BASE 6.71 10 7.72 12 0.8 77 -2.8 0 0 967.3 NA 0.0000 9999 3580 0 0 0
2019/04/04 02:33:00 BASE 6.60 9 7.72 12 0.9 77 -2.7 0 0 967.3 NA 0.0000 9999 3870 5180 0 0
2019/04/04 02:34:00 BASE 6.25 7 7.72 12 0.9 77 -2.7 0 0 967.3 NA 0.0000 9999 4100 5640 0 0
2019/04/04 02:35:00 BASE 6.12 8 7.72 12 0.9 77 -2.7 0 0 967.3 NA 0.0000 9999 3710 0 0 0
2019/04/04 02:36:00 BASE 6.11 8 7.72 12 0.9 77 -2.6 0 0 967.3 NA 0.0000 9999 5220 0 0 0
2019/04/04 02:37:00 BASE 5.84 6 7.72 12 0.9 78 -2.6 0 0 967.3 NA 0.0000 9999 5220 0 0 0
2019/04/04 02:38:00 BASE 5.57 6 7.41 6 0.9 78 -2.5 0 0 967.3 NA 0.0000 9999 4660 0 0 0
2019/04/04 02:39:00 BASE 5.33 7 7.15 6 0.9 78 -2.5 0 0 967.3 NA 0.0000 9999 4490 0 0 0
2019/04/04 02:40:00 BASE 5.08 9 7.15 6 0.9 78 -2.5 0 0 967.3 NA 0.0000 9999 4490 0 0 0
2019/04/04 02:41:00 BASE 4.84 11 7.15 6 1.0 78 -2.4 0 0 967.3 NA 0.0000 9999 4460 0 0 0
2019/04/04 02:42:00 BASE 4.85 11 7.15 6 1.0 78 -2.4 0 0 967.3 NA 0.0000 9999 4330 0 0 0
2019/04/04 02:43:00 BASE 4.70 10 6.48 7 1.0 78 -2.4 0 0 967.3 NA 0.0000 9999 4170 0 0 0
2019/04/04 02:44:00 BASE 4.67 11 6.43 9 1.0 79 -2.3 0 0 967.3 NA 0.0000 9999 4070 0 0 0
2019/04/04 02:45:00 BASE 4.67 13 6.28 8 0.9 79 -2.3 0 0 967.3 NA 0.0000 9999 4070 0 0 0
2019/04/04 02:46:00 BASE 4.09 14 6.02 11 0.9 80 -2.2 0 0 967.3 NA 0.0000 9999 4000 0 0 0
2019/04/04 02:47:00 BASE 3.89 13 5.86 5 0.9 80 -2.2 0 0 967.4 NA 0.0000 9999 7910 0 0 0
2019/04/04 02:48:00 BASE 3.97 10 5.56 16 0.9 80 -2.1 0 0 967.4 NA 0.0000 9999 3740 0 0 0
2019/04/04 02:49:00 BASE 3.78 7 5.56 16 0.9 80 -2.1 0 0 967.4 NA 0.0000 9999 8010 0 0 0
2019/04/04 02:50:00 BASE 4.08 10 5.56 16 0.9 81 -2.0 0 0 967.4 NA 0.0000 9999 3480 4230 0 0
2019/04/04 02:51:00 BASE 4.18 15 5.56 16 0.9 81 -2.0 0 0 967.4 NA 0.0000 9999 3380 6100 0 0
2019/04/04 02:52:00 BASE 3.85 14 5.56 16 1.0 81 -1.9 0 0 967.4 NA 0.0000 9999 3350 0 0 0
2019/04/04 02:53:00 BASE 3.73 12 5.56 16 1.0 81 -1.9 0 0 967.4 NA 0.0000 9999 3220 0 0 0
2019/04/04 02:54:00 BASE 3.63 16 4.99 14 1.0 81 -1.9 0 0 967.4 NA 0.0000 9999 3150 0 0 0
2019/04/04 02:55:00 BASE 3.64 22 4.84 14 0.9 81 -1.9 0 0 967.4 NA 0.0000 9999 8040 0 0 0
2019/04/04 02:56:00 BASE 3.44 25 4.84 14 0.9 82 -1.9 0 0 967.4 NA 0.0000 9999 8140 0 0 0
2019/04/04 02:57:00 BASE 3.28 27 4.84 14 0.9 82 -1.9 0 0 967.4 NA 0.0000 9999 7940 0 0 0
2019/04/04 02:58:00 BASE 3.33 30 4.84 14 0.8 82 -1.9 0 0 967.4 NA 0.0000 9999 7940 0 0 0
2019/04/04 02:59:00 BASE 3.36 35 4.84 14 0.8 82 -1.9 0 0 967.4 NA 0.0000 9999 4890 0 0 0
2019/04/04 03:00:00 BASE 3.29 34 4.53 11 0.8 82 -1.9 0 0 967.4 NA 0.0000 9999 4920 0 0 0
2019/04/04 03:01:00 BASE 3.36 29 4.17 22 0.8 82 -1.9 0 0 967.4 NA 0.0000 9999 5050 0 0 0
2019/04/04 03:02:00 BASE 3.35 28 4.17 22 0.8 82 -2.0 0 0 967.4 NA 0.0000 9999 7220 0 0 0
2019/04/04 03:03:00 BASE 3.31 26 4.17 22 0.8 81 -2.0 0 0 967.4 NA 0.0000 9999 7050 0 0 0
2019/04/04 03:04:00 BASE 3.36 25 4.06 17 0.9 81 -2.1 0 0 967.4 NA 0.0000 9999 7020 0 0 0
2019/04/04 03:05:00 BASE 3.36 23 4.01 22 0.9 80 -2.2 0 0 967.4 NA 0.0000 9999 8300 0 0 0
2019/04/04 03:06:00 BASE 3.29 21 3.81 31 0.9 80 -2.2 0 0 967.5 NA 0.0000 9999 8200 0 0 0
2019/04/04 03:07:00 BASE 3.23 20 3.81 31 0.9 79 -2.3 0 0 967.5 NA 0.0000 9999 8530 0 0 0
2019/04/04 03:08:00 BASE 3.28 14 3.70 3 0.9 79 -2.3 0 0 967.5 NA 0.0000 9999 8300 0 0 0
2019/04/04 03:09:00 BASE 3.58 6 4.01 360 0.9 80 -2.2 0 0 967.5 NA 0.0000 9999 5220 0 0 0
2019/04/04 03:10:00 BASE 3.74 6 4.01 7 0.8 80 -2.2 0 0 967.5 NA 0.0000 9999 5220 0 0 0
2019/04/04 03:11:00 BASE 3.82 6 4.22 360 0.8 81 -2.1 0 0 967.5 NA 0.0000 9999 4950 0 0 0
2019/04/04 03:12:00 BASE 3.88 2 4.22 360 0.8 81 -2.1 0 0 967.5 NA 0.0000 9999 4990 0 0 0
2019/04/04 03:13:00 BASE 3.81 357 4.22 360 0.9 81 -2.0 0 0 967.5 NA 0.0000 9999 4990 0 0 0
2019/04/04 03:14:00 BASE 3.79 357 4.22 360 0.9 81 -2.0 0 0 967.5 NA 0.0000 9999 4760 0 0 0
2019/04/04 03:15:00 BASE 3.85 1 4.22 3 0.9 81 -2.0 0 0 967.5 NA 0.0000 9999 4720 0 0 0
2019/04/04 03:16:00 BASE 4.03 0 4.22 353 0.9 81 -2.0 0 0 967.5 NA 0.0000 9999 4490 0 0 0
2019/04/04 03:17:00 BASE 4.01 356 4.22 353 0.9 81 -2.0 0 0 967.5 NA 0.0000 9999 4330 0 0 0
2019/04/04 03:18:00 BASE 3.73 354 4.37 349 0.9 81 -2.0 0 0 967.5 NA 0.0000 9999 4330 0 0 0
2019/04/04 03:19:00 BASE 3.75 353 4.37 349 0.9 80 -2.1 0 0 967.5 NA 0.0000 9999 4330 0 0 0
2019/04/04 03:20:00 BASE 4.18 351 4.78 351 0.9 80 -2.1 0 0 967.5 NA 0.0000 9999 4270 0 0 0
2019/04/04 03:21:00 BASE 4.62 347 5.25 342 0.9 80 -2.1 0 0 967.5 NA 0.0000 9999 4230 0 0 0
2019/04/04 03:22:00 BASE 4.80 341 5.25 342 0.9 80 -2.2 0 0 967.5 NA 0.0000 9999 4130 0 0 0
2019/04/04 03:23:00 BASE 4.78 340 5.25 342 1.0 79 -2.2 0 0 967.6 NA 0.0000 9999 4000 0 0 0
2019/04/04 03:24:00 BASE 4.66 339 5.25 342 1.0 79 -2.3 0 0 967.6 NA 0.0000 9999 3940 0 0 0
2019/04/04 03:25:00 BASE 4.70 339 5.56 333 1.0 78 -2.4 0 0 967.6 NA 0.0000 9999 3940 0 0 0
2019/04/04 03:26:00 BASE 4.51 338 5.56 333 1.0 78 -2.4 0 0 967.7 NA 0.0000 9999 5180 0 0 0
2019/04/04 03:27:00 BASE 4.15 339 5.56 333 0.9 78 -2.5 0 0 967.7 NA 0.0000 9999 5410 0 0 0
2019/04/04 03:28:00 BASE 4.04 338 5.56 333 0.9 78 -2.5 0 0 967.7 NA 0.0000 9999 5380 0 0 0
2019/04/04 03:29:00 BASE 3.94 334 5.56 333 0.9 78 -2.5 0 0 967.7 NA 0.0000 9999 7810 0 0 0
2019/04/04 03:30:00 BASE 4.09 331 5.56 333 0.9 78 -2.5 0 0 967.7 NA 0.0000 9999 7780 0 0 0
2019/04/04 03:31:00 BASE 4.32 329 5.56 333 0.9 79 -2.4 0 0 967.7 NA 0.0000 9999 8010 0 0 0
2019/04/04 03:32:00 BASE 4.71 327 5.56 330 0.9 79 -2.4 0 0 967.7 NA 0.0000 9999 7970 0 0 0
2019/04/04 03:33:00 BASE 5.23 321 6.02 317 0.9 79 -2.4 0 0 967.7 NA 0.0000 9999 7870 0 0 0
2019/04/04 03:34:00 BASE 5.25 314 6.02 317 0.9 78 -2.4 0 0 967.7 NA 0.0000 9999 7680 0 0 0
2019/04/04 03:35:00 BASE 5.27 317 6.02 317 0.9 78 -2.5 0 0 967.7 NA 0.0000 9999 6920 0 0 0
2019/04/04 03:36:00 BASE 5.48 322 6.02 317 1.0 77 -2.6 0 0 967.7 NA 0.0000 9999 6760 0 0 0
2019/04/04 03:37:00 BASE 5.73 318 6.28 318 1.0 77 -2.7 0 0 967.7 NA 0.0000 9999 5910 0 0 0
2019/04/04 03:38:00 BASE 5.62 318 6.28 318 1.0 76 -2.7 0 0 967.7 NA 0.0000 9999 5840 0 0 0
2019/04/04 03:39:00 BASE 5.38 319 6.28 318 1.1 75 -2.8 0 0 967.7 NA 0.0000 9999 5810 13190 0 0
2019/04/04 03:40:00 BASE 5.29 312 6.28 318 1.1 75 -2.8 0 0 967.8 NA 0.0000 9999 5740 0 0 0
2019/04/04 03:41:00 BASE 4.82 310 6.28 318 1.1 75 -2.8 0 0 967.8 NA 0.0000 9999 5710 0 0 0
2019/04/04 03:42:00 BASE 4.59 308 6.28 318 1.1 75 -2.8 0 0 967.8 NA 0.0000 9999 5770 6400 7510 0
2019/04/04 03:43:00 BASE 4.42 297 6.28 318 1.1 75 -2.8 0 0 967.8 NA 0.0000 9999 5770 7510 0 0
2019/04/04 03:44:00 BASE 3.96 294 6.28 318 1.1 76 -2.7 0 0 967.8 NA 0.0000 9999 5840 9880 0 0
2019/04/04 03:45:00 BASE 3.56 295 6.28 318 1.1 76 -2.7 0 0 967.9 NA 0.0000 9999 5580 9780 0 0
2019/04/04 03:46:00 BASE 3.37 294 6.28 318 1.1 76 -2.6 0 0 967.9 NA 0.0000 9999 5910 10010 0 0
2019/04/04 03:47:00 BASE 3.37 296 5.71 321 1.1 77 -2.6 0 0 967.9 NA 0.0000 9999 5350 10110 0 0
2019/04/04 03:48:00 BASE 3.32 297 5.71 321 1.0 77 -2.5 0 0 967.9 NA 0.0000 9999 5640 10270 0 0
2019/04/04 03:49:00 BASE 3.32 298 5.35 316 1.0 78 -2.5 0 0 967.9 NA 0.0000 9999 5640 9580 0 0
2019/04/04 03:50:00 BASE 3.42 297 5.14 302 1.0 78 -2.4 0 0 967.9 NA 0.0000 9999 5480 7220 10070 0
2019/04/04 03:51:00 BASE 3.51 293 5.14 302 1.0 78 -2.3 0 0 967.9 NA 0.0000 9999 5480 10040 0 0
2019/04/04 03:52:00 BASE 3.30 289 4.32 289 1.0 79 -2.3 0 0 967.9 NA 0.0000 9999 5680 9380 9970 0
2019/04/04 03:53:00 BASE 2.77 287 4.22 289 1.0 79 -2.2 0 0 967.9 NA 0.0000 9999 5480 9940 0 0
2019/04/04 03:54:00 BASE 2.54 288 3.91 290 0.9 80 -2.2 0 0 967.9 NA 0.0000 9999 5510 9220 9940 0
2019/04/04 03:55:00 BASE 2.55 287 3.91 290 0.9 80 -2.1 0 0 967.9 NA 0.0000 9999 5510 8010 0 0
2019/04/04 03:56:00 BASE 2.54 284 3.91 290 0.9 81 -2.1 0 0 967.9 NA 0.0000 9999 5610 10040 12600 0
2019/04/04 03:57:00 BASE 2.50 283 3.91 290 0.9 81 -2.0 0 0 967.9 NA 0.0000 9999 5710 7580 12500 0
2019/04/04 03:58:00 BASE 2.25 280 3.91 290 0.9 81 -2.0 0 0 967.9 NA 0.0000 9999 7640 12630 0 0
2019/04/04 03:59:00 BASE 2.25 270 3.91 290 0.9 81 -2.0 0 0 967.9 NA 0.0000 9999 7120 12600 0 0
2019/04/04 04:00:00 BASE 2.40 262 3.76 291 0.9 81 -2.0 0 0 967.9 NA 0.0000 9999 7120 7810 12630 0
2019/04/04 04:01:01 BASE 2.41 261 3.34 293 0.9 81 -2.0 0 0 967.9 NA 0.0000 9999 7810 11020 12800 0
2019/04/04 04:03:05 BASE 2.47 260 3.09 293 0.9 81 -1.9 0 0 967.9 NA 0.0000 9999 7810 10960 0 0
2019/04/04 04:04:05 BASE 2.31 259 3.09 293 0.9 81 -1.9 0 0 967.9 NA 0.0000 9999 7320 12830 0 0
2019/04/04 04:05:05 BASE 1.91 255 2.88 286 1.0 82 -1.8 0 0 967.9 NA 0.0000 9999 7320 7870 10860 0
2019/04/04 04:06:05 BASE 1.43 242 2.88 286 1.0 82 -1.7 0 0 967.9 NA 0.0000 9999 7780 10660 0 0
2019/04/04 04:07:04 BASE 1.52 234 2.88 286 1.0 83 -1.6 0 0 967.9 NA 0.0000 9999 7740 10300 0 0
2019/04/04 04:08:06 BASE 1.94 238 2.73 260 1.0 83 -1.6 0 0 967.9 NA 0.0000 9999 7710 10170 12990 0
2019/04/04 04:09:05 BASE 1.82 237 2.73 260 0.9 84 -1.5 0 0 967.9 NA 0.0000 9999 7740 12890 0 0
2019/04/04 04:10:04 BASE 1.56 231 2.73 260 0.9 84 -1.6 0 0 967.9 NA 0.0000 9999 7780 12860 0 0
2019/04/04 04:11:05 BASE 1.37 232 2.73 260 0.8 84 -1.5 0 0 968.0 NA 0.0000 9999 7710 0 0 0
2019/04/04 04:12:04 BASE 1.44 239 2.73 260 0.8 84 -1.6 0 0 968.0 NA 0.0000 9999 7550 8830 12700 0
2019/04/04 04:13:05 BASE 1.41 245 2.47 258 0.7 85 -1.5 0 0 968.0 NA 0.0000 9999 7580 10630 0 0
2019/04/04 04:14:04 BASE 0.71 250 2.26 238 0.7 85 -1.5 0 0 968.1 NA 0.0000 9999 7050 10340 12800 0
2019/04/04 04:15:04 BASE 0.65 251 2.26 238 0.7 86 -1.4 0 0 968.1 NA 0.0000 9999 7550 12760 0 0
2019/04/04 04:16:05 BASE 1.35 249 2.26 238 0.7 86 -1.4 0 0 968.1 NA 0.0000 9999 7610 9510 12800 0
2019/04/04 04:17:04 BASE 1.66 252 2.21 242 0.7 86 -1.3 0 0 968.1 NA 0.0000 9999 7640 9120 0 0
2019/04/04 04:18:05 BASE 1.86 254 2.21 251 0.7 87 -1.2 0 0 968.0 NA 0.0000 9999 7680 9450 12800 0
2019/04/04 04:19:06 BASE 2.04 252 2.21 253 0.7 87 -1.2 0 0 968.0 NA 0.0000 9999 7740 9320 12860 0
2019/04/04 04:20:04 BASE 2.07 253 2.21 253 0.7 88 -1.1 0 0 968.0 NA 0.0000 9999 7190 9190 0 0
2019/04/04 04:21:07 BASE 2.00 252 2.21 253 0.8 88 -1.0 0 0 968.0 NA 0.0000 9999 7250 9060 0 0
2019/04/04 04:22:01 BASE 2.04 245 2.21 253 0.8 88 -0.9 0 0 967.9 NA 0.0000 9999 7280 8300 0 0
2019/04/04 04:23:05 BASE 2.10 238 2.31 237 0.8 89 -0.9 0 0 967.9 NA 0.0000 9999 7320 8890 0 0
2019/04/04 04:24:05 BASE 2.09 238 2.31 237 0.7 89 -0.8 0 0 967.9 NA 0.0000 9999 7350 12830 0 0
2019/04/04 04:25:04 BASE 2.07 238 2.42 243 0.7 90 -0.7 0 0 967.9 NA 0.0000 9999 7250 8920 10430 0
2019/04/04 04:26:05 BASE 2.06 238 2.42 243 0.7 91 -0.7 0 0 967.9 NA 0.0000 9999 6730 10300 12860 0
2019/04/04 04:27:05 BASE 1.91 243 2.42 243 0.7 91 -0.6 0 0 967.9 NA 0.0000 9999 6730 8960 10430 0
2019/04/04 04:28:04 BASE 1.74 248 2.52 248 0.6 92 -0.5 0 0 967.9 NA 0.0000 9999 6660 8790 0 0
2019/04/04 04:29:05 BASE 1.95 248 2.88 251 0.6 92 -0.5 0 0 967.9 NA 0.0000 9999 6630 8690 0 0
2019/04/04 04:30:04 BASE 2.46 248 3.09 249 0.6 93 -0.5 0 0 968.0 NA 0.0000 9999 6590 12860 0 0
2019/04/04 04:31:05 BASE 2.72 246 3.09 249 0.5 93 -0.5 0 0 968.0 NA 0.0000 9999 6560 8530 0 0
2019/04/04 04:32:01 BASE 2.62 242 3.09 249 0.5 93 -0.4 0 0 968.0 NA 0.0000 9999 6790 8400 0 0
2019/04/04 04:33:04 BASE 2.58 240 3.09 249 0.5 94 -0.4 0 0 968.1 NA 0.0000 9999 7050 0 0 0
2019/04/04 04:34:05 BASE 2.67 236 3.09 249 0.5 94 -0.4 0 0 968.1 NA 0.0000 9999 8630 0 0 0
2019/04/04 04:35:05 BASE 2.82 230 3.34 233 0.5 94 -0.4 0 0 968.0 NA 0.0000 9999 8600 0 0 0
2019/04/04 04:36:05 BASE 2.68 223 3.34 233 0.5 94 -0.4 0 0 967.9 NA 0.0000 9999 8660 0 0 0
2019/04/04 04:37:05 BASE 2.33 216 3.34 233 0.5 94 -0.4 0 0 967.9 NA 0.0000 9999 8600 0 0 0
2019/04/04 04:38:04 BASE 2.53 213 3.45 208 0.5 94 -0.4 0 0 967.9 NA 0.0000 9999 8600 0 0 0
2019/04/04 04:39:04 BASE 2.96 214 3.60 223 0.5 94 -0.4 0 0 967.9 NA 0.0000 9999 8560 0 0 0
2019/04/04 04:40:04 BASE 3.08 217 3.60 223 0.4 94 -0.4 0 0 967.9 NA 0.0000 9999 8430 0 0 0
2019/04/04 04:41:05 BASE 3.54 221 4.22 222 0.4 95 -0.3 0 0 967.9 NA 0.0000 9999 8460 0 0 0
2019/04/04 04:42:05 BASE 4.04 223 4.27 219 0.4 95 -0.3 0 0 967.9 NA 0.0000 9999 8400 0 0 0
2019/04/04 04:43:04 BASE 4.23 223 4.78 224 0.4 96 -0.2 0 0 967.9 NA 0.0000 9999 8330 0 0 0
2019/04/04 04:44:05 BASE 3.97 223 4.78 224 0.4 96 -0.1 0 0 967.9 NA 0.0000 9999 8690 13030 0 0
2019/04/04 04:45:04 BASE 3.12 223 4.78 224 0.4 97 0.0 0 0 967.9 NA 0.0000 9999 8300 12930 0 0
2019/04/04 04:46:05 BASE 2.65 227 4.78 224 0.4 98 0.1 0 0 968.0 NA 0.0000 9999 8240 12930 0 0
2019/04/04 04:47:05 BASE 2.26 235 4.78 224 0.4 98 0.2 0 0 968.1 NA 0.0000 9999 8300 12930 0 0
2019/04/04 04:48:04 BASE 1.79 240 4.78 224 0.4 99 0.2 0 0 968.1 NA 0.0000 9999 8630 12860 0 0
2019/04/04 04:49:04 BASE 1.49 243 4.78 224 0.4 99 0.3 0 0 968.0 NA 0.0000 9999 8370 12800 0 0
2019/04/04 04:50:05 BASE 1.32 247 4.78 224 0.4 100 0.3 0 0 968.0 NA 0.0000 9999 12660 0 0 0
2019/04/04 04:51:05 BASE 1.43 250 4.78 224 0.4 100 0.4 0 0 967.9 NA 0.0000 9999 8370 12860 0 0
2019/04/04 04:52:04 BASE 1.42 256 4.78 224 0.4 100 0.4 0 0 967.9 NA 0.0000 9999 8270 12800 0 0
2019/04/04 04:53:04 BASE 0.67 260 4.22 229 0.4 100 0.4 0 0 967.9 NA 0.0000 9999 8270 0 0 0
2019/04/04 04:54:04 BASE 0.00 262 2.98 223 0.4 100 0.4 0 0 968.0 NA 0.0000 9999 8240 0 0 0
2019/04/04 04:55:04 BASE 0.00 262 2.88 230 0.4 100 0.4 0 0 968.1 NA 0.0000 9999 8270 12830 0 0
2019/04/04 04:56:04 BASE 0.00 295 2.52 234 0.4 100 0.4 0 0 968.1 NA 0.0000 9999 12830 0 0 0
2019/04/04 04:57:04 BASE 0.57 4 2.06 236 0.4 100 0.4 0 0 968.1 NA 0.0000 9999 12760 0 0 0
2019/04/04 04:58:04 BASE 1.39 40 1.85 51 0.3 100 0.3 0 0 968.2 NA 0.0000 9999 8430 12830 0 0
2019/04/04 04:59:04 BASE 1.57 51 1.85 51 0.3 100 0.3 0 0 968.2 NA 0.0000 9999 6860 12800 0 0
2019/04/04 05:00:04 BASE 1.40 56 1.85 51 0.2 100 0.2 0 0 968.2 NA 0.0000 9999 12760 0 0 0
2019/04/04 05:01:04 BASE 1.46 55 2.06 45 0.1 100 0.1 0 0 968.3 NA 0.0000 9999 12800 0 0 0
2019/04/04 05:02:04 BASE 1.53 36 2.06 45 0.1 100 0.1 0 0 968.2 NA 0.0000 9999 12700 0 0 0
2019/04/04 05:03:04 BASE 1.01 24 2.06 45 0.1 100 0.1 0 0 968.3 NA 0.0000 9999 8400 0 0 0
2019/04/04 05:04:04 BASE 0.92 32 2.06 45 0.1 100 0.1 0 0 968.3 NA 0.0000 9999 8330 13060 0 0
2019/04/04 05:05:04 BASE 1.54 28 2.06 30 0.1 100 0.1 0 0 968.2 NA 0.0000 9999 13060 0 0 0
2019/04/04 05:06:04 BASE 1.76 15 2.06 30 0.2 100 0.2 0 0 968.2 NA 0.0000 9999 8240 13060 0 0
2019/04/04 05:07:04 BASE 1.93 6 2.52 4 0.2 100 0.2 0 0 968.2 NA 0.0000 9999 13090 0 0 0
2019/04/04 05:08:04 BASE 2.25 4 2.68 360 0.2 100 0.2 0 0 968.2 NA 0.0000 9999 13090 0 0 0
2019/04/04 05:09:05 BASE 2.30 354 2.68 360 0.2 100 0.2 0 0 968.2 NA 0.0000 9999 13120 0 0 0
2019/04/04 05:10:05 BASE 2.07 344 2.68 360 0.2 100 0.2 0 0 968.2 NA 0.0000 9999 13220 0 0 0
2019/04/04 05:11:04 BASE 2.16 354 3.19 355 0.2 100 0.2 0 0 968.2 NA 0.0000 9999 13120 0 0 0
2019/04/04 05:12:01 BASE 2.42 3 3.19 355 0.2 100 0.2 0 0 968.2 NA 0.0000 9999 7350 13260 0 0
2019/04/04 05:13:04 BASE 2.61 5 3.19 9 0.1 100 0.1 0 0 968.2 NA 0.0000 9999 7320 13320 0 0
2019/04/04 05:14:04 BASE 2.65 10 3.24 27 0.1 100 0.1 0 0 968.2 NA 0.0000 9999 7150 13320 0 0
2019/04/04 05:15:05 BASE 2.72 14 3.24 27 0.1 100 0.1 0 0 968.2 NA 0.0000 9999 7150 13260 0 0
2019/04/04 05:16:05 BASE 2.91 17 3.24 27 0.1 100 0.1 0 0 968.2 NA 0.0000 9999 7090 13190 0 0
2019/04/04 05:17:02 BASE 3.10 11 3.45 7 0.0 100 0.0 0 0 968.2 NA 0.0000 9999 6920 13190 0 0
2019/04/04 05:18:05 BASE 2.91 354 3.45 7 -0.0 100 -0.0 0 0 968.2 NA 0.0000 9999 6990 0 0 0
2019/04/04 05:19:04 BASE 2.70 354 3.45 7 -0.1 100 -0.1 0 0 968.2 NA 0.0000 9999 7150 13290 0 0
2019/04/04 05:20:05 BASE 2.81 10 3.45 7 -0.2 100 -0.2 0 0 968.2 NA 0.0000 9999 6990 0 0 0
2019/04/04 05:21:06 BASE 2.83 14 3.45 7 -0.2 100 -0.2 0 0 968.2 NA 0.0000 9999 7090 0 0 0
2019/04/04 05:22:01 BASE 2.81 11 3.45 7 -0.2 100 -0.2 0 0 968.2 NA 0.0000 9999 6920 13350 0 0
2019/04/04 05:23:04 BASE 2.75 6 3.45 7 -0.2 100 -0.2 0 0 968.2 NA 0.0000 9999 6960 13260 0 0
2019/04/04 05:24:04 BASE 2.73 6 3.45 7 -0.2 100 -0.2 0 0 968.2 NA 0.0000 9999 6990 0 0 0
2019/04/04 05:25:05 BASE 3.00 6 3.45 4 -0.2 100 -0.2 0 0 968.2 NA 0.0000 9999 6890 0 0 0
2019/04/04 05:26:05 BASE 3.25 5 3.76 6 -0.3 100 -0.3 0 0 968.2 NA 0.0000 9999 6820 0 0 0
2019/04/04 05:27:05 BASE 3.09 9 3.76 6 -0.3 100 -0.3 0 0 968.2 NA 0.0000 9999 7150 0 0 0
2019/04/04 05:28:05 BASE 3.16 9 3.76 6 -0.3 100 -0.3 0 0 968.3 NA 0.0000 9999 5840 0 0 0
2019/04/04 05:29:05 BASE 3.37 9 3.76 6 -0.3 100 -0.3 0 0 968.2 NA 0.0000 9999 5710 0 0 0
2019/04/04 05:30:04 BASE 3.15 15 3.76 6 -0.3 100 -0.3 0 0 968.3 NA 0.0000 9999 5840 7740 0 0
2019/04/04 05:31:05 BASE 2.94 14 3.76 6 -0.3 100 -0.3 0 0 968.3 NA 0.0000 9999 5840 0 0 0
2019/04/04 05:32:06 BASE 2.98 12 3.76 6 -0.3 100 -0.3 0 0 968.3 NA 0.0000 9999 5910 0 0 0
2019/04/04 05:33:05 BASE 3.12 23 3.76 6 -0.3 100 -0.3 0 0 968.3 NA 0.0000 9999 5940 0 0 0
2019/04/04 05:34:02 BASE 3.35 39 3.81 42 -0.3 100 -0.3 0 0 968.3 NA 0.0000 9999 5940 0 0 0
2019/04/04 05:35:06 BASE 3.37 48 3.81 42 -0.3 100 -0.3 0 0 968.3 NA 0.0000 9999 6000 0 0 0
2019/04/04 05:36:04 BASE 3.12 54 3.81 42 -0.3 100 -0.3 0 0 968.3 NA 0.0000 9999 5940 6660 0 0
2019/04/04 05:37:02 BASE 3.19 57 4.37 49 -0.3 100 -0.3 0 0 968.4 NA 0.0000 9999 5810 6690 0 0
2019/04/04 05:38:04 BASE 3.75 53 5.04 41 -0.2 100 -0.2 0 0 968.4 NA 0.0000 9999 5870 6690 7320 0
2019/04/04 05:39:05 BASE 3.74 51 5.04 41 -0.2 100 -0.2 0 0 968.4 NA 0.0000 9999 5970 7050 0 0
2019/04/04 05:40:05 BASE 3.39 56 5.04 41 -0.2 100 -0.2 0 0 968.4 NA 0.0000 9999 6070 6630 7350 0
2019/04/04 05:41:05 BASE 3.46 56 5.04 41 -0.1 100 -0.1 0 0 968.4 NA 0.0000 9999 6070 7350 0 0
2019/04/04 05:42:02 BASE 3.55 54 5.04 41 -0.1 100 -0.1 0 0 968.4 NA 0.0000 9999 6140 0 0 0
2019/04/04 05:43:05 BASE 3.37 51 5.04 41 -0.1 100 -0.1 0 0 968.4 NA 0.0000 9999 6200 0 0 0
2019/04/04 05:44:05 BASE 3.17 46 5.04 41 -0.1 100 -0.1 0 0 968.4 NA 0.0000 9999 6230 0 0 0
2019/04/04 05:45:05 BASE 3.26 42 5.04 41 -0.0 100 -0.1 0 0 968.4 NA 0.0000 9999 6300 0 0 0
2019/04/04 05:46:05 BASE 3.14 40 5.04 41 -0.0 100 -0.1 0 0 968.4 NA 0.0000 9999 6400 0 0 0
2019/04/04 05:47:04 BASE 2.67 37 5.04 41 0.0 99 -0.1 0 0 968.4 NA 0.0000 9999 6530 0 0 0
2019/04/04 05:48:05 BASE 2.24 35 3.91 53 0.1 99 -0.1 0 0 968.4 NA 0.0000 9999 6630 0 0 0
2019/04/04 05:49:05 BASE 1.81 33 3.91 53 0.1 99 -0.1 0 0 968.4 NA 0.0000 9999 6690 0 0 0
2019/04/04 05:50:04 BASE 1.75 27 3.91 53 0.1 98 -0.2 0 0 968.4 NA 0.0000 9999 6730 0 0 0
2019/04/04 05:51:05 BASE 1.80 8 3.70 60 0.1 98 -0.2 0 0 968.4 NA 0.0000 9999 6690 0 0 0
2019/04/04 05:52:05 BASE 1.72 357 3.55 32 0.1 97 -0.3 0 0 968.4 NA 0.0000 9999 6760 0 0 0
2019/04/04 05:53:05 BASE 1.83 3 3.55 32 0.1 97 -0.3 0 0 968.4 NA 0.0000 9999 8690 0 0 0
2019/04/04 05:54:05 BASE 1.88 359 3.55 32 0.1 97 -0.4 0 0 968.4 NA 0.0000 9999 8690 0 0 0
2019/04/04 05:55:05 BASE 1.79 359 3.19 38 0.1 97 -0.3 0 0 968.5 NA 0.0000 9999 0 0 0 490
2019/04/04 05:56:05 BASE 1.73 6 2.62 32 0.1 97 -0.4 0 0 968.5 NA 0.0000 9999 0 0 0 490
2019/04/04 05:57:05 BASE 1.84 3 2.26 40 0.1 97 -0.4 0 0 968.5 NA 0.0000 9999 0 0 0 520
2019/04/04 05:58:05 BASE 1.92 357 2.21 167 0.1 96 -0.4 0 0 968.5 NA 0.0000 9999 5090 0 0 0
2019/04/04 05:59:05 BASE 1.98 356 2.21 167 0.0 96 -0.5 0 0 968.5 NA 0.0000 9999 0 0 0 560
2019/04/04 06:00:06 BASE 2.12 352 2.73 341 0.0 96 -0.5 0 0 968.5 NA 0.0000 9999 4950 0 0 0
2019/04/04 06:01:06 BASE 2.21 349 2.73 341 0.1 97 -0.4 0 0 968.5 NA 0.0000 9999 0 0 0 620
2019/04/04 06:02:04 BASE 1.93 360 2.73 341 0.1 97 -0.4 0 0 968.5 NA 0.0000 9999 0 0 0 690
2019/04/04 06:03:05 BASE 1.53 7 2.73 341 0.1 97 -0.3 0 0 968.5 NA 0.0000 9999 0 0 0 720
2019/04/04 06:04:05 BASE 1.69 2 2.73 341 0.1 97 -0.3 0 0 968.6 NA 0.0000 9999 0 0 0 690
2019/04/04 06:05:05 BASE 1.85 4 2.73 341 0.1 97 -0.3 0 0 968.6 NA 0.0000 9999 0 0 0 660
2019/04/04 06:06:04 BASE 1.76 13 2.73 341 0.1 98 -0.3 0 0 968.6 NA 0.0000 9999 4490 0 0 0
2019/04/04 06:07:04 BASE 1.91 26 2.73 341 0.0 98 -0.2 0 0 968.6 NA 0.0000 9999 4070 0 0 0
2019/04/04 06:08:04 BASE 2.09 33 2.73 341 -0.0 98 -0.2 0 0 968.6 NA 0.0000 9999 3840 0 0 0
2019/04/04 06:09:05 BASE 1.96 36 2.73 341 -0.0 99 -0.2 0 0 968.6 NA 0.0000 9999 4070 0 0 0
2019/04/04 06:10:05 BASE 2.06 40 2.73 341 -0.0 99 -0.2 0 0 968.6 NA 0.0000 9999 3710 0 0 0
2019/04/04 06:11:04 BASE 2.22 43 2.52 47 -0.0 99 -0.2 0 0 968.6 NA 0.0000 9999 3480 0 0 0
2019/04/04 06:12:05 BASE 2.22 45 2.52 47 -0.0 99 -0.2 0 0 968.7 NA 0.0000 9999 2760 0 0 0
2019/04/04 06:13:05 BASE 2.33 41 2.62 37 0.0 99 -0.1 0 0 968.7 NA 0.0000 9999 3150 0 0 0
2019/04/04 06:14:05 BASE 2.37 36 2.62 37 0.0 99 -0.1 0 0 968.7 NA 0.0000 9999 7120 0 0 0
2019/04/04 06:15:04 BASE 2.36 39 2.78 44 0.0 99 -0.1 0 0 968.7 NA 0.0000 9999 6860 0 0 0
2019/04/04 06:16:05 BASE 2.59 42 3.29 52 0.0 99 -0.1 0 0 968.7 NA 0.0000 9999 6460 0 0 0
2019/04/04 06:17:05 BASE 2.48 43 3.29 52 0.1 99 -0.1 0 0 968.7 NA 0.0000 9999 6330 0 0 0
2019/04/04 06:18:05 BASE 2.31 47 3.29 52 0.1 99 -0.1 0 0 968.7 NA 0.0000 9999 6400 0 0 0
2019/04/04 06:19:05 BASE 2.54 44 3.29 52 0.1 98 -0.1 0 0 968.7 NA 0.0000 9999 6590 0 0 0
2019/04/04 06:20:05 BASE 2.60 36 3.29 52 0.1 98 -0.1 0 0 968.7 NA 0.0000 9999 6820 8040 0 0
2019/04/04 06:21:07 BASE 2.57 38 3.29 52 0.2 98 -0.1 0 0 968.7 NA 0.0000 9999 6860 7940 0 0
2019/04/04 06:22:02 BASE 2.57 33 3.29 52 0.2 98 -0.1 0 0 968.8 NA 0.0000 9999 6960 7970 0 0
2019/04/04 06:23:05 BASE 2.47 25 3.29 52 0.2 97 -0.1 0 0 968.8 NA 0.0000 9999 7050 0 0 0
2019/04/04 06:24:04 BASE 2.63 20 3.29 52 0.2 97 -0.2 0 0 968.8 NA 0.0000 9999 7120 0 0 0
2019/04/04 06:25:05 BASE 2.88 11 3.29 52 0.2 96 -0.3 0 0 968.8 NA 0.0000 9999 7190 0 0 0
2019/04/04 06:26:05 BASE 2.86 10 3.19 13 0.2 96 -0.4 0 0 968.7 NA 0.0000 9999 7250 0 0 0
2019/04/04 06:27:05 BASE 2.70 15 3.19 13 0.2 96 -0.4 0 0 968.8 NA 0.0000 9999 7150 0 0 0
2019/04/04 06:28:05 BASE 2.64 17 3.19 13 0.1 96 -0.5 0 0 968.8 NA 0.0000 9999 6730 0 0 0
2019/04/04 06:29:04 BASE 2.71 13 3.19 13 0.1 96 -0.5 0 0 968.8 NA 0.0000 9999 6630 0 0 0
2019/04/04 06:30:06 BASE 2.61 9 3.19 13 0.1 96 -0.4 0 0 968.9 NA 0.0000 9999 7150 0 0 0
2019/04/04 06:31:05 BASE 2.46 10 3.19 13 0.1 96 -0.4 0 0 968.9 NA 0.0000 9999 7190 0 0 0
2019/04/04 06:32:05 BASE 2.55 19 3.19 13 0.1 96 -0.4 0 0 968.9 NA 0.0000 9999 6530 0 0 0
2019/04/04 06:33:04 BASE 2.71 23 3.19 13 0.1 96 -0.4 0 0 968.9 NA 0.0000 9999 6330 0 0 0
2019/04/04 06:34:06 BASE 2.71 21 3.19 13 0.1 96 -0.5 0 0 968.9 NA 0.0000 9999 6270 0 0 0
2019/04/04 06:35:06 BASE 2.64 20 3.14 2 0.1 96 -0.5 0 0 968.9 NA 0.0000 9999 6400 0 0 0
2019/04/04 06:36:05 BASE 2.56 18 3.14 2 0.1 96 -0.5 0 0 968.9 NA 0.0000 9999 6270 0 0 0
2019/04/04 06:37:05 BASE 2.47 12 3.14 2 0.0 97 -0.4 0 0 968.9 NA 0.0000 9999 6170 0 0 0
2019/04/04 06:38:05 BASE 2.26 10 3.14 2 -0.0 97 -0.5 0 0 968.9 NA 0.0000 9999 7350 0 0 0
2019/04/04 06:39:04 BASE 2.47 10 3.45 360 -0.0 97 -0.4 0 0 968.9 NA 0.0000 9999 6070 0 0 0
2019/04/04 06:40:05 BASE 2.94 11 3.45 360 -0.0 97 -0.5 0 0 968.9 NA 0.0000 9999 6100 7510 0 0
2019/04/04 06:41:05 BASE 2.96 17 3.45 360 -0.0 97 -0.4 0 0 968.9 NA 0.0000 9999 5970 6960 0 0
2019/04/04 06:42:05 BASE 3.00 21 3.45 19 -0.0 97 -0.4 0 0 968.9 NA 0.0000 9999 6040 0 0 0
2019/04/04 06:43:05 BASE 2.80 16 3.45 19 -0.0 98 -0.4 0 0 969.0 NA 0.0000 9999 6960 0 0 0
2019/04/04 06:44:05 BASE 2.42 13 3.45 19 -0.0 98 -0.3 0 0 969.0 NA 0.0000 9999 6230 0 0 0
2019/04/04 06:45:05 BASE 2.26 14 3.45 19 -0.0 98 -0.3 0 0 969.0 NA 0.0000 9999 6660 0 0 0
2019/04/04 06:46:05 BASE 2.12 10 3.45 19 -0.1 98 -0.3 0 0 969.0 NA 0.0000 9999 6990 0 0 0
2019/04/04 06:47:05 BASE 1.29 15 3.45 19 -0.1 98 -0.4 0 0 969.0 NA 0.0000 9999 6690 0 0 0
2019/04/04 06:48:04 BASE 0.47 29 3.45 19 -0.1 98 -0.4 0 0 969.0 NA 0.0000 9999 6230 0 0 0
2019/04/04 06:49:05 BASE 0.20 35 3.45 19 -0.2 98 -0.4 0 0 969.0 NA 0.0000 9999 6270 0 0 0
2019/04/04 06:50:05 BASE 0.24 26 3.45 19 -0.2 99 -0.4 0 0 969.0 NA 0.0000 9999 7250 0 0 0
2019/04/04 06:51:05 BASE 1.05 21 3.45 19 -0.2 99 -0.4 0 0 969.0 NA 0.0000 9999 5970 0 0 0
2019/04/04 06:52:05 BASE 1.69 26 3.09 13 -0.2 99 -0.3 0 0 969.0 NA 0.0000 9999 0 0 0 490
2019/04/04 06:53:05 BASE 1.67 30 3.09 13 -0.2 99 -0.3 0 0 969.0 NA 0.0000 9999 0 0 0 520
2019/04/04 06:54:05 BASE 1.75 27 2.88 17 -0.1 99 -0.3 0 0 969.0 NA 0.0000 9999 6630 0 0 0
2019/04/04 06:55:05 BASE 1.90 18 2.37 13 -0.1 98 -0.3 0 0 969.1 NA 0.0000 9999 7320 0 0 0
2019/04/04 06:56:06 BASE 1.93 17 2.37 13 -0.1 98 -0.3 0 0 969.1 NA 0.0000 9999 7220 0 0 0
2019/04/04 06:57:05 BASE 2.05 24 2.62 28 -0.1 98 -0.4 0 0 969.1 NA 0.0000 9999 8530 0 0 0
2019/04/04 06:58:05 BASE 2.02 25 2.62 28 -0.1 97 -0.4 0 0 969.1 NA 0.0000 9999 6200 0 0 0
2019/04/04 06:59:05 BASE 1.93 27 2.62 28 -0.1 97 -0.5 0 0 969.1 NA 0.0000 9999 7090 0 0 0
2019/04/04 07:00:06 BASE 2.23 25 3.04 12 -0.1 97 -0.5 0 0 969.1 NA 0.0000 9999 5680 0 0 0
2019/04/04 07:01:06 BASE 2.35 25 3.04 12 -0.1 97 -0.6 0 0 969.1 NA 0.0000 9999 7350 0 0 0
2019/04/04 07:02:05 BASE 2.42 33 3.04 12 -0.1 96 -0.6 0 0 969.1 NA 0.0000 9999 7320 8100 0 0
2019/04/04 07:03:04 BASE 2.66 40 3.24 37 -0.1 96 -0.6 0 0 969.1 NA 0.0000 9999 5840 0 0 0
2019/04/04 07:04:05 BASE 3.02 43 3.81 43 -0.1 96 -0.6 0 0 969.1 NA 0.0000 9999 5680 0 0 0
2019/04/04 07:05:06 BASE 3.25 39 3.81 43 -0.1 96 -0.6 0 0 969.1 NA 0.0000 9999 5680 0 0 0
2019/04/04 07:06:04 BASE 3.34 37 3.91 31 -0.1 96 -0.7 0 0 969.1 NA 0.0000 9999 5640 13390 0 0
2019/04/04 07:07:04 BASE 3.25 39 3.91 31 -0.1 96 -0.7 0 0 969.1 NA 0.0000 9999 5680 6820 13320 0
2019/04/04 07:08:05 BASE 3.31 30 3.91 17 -0.1 96 -0.7 0 0 969.1 NA 0.0000 9999 5540 6760 13390 0
2019/04/04 07:09:05 BASE 3.41 18 3.91 17 -0.1 96 -0.7 0 0 969.1 NA 0.0000 9999 5410 13420 0 0
2019/04/04 07:10:04 BASE 3.09 16 3.91 17 -0.1 95 -0.7 0 0 969.1 NA 0.0000 9999 5410 7220 13450 0
2019/04/04 07:11:04 BASE 3.00 24 3.96 21 -0.1 95 -0.8 0 0 969.1 NA 0.0000 9999 5350 13480 0 0
2019/04/04 07:12:05 BASE 3.93 28 5.45 20 -0.2 95 -0.9 0 0 969.1 NA 0.0000 9999 5220 7350 13520 0
2019/04/04 07:13:04 BASE 4.53 20 5.45 20 -0.2 95 -0.9 0 0 969.1 NA 0.0000 9999 5350 7350 0 0
2019/04/04 07:14:04 BASE 4.29 15 5.45 20 -0.3 95 -1.0 0 0 969.2 NA 0.0000 9999 6860 7550 8530 0
2019/04/04 07:15:04 BASE 4.30 20 5.45 20 -0.3 95 -1.0 0 0 969.2 NA 0.0000 9999 7220 8600 0 0
2019/04/04 07:16:05 BASE 4.54 23 5.45 20 -0.3 95 -1.0 0 0 969.2 NA 0.0000 9999 7190 8170 0 0
2019/04/04 07:17:06 BASE 3.81 17 5.45 20 -0.3 95 -1.1 0 0 969.2 NA 0.0000 9999 7190 8100 8790 0
2019/04/04 07:18:05 BASE 3.37 16 5.45 20 -0.3 94 -1.1 0 0 969.2 NA 0.0000 9999 8070 8830 0 0
2019/04/04 07:19:04 BASE 3.94 20 5.45 20 -0.3 94 -1.1 0 0 969.2 NA 0.0000 9999 7940 8690 0 0
2019/04/04 07:20:05 BASE 4.27 21 5.45 20 -0.3 94 -1.1 0 0 969.2 NA 0.0000 9999 8100 8660 0 0
2019/04/04 07:21:07 BASE 4.39 24 5.45 20 -0.3 94 -1.0 0 0 969.2 NA 0.0000 9999 5940 8170 0 0
2019/04/04 07:22:01 BASE 4.37 24 5.09 33 -0.2 94 -1.0 0 0 969.2 NA 0.0000 9999 6460 7780 8630 0
2019/04/04 07:23:05 BASE 4.19 19 5.09 33 -0.2 94 -1.0 0 0 969.2 NA 0.0000 9999 6330 7220 8600 0
2019/04/04 07:24:05 BASE 4.19 20 5.09 33 -0.2 94 -1.1 0 0 969.2 NA 0.0000 9999 7220 0 0 0
2019/04/04 07:25:06 BASE 4.32 24 5.04 22 -0.2 93 -1.2 0 0 969.2 NA 0.0000 9999 5870 8500 0 0
2019/04/04 07:26:05 BASE 4.61 29 5.25 39 -0.2 93 -1.3 0 0 969.2 NA 0.0000 9999 5770 7020 8500 0
2019/04/04 07:27:05 BASE 4.52 31 5.25 39 -0.2 92 -1.4 0 0 969.3 NA 0.0000 9999 5680 6990 8400 0
2019/04/04 07:28:05 BASE 4.84 33 5.71 41 -0.2 91 -1.5 0 0 969.3 NA 0.0000 9999 5680 6960 8330 0
2019/04/04 07:29:05 BASE 5.29 40 5.71 41 -0.2 90 -1.7 0 0 969.3 NA 0.0000 9999 5680 0 0 0
2019/04/04 07:30:05 BASE 5.02 43 5.71 41 -0.3 89 -1.8 0 0 969.3 NA 0.0000 9999 5710 8430 0 0
2019/04/04 07:31:05 BASE 4.64 45 5.71 41 -0.3 88 -2.0 0 0 969.3 NA 0.0000 9999 5940 8240 0 0
2019/04/04 07:32:05 BASE 4.28 42 5.71 41 -0.3 88 -2.1 0 0 969.3 NA 0.0000 9999 5940 0 0 0
2019/04/04 07:33:05 BASE 3.86 39 5.71 41 -0.3 87 -2.2 0 0 969.3 NA 0.0000 9999 5840 0 0 0
2019/04/04 07:34:04 BASE 3.24 35 5.71 41 -0.3 87 -2.2 0 0 969.3 NA 0.0000 9999 5840 0 0 0
2019/04/04 07:35:04 BASE 3.25 30 5.71 41 -0.4 87 -2.3 0 0 969.3 NA 0.0000 9999 5710 0 0 0
2019/04/04 07:36:05 BASE 3.62 32 5.71 41 -0.4 87 -2.2 0 0 969.3 NA 0.0000 9999 5610 8240 0 0
2019/04/04 07:37:05 BASE 3.74 30 5.71 41 -0.4 87 -2.2 0 0 969.4 NA 0.0000 9999 5680 6730 8240 0
2019/04/04 07:38:05 BASE 3.82 26 5.56 41 -0.4 88 -2.2 0 0 969.5 NA 0.0000 9999 5840 6920 8200 0
2019/04/04 07:39:05 BASE 3.80 26 5.14 44 -0.4 88 -2.1 0 0 969.5 NA 0.0000 9999 5970 7050 8200 0
2019/04/04 07:40:04 BASE 4.03 29 4.89 40 -0.4 89 -2.0 0 0 969.5 NA 0.0000 9999 6100 6990 0 0
2019/04/04 07:41:05 BASE 4.28 26 4.84 21 -0.4 89 -2.0 0 0 969.5 NA 0.0000 9999 6100 6960 0 0
2019/04/04 07:42:04 BASE 4.02 19 4.84 21 -0.5 90 -1.9 0 0 969.5 NA 0.0000 9999 6890 0 0 0
2019/04/04 07:43:04 BASE 3.80 14 4.84 21 -0.5 90 -1.8 0 0 969.5 NA 0.0000 9999 6890 0 0 0
2019/04/04 07:44:04 BASE 3.83 10 4.84 21 -0.5 91 -1.8 0 0 969.4 NA 0.0000 9999 6960 0 0 0
2019/04/04 07:45:05 BASE 4.02 8 4.84 21 -0.4 91 -1.7 0 0 969.3 NA 0.0000 9999 6990 8170 0 0
2019/04/04 07:46:05 BASE 4.13 7 4.84 21 -0.4 92 -1.6 0 0 969.3 NA 0.0000 9999 12890 0 0 0
2019/04/04 07:47:05 BASE 4.17 8 4.84 21 -0.4 92 -1.5 0 0 969.3 NA 0.0000 9999 12730 0 0 0
2019/04/04 07:48:05 BASE 3.77 8 4.84 21 -0.3 92 -1.5 0 0 969.4 NA 0.0000 9999 7020 0 0 0
2019/04/04 07:49:04 BASE 3.41 12 4.84 21 -0.3 92 -1.5 0 0 969.4 NA 0.0000 9999 8170 12800 0 0
2019/04/04 07:50:05 BASE 3.36 21 4.84 21 -0.3 92 -1.5 0 0 969.4 NA 0.0000 9999 7120 8140 0 0
2019/04/04 07:51:05 BASE 3.44 26 4.53 9 -0.3 92 -1.5 0 0 969.5 NA 0.0000 9999 8170 13030 0 0
2019/04/04 07:52:05 BASE 3.60 27 4.53 9 -0.3 92 -1.5 0 0 969.5 NA 0.0000 9999 12960 0 0 0
2019/04/04 07:53:05 BASE 3.68 25 4.53 9 -0.3 92 -1.5 0 0 969.5 NA 0.0000 9999 6960 8140 0 0
2019/04/04 07:54:05 BASE 3.89 24 4.53 9 -0.3 92 -1.4 0 0 969.4 NA 0.0000 9999 8200 0 0 0
2019/04/04 07:55:04 BASE 3.99 28 4.53 9 -0.3 92 -1.4 0 0 969.3 NA 0.0000 9999 7420 0 0 0
2019/04/04 07:56:04 BASE 3.93 28 4.53 9 -0.3 92 -1.4 0 0 969.3 NA 0.0000 9999 8100 12800 0 0
2019/04/04 07:57:05 BASE 4.24 25 4.99 24 -0.2 92 -1.4 0 0 969.3 NA 0.0000 9999 8070 12830 0 0
2019/04/04 07:58:05 BASE 4.44 23 4.99 24 -0.2 92 -1.3 0 0 969.3 NA 0.0000 9999 7940 0 0 0
2019/04/04 07:59:05 BASE 4.39 19 4.99 24 -0.2 92 -1.4 0 0 969.3 NA 0.0000 9999 8040 12890 0 0
2019/04/04 08:00:05 BASE 4.30 17 4.99 24 -0.2 92 -1.4 0 0 969.3 NA 0.0000 9999 8100 0 0 0
2019/04/04 08:01:05 BASE 4.18 17 4.99 24 -0.3 92 -1.3 0 0 969.3 NA 0.0000 9999 8040 0 0 0
2019/04/04 08:02:05 BASE 4.07 17 4.99 24 -0.3 93 -1.3 0 0 969.3 NA 0.0000 9999 8010 0 0 0
2019/04/04 08:03:05 BASE 4.08 15 4.99 24 -0.3 93 -1.3 0 0 969.3 NA 0.0000 9999 8010 0 0 0
2019/04/04 08:04:04 BASE 4.16 12 4.99 24 -0.3 93 -1.3 0 0 969.3 NA 0.0000 9999 7970 0 0 0
2019/04/04 08:05:05 BASE 4.02 9 4.99 24 -0.3 93 -1.3 0 0 969.3 NA 0.0000 9999 8010 0 0 0
2019/04/04 08:06:05 BASE 3.86 7 4.99 24 -0.3 93 -1.3 0 0 969.3 NA 0.0000 9999 7970 0 0 0
2019/04/04 08:07:05 BASE 4.21 7 5.04 5 -0.3 93 -1.3 0 0 969.3 NA 0.0000 9999 7970 0 0 0
2019/04/04 08:08:04 BASE 4.64 9 5.14 8 -0.3 93 -1.3 0 0 969.3 NA 0.0000 9999 7970 0 0 0
2019/04/04 08:09:05 BASE 4.46 13 5.14 8 -0.3 93 -1.2 0 0 969.4 NA 0.0000 9999 7970 0 0 0
2019/04/04 08:10:05 BASE 3.84 17 5.14 8 -0.3 94 -1.2 0 0 969.4 NA 0.0000 9999 7870 0 0 0
2019/04/04 08:11:05 BASE 3.45 21 5.14 8 -0.3 94 -1.1 0 0 969.5 NA 0.0000 9999 7940 12730 0 0
2019/04/04 08:12:05 BASE 3.02 28 5.14 8 -0.3 94 -1.1 0 0 969.5 NA 0.0000 9999 7780 0 0 0
2019/04/04 08:13:05 BASE 2.73 31 5.14 8 -0.3 94 -1.1 0 0 969.5 NA 0.0000 9999 7740 0 0 0
2019/04/04 08:14:05 BASE 2.82 32 5.14 8 -0.3 94 -1.1 0 0 969.5 NA 0.0000 9999 7740 0 0 0
2019/04/04 08:15:05 BASE 2.83 37 5.14 8 -0.3 95 -1.1 0 0 969.5 NA 0.0000 9999 7610 0 0 0
2019/04/04 08:16:05 BASE 2.79 37 5.14 8 -0.3 95 -1.1 0 0 969.5 NA 0.0000 9999 7610 0 0 0
2019/04/04 08:17:04 BASE 2.79 37 5.14 8 -0.3 95 -1.1 0 0 969.5 NA 0.0000 9999 7550 0 0 0
2019/04/04 08:18:05 BASE 3.08 40 4.73 18 -0.3 95 -1.1 0 0 969.5 NA 0.0000 9999 7510 0 0 0
2019/04/04 08:19:06 BASE 3.47 40 4.58 18 -0.4 95 -1.1 0 0 969.6 NA 0.0000 9999 7480 12530 0 0
2019/04/04 08:20:04 BASE 3.32 46 4.01 40 -0.4 95 -1.1 0 0 969.6 NA 0.0000 9999 7510 12500 0 0
2019/04/04 08:21:06 BASE 3.06 53 4.01 40 -0.4 95 -1.1 0 0 969.6 NA 0.0000 9999 7480 12530 0 0
2019/04/04 08:22:02 BASE 2.86 48 4.01 40 -0.4 95 -1.1 0 0 969.6 NA 0.0000 9999 12530 0 0 0
2019/04/04 08:23:04 BASE 2.59 44 4.01 40 -0.3 95 -1.0 0 0 969.6 NA 0.0000 9999 12430 0 0 0
2019/04/04 08:24:05 BASE 2.54 48 4.01 40 -0.2 95 -1.0 0 0 969.6 NA 0.0000 9999 7480 12600 0 0
2019/04/04 08:25:04 BASE 2.76 40 4.01 40 -0.2 94 -1.0 0 0 969.7 NA 0.0000 9999 12530 0 0 0
2019/04/04 08:26:05 BASE 2.73 21 4.01 40 -0.1 94 -1.0 0 0 969.6 NA 0.0000 9999 12660 0 0 0
2019/04/04 08:27:05 BASE 2.64 10 4.01 40 -0.0 93 -1.0 0 0 969.6 NA 0.0000 9999 0 0 0 0
2019/04/04 08:28:04 BASE 2.82 5 4.01 40 -0.0 93 -1.0 0 0 969.6 NA 0.0000 9999 7420 12530 0 0
2019/04/04 08:29:05 BASE 2.77 5 3.45 54 -0.0 92 -1.1 0 0 969.7 NA 0.0000 9999 7420 12500 0 0
2019/04/04 08:30:05 BASE 2.77 7 3.45 54 -0.0 92 -1.1 0 0 969.6 NA 0.0000 9999 7380 12630 0 0
2019/04/04 08:31:05 BASE 2.98 7 3.40 35 -0.0 92 -1.2 0 0 969.7 NA 0.0000 9999 7350 0 0 0
2019/04/04 08:32:04 BASE 3.07 6 3.40 35 -0.1 92 -1.2 0 0 969.7 NA 0.0000 9999 7350 0 0 0
2019/04/04 08:33:05 BASE 2.96 7 3.40 35 -0.1 92 -1.2 0 0 969.7 NA 0.0000 9999 7320 0 0 0
2019/04/04 08:34:04 BASE 2.88 7 3.40 35 -0.1 93 -1.2 0 0 969.7 NA 0.0000 9999 7350 0 0 0
2019/04/04 08:35:05 BASE 2.86 8 3.34 8 -0.2 93 -1.1 0 0 969.7 NA 0.0000 9999 7350 0 0 0
2019/04/04 08:36:05 BASE 2.96 9 3.34 8 -0.2 94 -1.1 0 0 969.7 NA 0.0000 9999 7320 0 0 0
2019/04/04 08:37:05 BASE 2.92 14 3.34 8 -0.1 94 -1.0 0 0 969.7 NA 0.0000 9999 7350 0 0 0
2019/04/04 08:38:05 BASE 2.80 22 3.34 8 -0.1 94 -1.0 0 0 969.7 NA 0.0000 9999 7320 0 0 0
2019/04/04 08:39:05 BASE 3.01 27 3.45 23 -0.1 94 -1.0 0 0 969.7 NA 0.0000 9999 7320 0 0 0
2019/04/04 08:40:05 BASE 3.06 28 3.45 23 -0.1 94 -1.0 0 0 969.7 NA 0.0000 9999 7250 0 0 0
2019/04/04 08:41:05 BASE 2.94 30 3.45 23 -0.2 94 -1.0 0 0 969.7 NA 0.0000 9999 7220 0 0 0
2019/04/04 08:42:05 BASE 3.04 30 3.45 23 -0.2 94 -1.0 0 0 969.7 NA 0.0000 9999 7220 0 0 0
2019/04/04 08:43:05 BASE 3.09 28 3.45 23 -0.2 94 -1.0 0 0 969.7 NA 0.0000 9999 7190 0 0 0
2019/04/04 08:44:05 BASE 2.56 34 3.45 23 -0.2 94 -1.0 0 0 969.7 NA 0.0000 9999 7220 0 0 0
2019/04/04 08:45:04 BASE 1.83 44 3.45 23 -0.2 94 -1.0 0 0 969.8 NA 0.0000 9999 7190 0 0 0
2019/04/04 08:46:04 BASE 1.80 46 3.45 23 -0.2 94 -1.0 0 0 969.8 NA 0.0000 9999 7190 0 0 0
2019/04/04 08:47:04 BASE 2.03 51 3.45 23 -0.2 95 -0.9 0 0 969.8 NA 0.0000 9999 7150 0 0 0
2019/04/04 08:48:05 BASE 2.09 63 3.45 23 -0.2 95 -0.9 0 0 969.8 NA 0.0000 9999 7120 0 0 0
2019/04/04 08:49:05 BASE 2.21 64 3.29 29 -0.2 95 -0.9 0 0 969.8 NA 0.0000 9999 7120 0 0 0
2019/04/04 08:50:04 BASE 2.40 57 3.29 29 -0.2 95 -0.9 0 0 969.8 NA 0.0000 9999 7120 0 0 0
2019/04/04 08:51:04 BASE 2.45 53 3.29 29 -0.2 95 -0.9 0 0 969.8 NA 0.0000 9999 7120 0 0 0
2019/04/04 08:52:05 BASE 2.31 53 3.19 28 -0.2 95 -0.9 0 0 969.8 NA 0.0000 9999 7090 0 0 0
2019/04/04 08:53:05 BASE 2.07 51 2.88 53 -0.1 95 -0.9 0 0 969.8 NA 0.0000 9999 7090 0 0 0
2019/04/04 08:54:04 BASE 1.74 47 2.88 53 -0.1 94 -0.9 0 0 969.8 NA 0.0000 9999 7050 0 0 0
2019/04/04 08:55:04 BASE 1.68 43 2.88 53 -0.1 94 -0.9 0 0 969.8 NA 0.0000 9999 7050 0 0 0
2019/04/04 08:56:05 BASE 1.86 48 2.88 53 -0.0 94 -0.9 0 0 969.8 NA 0.0000 9999 7050 0 0 0
2019/04/04 08:57:06 BASE 2.09 52 2.88 66 -0.0 93 -1.0 0 0 969.8 NA 0.0000 9999 6990 0 0 0
2019/04/04 08:58:04 BASE 2.37 55 2.88 66 0.0 93 -1.0 0 0 969.8 NA 0.0000 9999 6990 0 0 0
2019/04/04 08:59:05 BASE 2.21 54 2.88 66 0.0 92 -1.1 0 0 969.9 NA 0.0000 9999 6990 0 0 0
2019/04/04 09:00:05 BASE 1.87 54 2.88 66 0.0 92 -1.1 0 0 969.9 NA 0.0000 9999 7020 0 0 0
2019/04/04 09:01:05 BASE 1.80 58 2.88 66 0.0 92 -1.1 0 0 969.9 NA 0.0000 9999 7050 0 0 0
2019/04/04 09:02:04 BASE 1.72 57 2.88 66 0.0 92 -1.1 0 0 969.9 NA 0.0000 9999 7020 0 0 0
2019/04/04 09:03:05 BASE 1.86 50 2.88 66 0.0 92 -1.1 0 0 969.9 NA 0.0000 9999 7050 0 0 0
2019/04/04 09:04:05 BASE 2.05 47 2.88 66 0.0 92 -1.1 0 0 969.9 NA 0.0000 9999 6990 0 0 0
2019/04/04 09:05:05 BASE 2.33 49 2.88 66 0.0 92 -1.1 0 0 969.9 NA 0.0000 9999 7050 0 0 0
2019/04/04 09:06:05 BASE 2.54 47 2.88 66 0.0 92 -1.2 0 0 969.9 NA 0.0000 9999 7120 0 0 0
2019/04/04 09:07:05 BASE 2.60 48 2.88 48 0.0 91 -1.2 0 0 969.9 NA 0.0000 9999 7120 0 0 0
2019/04/04 09:08:05 BASE 2.61 52 2.88 48 0.0 91 -1.2 0 0 969.9 NA 0.0000 9999 7120 0 0 0
2019/04/04 09:09:05 BASE 2.56 52 2.88 48 0.0 91 -1.3 0 0 970.0 NA 0.0000 9999 7120 0 0 0
2019/04/04 09:10:04 BASE 2.50 53 2.88 48 0.0 91 -1.2 0 0 970.0 NA 0.0000 9999 7090 0 0 0
2019/04/04 09:11:04 BASE 2.34 54 2.88 48 0.0 92 -1.2 0 0 970.1 NA 0.0000 9999 7050 0 0 0
2019/04/04 09:12:05 BASE 2.34 53 2.88 48 0.0 92 -1.1 0 0 970.1 NA 0.0000 9999 7050 0 0 0
2019/04/04 09:13:04 BASE 2.40 54 2.88 48 0.0 92 -1.1 0 0 970.1 NA 0.0000 9999 7090 0 0 0
2019/04/04 09:14:05 BASE 2.36 57 2.88 48 0.1 92 -1.1 0 0 970.1 NA 0.0000 9999 7090 0 0 0
2019/04/04 09:15:05 BASE 1.95 55 2.88 48 0.1 92 -1.1 0 0 970.1 NA 0.0000 9999 7120 0 0 0
2019/04/04 09:16:05 BASE 1.73 57 2.88 48 0.1 92 -1.1 0 0 970.1 NA 0.0000 9999 7120 0 0 0
2019/04/04 09:17:04 BASE 1.56 64 2.78 51 0.1 92 -1.0 0 0 970.1 NA 0.0000 9999 7090 0 0 0
2019/04/04 09:18:04 BASE 0.80 62 2.78 51 0.1 92 -1.0 0 0 970.1 NA 0.0000 9999 7050 0 0 0
2019/04/04 09:19:04 BASE 0.68 61 2.62 57 0.2 92 -1.0 0 0 970.1 NA 0.0000 9999 7050 0 0 0
2019/04/04 09:20:04 BASE 0.82 59 2.62 57 0.2 91 -1.0 0 0 970.1 NA 0.0000 9999 7020 0 0 0
2019/04/04 09:21:06 BASE 0.94 57 2.62 57 0.2 91 -1.1 0 0 970.1 NA 0.0000 9999 7020 0 0 0
2019/04/04 09:22:02 BASE 1.31 55 2.62 57 0.2 91 -1.1 0 0 970.1 NA 0.0000 9999 7090 0 0 0
2019/04/04 09:23:05 BASE 1.43 46 2.62 57 0.2 91 -1.1 0 0 970.2 NA 0.0000 9999 7090 0 0 0
2019/04/04 09:24:05 BASE 1.43 38 2.16 65 0.2 91 -1.2 0 0 970.2 NA 0.0000 9999 7050 0 0 0
2019/04/04 09:25:05 BASE 1.52 33 2.16 65 0.2 90 -1.2 0 0 970.2 NA 0.0000 9999 7050 0 0 0
2019/04/04 09:26:05 BASE 1.88 30 2.21 28 0.2 90 -1.2 0 0 970.2 NA 0.0000 9999 7050 0 0 0
2019/04/04 09:27:04 BASE 2.13 35 2.21 46 0.2 90 -1.2 0 0 970.2 NA 0.0000 9999 7050 11910 0 0
2019/04/04 09:28:05 BASE 2.15 41 2.26 47 0.1 90 -1.2 0 0 970.2 NA 0.0000 9999 7050 11810 0 0
2019/04/04 09:29:04 BASE 2.15 46 2.26 50 0.1 91 -1.3 0 0 970.2 NA 0.0000 9999 7020 11810 0 0
2019/04/04 09:30:05 BASE 2.10 50 2.26 50 0.1 91 -1.2 0 0 970.2 NA 0.0000 9999 6990 9650 11780 0
2019/04/04 09:31:05 BASE 2.19 50 2.47 54 0.0 91 -1.2 0 0 970.3 NA 0.0000 9999 6920 9580 0 0
2019/04/04 09:32:11 BASE 2.19 45 2.47 54 0.0 92 -1.2 0 0 970.3 NA 0.0000 9999 7020 9680 0 0
2019/04/04 09:33:01 BASE 2.01 43 2.47 54 -0.0 92 -1.2 0 0 970.3 NA 0.0000 9999 7050 0 0 0
2019/04/04 09:34:04 BASE 1.85 47 2.47 54 -0.0 92 -1.1 0 0 970.3 NA 0.0000 9999 7020 0 0 0
2019/04/04 09:35:05 BASE 1.76 50 2.47 54 0.0 92 -1.1 0 0 970.3 NA 0.0000 9999 7020 11840 0 0
2019/04/04 09:36:05 BASE 1.75 51 2.47 54 0.0 92 -1.1 0 0 970.3 NA 0.0000 9999 7020 11710 0 0
2019/04/04 09:37:05 BASE 1.78 50 2.47 54 0.0 92 -1.0 0 0 970.3 NA 0.0000 9999 7020 11520 0 0
2019/04/04 09:38:05 BASE 1.83 51 2.47 54 0.1 92 -1.0 0 0 970.3 NA 0.0000 9999 7020 11650 0 0
2019/04/04 09:39:04 BASE 1.94 53 2.47 54 0.1 92 -1.0 0 0 970.3 NA 0.0000 9999 6990 11710 0 0
2019/04/04 09:40:04 BASE 2.01 55 2.47 54 0.1 92 -1.1 0 0 970.3 NA 0.0000 9999 7020 11650 0 0
2019/04/04 09:41:05 BASE 1.98 55 2.31 46 0.0 92 -1.1 0 0 970.3 NA 0.0000 9999 6990 11710 0 0
2019/04/04 09:42:04 BASE 1.94 57 2.21 56 0.0 92 -1.1 0 0 970.3 NA 0.0000 9999 7020 11710 0 0
2019/04/04 09:43:05 BASE 1.88 58 2.21 56 0.0 92 -1.1 0 0 970.3 NA 0.0000 9999 7090 11710 0 0
2019/04/04 09:44:05 BASE 1.72 57 2.21 56 0.0 92 -1.1 0 0 970.3 NA 0.0000 9999 7120 11750 0 0
2019/04/04 09:45:05 BASE 1.62 59 2.21 56 0.0 92 -1.1 0 0 970.3 NA 0.0000 9999 7090 0 0 0
2019/04/04 09:46:05 BASE 1.64 59 2.21 56 0.1 92 -1.1 0 0 970.3 NA 0.0000 9999 7090 11810 0 0
2019/04/04 09:47:05 BASE 1.51 58 2.21 56 0.1 91 -1.2 0 0 970.4 NA 0.0000 9999 7050 11840 0 0
2019/04/04 09:48:04 BASE 1.40 56 2.21 56 0.1 91 -1.2 0 0 970.4 NA 0.0000 9999 7020 0 0 0
2019/04/04 09:49:05 BASE 1.39 53 2.21 56 0.1 91 -1.2 0 0 970.4 NA 0.0000 9999 7020 0 0 0
2019/04/04 09:50:04 BASE 1.49 52 2.16 55 0.2 91 -1.2 0 0 970.4 NA 0.0000 9999 6990 0 0 0
2019/04/04 09:51:04 BASE 1.61 55 2.11 58 0.2 90 -1.2 0 0 970.4 NA 0.0000 9999 7020 0 0 0
2019/04/04 09:52:05 BASE 1.52 57 2.11 58 0.2 90 -1.2 0 0 970.4 NA 0.0000 9999 6990 0 0 0
2019/04/04 09:53:06 BASE 1.41 57 1.85 58 0.2 90 -1.2 0 0 970.4 NA 0.0000 9999 6960 0 0 0
2019/04/04 09:54:04 BASE 1.44 55 1.85 58 0.2 90 -1.2 0 0 970.4 NA 0.0000 9999 6990 0 0 0
2019/04/04 09:55:05 BASE 1.60 57 2.01 58 0.3 90 -1.3 0 0 970.4 NA 0.0000 9999 6990 0 0 0
2019/04/04 09:56:05 BASE 1.83 59 2.06 62 0.3 89 -1.3 0 0 970.4 NA 0.0000 9999 6990 0 0 0
2019/04/04 09:57:05 BASE 1.92 62 2.06 62 0.3 89 -1.3 0 0 970.4 NA 0.0000 9999 7020 0 0 0
2019/04/04 09:58:05 BASE 2.05 64 2.47 63 0.3 89 -1.3 0 0 970.4 NA 0.0000 9999 7020 0 0 0
2019/04/04 09:59:05 BASE 2.31 63 2.62 61 0.3 89 -1.3 0 0 970.4 NA 0.0000 9999 7020 0 0 0
2019/04/04 10:00:04 BASE 2.41 62 2.62 61 0.3 89 -1.3 0 0 970.4 NA 0.0000 9999 7020 0 0 0
2019/04/04 10:01:05 BASE 2.42 66 2.73 65 0.2 89 -1.4 0 0 970.4 NA 0.0000 9999 7090 11650 0 0
2019/04/04 10:02:05 BASE 2.40 67 2.73 65 0.2 89 -1.4 0 0 970.4 NA 0.0000 9999 7020 11580 0 0
2019/04/04 10:03:05 BASE 2.29 69 2.73 65 0.1 89 -1.5 0 0 970.5 NA 0.0000 9999 7050 11550 0 0
2019/04/04 10:04:05 BASE 2.25 80 2.73 65 0.1 89 -1.5 0 0 970.6 NA 0.0000 9999 7050 0 0 0
2019/04/04 10:05:05 BASE 2.32 91 2.73 65 0.0 89 -1.5 0 0 970.6 NA 0.0000 9999 7090 0 0 0
2019/04/04 10:06:05 BASE 1.97 95 2.73 65 -0.0 90 -1.5 0 0 970.6 NA 0.0000 9999 7050 0 0 0
2019/04/04 10:07:05 BASE 1.92 94 2.73 65 -0.1 90 -1.5 0 0 970.6 NA 0.0000 9999 6990 11650 0 0
2019/04/04 10:08:04 BASE 2.23 93 2.73 65 -0.1 91 -1.5 0 0 970.6 NA 0.0000 9999 7020 11580 0 0
2019/04/04 10:09:05 BASE 2.07 94 2.73 65 -0.1 91 -1.4 0 0 970.6 NA 0.0000 9999 7020 11550 0 0
2019/04/04 10:10:04 BASE 1.79 93 2.73 65 -0.1 91 -1.4 0 0 970.6 NA 0.0000 9999 11480 0 0 0
2019/04/04 10:11:04 BASE 1.43 99 2.68 97 -0.0 91 -1.3 0 0 970.6 NA 0.0000 9999 11520 0 0 0
2019/04/04 10:12:04 BASE 0.97 108 2.68 97 0.0 91 -1.3 0 0 970.6 NA 0.0000 9999 11520 0 0 0
2019/04/04 10:13:04 BASE 0.51 113 2.68 97 0.1 91 -1.2 0 0 970.6 NA 0.0000 9999 11580 0 0 0
2019/04/04 10:14:04 BASE 0.77 118 2.68 97 0.1 91 -1.2 0 0 970.6 NA 0.0000 9999 11550 0 0 0
2019/04/04 10:15:05 BASE 1.32 121 2.47 97 0.1 91 -1.2 0 0 970.6 NA 0.0000 9999 11680 0 0 0
2019/04/04 10:16:04 BASE 1.38 123 2.47 97 0.1 91 -1.1 0 0 970.6 NA 0.0000 9999 11580 0 0 0
2019/04/04 10:17:04 BASE 1.45 125 2.31 96 0.1 92 -1.1 0 0 970.6 NA 0.0000 9999 7190 11520 0 0
2019/04/04 10:18:05 BASE 1.67 127 2.16 94 0.0 92 -1.1 0 0 970.6 NA 0.0000 9999 6730 11550 0 0
2019/04/04 10:19:05 BASE 1.79 127 2.06 126 -0.0 92 -1.1 0 0 970.6 NA 0.0000 9999 6370 11610 0 0
2019/04/04 10:20:04 BASE 1.91 125 2.11 129 -0.1 92 -1.2 0 0 970.6 NA 0.0000 9999 11480 0 0 0
2019/04/04 10:21:07 BASE 1.95 123 2.11 122 -0.1 93 -1.2 0 0 970.6 NA 0.0000 9999 11480 0 0 0
2019/04/04 10:22:01 BASE 1.87 126 2.11 122 -0.2 93 -1.2 0 0 970.6 NA 0.0000 9999 11550 0 0 0
2019/04/04 10:23:05 BASE 1.82 131 2.11 122 -0.2 93 -1.1 0 0 970.6 NA 0.0000 9999 11390 0 0 0
2019/04/04 10:24:05 BASE 1.67 132 2.11 122 -0.2 94 -1.0 0 0 970.6 NA 0.0000 9999 11420 0 0 0
2019/04/04 10:25:05 BASE 1.63 132 2.11 122 -0.1 94 -0.9 0 0 970.6 NA 0.0000 9999 8830 11580 0 0
2019/04/04 10:26:04 BASE 1.76 129 2.11 122 -0.1 95 -0.8 0 0 970.6 NA 0.0000 9999 11650 0 0 0
2019/04/04 10:27:04 BASE 1.88 123 2.11 122 -0.0 95 -0.8 0 0 970.6 NA 0.0000 9999 7150 11610 0 0
2019/04/04 10:28:05 BASE 1.82 123 2.11 122 0.0 95 -0.7 0 0 970.6 NA 0.0000 9999 7120 11650 0 0
2019/04/04 10:29:04 BASE 1.81 124 2.11 125 0.0 95 -0.7 0 0 970.6 NA 0.0000 9999 7090 11580 0 0
2019/04/04 10:30:06 BASE 1.83 118 2.11 125 0.0 95 -0.7 0 0 970.6 NA 0.0000 9999 7090 11580 0 0
2019/04/04 10:31:04 BASE 1.99 114 2.52 111 -0.0 94 -0.8 0 0 970.6 NA 0.0000 9999 7120 11550 0 0
2019/04/04 10:32:05 BASE 2.33 111 2.78 102 -0.1 94 -0.9 0 0 970.6 NA 0.0000 9999 11550 0 0 0
2019/04/04 10:33:04 BASE 2.22 115 2.78 102 -0.1 94 -0.9 0 0 970.6 NA 0.0000 9999 7150 11580 0 0
2019/04/04 10:34:05 BASE 2.07 126 2.78 102 -0.1 94 -1.0 0 0 970.6 NA 0.0000 9999 7150 11580 0 0
2019/04/04 10:35:05 BASE 2.18 131 2.78 102 -0.2 94 -1.0 0 0 970.6 NA 0.0000 9999 6960 0 0 0
2019/04/04 10:36:04 BASE 2.21 126 2.78 102 -0.2 94 -1.0 0 0 970.6 NA 0.0000 9999 6990 0 0 0
2019/04/04 10:37:05 BASE 1.94 121 2.78 102 -0.2 95 -0.9 1 0 970.6 NA 0.0000 9999 6990 11650 0 0
2019/04/04 10:38:05 BASE 1.56 117 2.78 102 -0.1 95 -0.8 1 0 970.6 NA 0.0000 9999 7020 0 0 0
2019/04/04 10:39:05 BASE 1.43 111 2.78 102 -0.1 96 -0.7 1 0 970.6 NA 0.0000 9999 7020 11710 0 0
2019/04/04 10:40:04 BASE 1.48 105 2.78 102 -0.1 96 -0.7 1 0 970.6 NA 0.0000 9999 7020 11810 0 0
2019/04/04 10:41:05 BASE 1.38 101 2.78 102 0.0 96 -0.6 1 0 970.6 NA 0.0000 9999 7020 0 0 0
2019/04/04 10:42:05 BASE 0.98 107 2.52 126 0.1 95 -0.6 1 0 970.6 NA 0.0000 9999 7020 0 0 0
2019/04/04 10:43:05 BASE 0.50 108 2.52 126 0.1 95 -0.6 1 0 970.6 NA 0.0000 9999 6820 0 0 0
2019/04/04 10:44:04 BASE 0.20 118 2.52 126 0.1 95 -0.6 1 0 970.6 NA 0.0000 9999 6790 0 0 0
2019/04/04 10:45:04 BASE 0.00 133 2.42 118 0.2 95 -0.6 1 0 970.7 NA 0.0000 9999 6790 0 0 0
2019/04/04 10:46:05 BASE 0.00 134 2.42 118 0.2 95 -0.6 1 0 970.7 NA 0.0000 9999 6860 0 0 0
2019/04/04 10:47:04 BASE 0.00 134 1.95 100 0.2 95 -0.5 1 0 970.8 NA 0.0000 9999 6960 0 0 0
2019/04/04 10:48:04 BASE 0.00 133 1.95 100 0.3 95 -0.5 1 0 970.8 NA 0.0000 9999 6920 0 0 0
2019/04/04 10:49:06 BASE 0.10 80 1.95 100 0.3 95 -0.5 2 0 970.8 NA 0.0000 9999 6890 0 0 0
2019/04/04 10:50:04 BASE 0.47 47 1.54 64 0.2 95 -0.5 2 0 970.7 NA 0.0000 9999 6860 0 0 0
2019/04/04 10:51:05 BASE 1.18 54 1.75 50 0.2 94 -0.6 2 0 970.8 NA 0.0000 9999 6790 0 0 0
2019/04/04 10:52:04 BASE 1.53 54 1.75 50 0.1 94 -0.7 2 0 970.8 NA 0.0000 9999 6140 6860 0 0
2019/04/04 10:53:04 BASE 1.52 54 1.75 50 0.0 94 -0.8 2 0 970.7 NA 0.0000 9999 6000 6890 0 0
2019/04/04 10:54:05 BASE 1.49 50 1.75 50 -0.0 94 -0.9 2 0 970.8 NA 0.0000 9999 6000 6890 0 0
2019/04/04 10:55:04 BASE 1.64 49 2.06 47 -0.0 94 -0.9 2 0 970.8 NA 0.0000 9999 6070 6890 0 0
2019/04/04 10:56:05 BASE 1.84 48 2.11 45 -0.0 94 -0.9 3 0 970.8 NA 0.0000 9999 6040 6960 0 0
2019/04/04 10:57:05 BASE 2.03 45 2.57 48 -0.0 94 -0.9 3 0 970.8 NA 0.0000 9999 6000 7020 0 0
2019/04/04 10:58:04 BASE 2.29 47 2.57 48 0.0 94 -0.8 3 0 970.8 NA 0.0000 9999 5970 0 0 0
2019/04/04 10:59:05 BASE 2.42 50 2.57 48 0.0 94 -0.8 3 0 970.8 NA 0.0000 9999 6040 0 0 0
2019/04/04 11:00:05 BASE 2.27 54 2.57 48 0.0 95 -0.8 3 0 970.8 NA 0.0000 9999 6100 6960 0 0
2019/04/04 11:01:05 BASE 2.12 56 2.57 48 0.0 95 -0.7 3 0 970.8 NA 0.0000 9999 6990 0 0 0
2019/04/04 11:02:05 BASE 1.83 56 2.57 48 0.0 95 -0.7 4 0 970.8 NA 0.0000 9999 6960 0 0 0
2019/04/04 11:03:05 BASE 1.55 60 2.57 48 0.0 95 -0.7 4 0 970.9 NA 0.0000 9999 7020 0 0 0
2019/04/04 11:04:04 BASE 1.55 70 2.57 48 0.1 95 -0.6 4 0 970.9 NA 0.0000 9999 6170 7050 0 0
2019/04/04 11:05:04 BASE 1.54 79 2.57 48 0.1 95 -0.6 5 0 970.9 NA 0.0000 9999 6140 7120 0 0
2019/04/04 11:06:05 BASE 1.39 84 2.57 48 0.1 95 -0.6 5 0 970.9 NA 0.0000 9999 6100 0 0 0
2019/04/04 11:07:05 BASE 1.25 80 2.52 54 0.2 95 -0.5 5 0 970.9 NA 0.0000 9999 6040 0 0 0
2019/04/04 11:08:04 BASE 0.87 75 2.52 54 0.2 95 -0.5 6 0 970.9 NA 0.0000 9999 6270 0 0 0
2019/04/04 11:09:05 BASE 0.89 75 2.31 56 0.2 95 -0.5 6 0 970.9 NA 0.0000 9999 7150 0 0 0
2019/04/04 11:10:04 BASE 1.43 73 2.31 56 0.3 95 -0.4 7 0 970.9 NA 0.0000 9999 7150 0 0 0
2019/04/04 11:11:04 BASE 1.75 62 2.06 55 0.3 95 -0.4 7 0 970.9 NA 0.0000 9999 6230 7320 0 0
2019/04/04 11:12:05 BASE 1.94 54 2.21 52 0.3 95 -0.4 8 0 971.0 NA 0.0000 9999 6100 7280 0 0
2019/04/04 11:13:04 BASE 2.29 54 3.19 60 0.3 95 -0.5 9 0 971.0 NA 0.0000 9999 6070 7150 0 0
2019/04/04 11:14:04 BASE 3.03 57 3.65 57 0.2 95 -0.6 10 0 971.0 NA 0.0000 9999 6200 7020 0 0
2019/04/04 11:15:04 BASE 3.46 57 3.76 56 0.1 95 -0.6 11 0 971.0 NA 0.0000 9999 6200 7090 0 0
2019/04/04 11:16:05 BASE 3.34 52 3.76 56 0.0 95 -0.7 11 0 971.0 NA 0.0000 9999 5940 7050 0 0
2019/04/04 11:17:04 BASE 3.12 51 3.76 56 -0.1 95 -0.8 13 0 971.0 NA 0.0000 9999 6230 7120 11420 0
2019/04/04 11:18:04 BASE 2.92 54 3.76 56 -0.2 95 -0.9 14 0 971.0 NA 0.0000 9999 11350 0 0 0
2019/04/04 11:19:04 BASE 2.85 57 3.76 56 -0.2 96 -0.8 15 0 971.0 NA 0.0000 9999 0 0 0 0
2019/04/04 11:20:04 BASE 2.73 62 3.76 56 -0.3 96 -0.8 17 0 971.0 NA 0.0000 9999 11350 0 0 0
2019/04/04 11:21:06 BASE 2.57 64 3.76 56 -0.2 97 -0.7 18 0 971.0 NA 0.0000 9999 11350 0 0 0
2019/04/04 11:22:01 BASE 2.48 61 3.76 56 -0.2 97 -0.7 19 0 971.0 NA 0.0000 9999 11350 0 0 0
2019/04/04 11:23:04 BASE 2.44 55 3.76 56 -0.2 97 -0.6 20 0 971.0 NA 0.0000 9999 8660 0 0 0
2019/04/04 11:24:04 BASE 2.59 53 3.76 56 -0.1 97 -0.6 21 0 971.0 NA 0.0000 9999 6300 0 0 0
2019/04/04 11:25:04 BASE 2.76 48 3.45 47 -0.1 97 -0.6 21 0 971.0 NA 0.0000 9999 8460 0 0 0
2019/04/04 11:26:04 BASE 2.74 46 3.19 51 -0.2 97 -0.6 22 0 971.0 NA 0.0000 9999 8370 0 0 0
2019/04/04 11:27:04 BASE 2.71 42 2.98 43 -0.2 97 -0.6 22 0 971.1 NA 0.0000 9999 8370 0 0 0
2019/04/04 11:28:04 BASE 2.59 37 2.98 43 -0.3 97 -0.7 23 0 971.1 NA 0.0000 9999 8560 0 0 0
2019/04/04 11:29:05 BASE 2.41 38 2.98 43 -0.3 97 -0.8 23 0 971.1 NA 0.0000 9999 8430 0 0 0
2019/04/04 11:30:04 BASE 2.35 45 2.98 43 -0.4 97 -0.8 23 0 971.1 NA 0.0000 9999 8460 0 0 0
2019/04/04 11:31:04 BASE 2.30 50 2.98 43 -0.4 97 -0.8 24 0 971.1 NA 0.0000 9999 8530 0 0 0
2019/04/04 11:32:04 BASE 2.30 50 2.98 43 -0.4 97 -0.8 24 0 971.1 NA 0.0000 9999 8460 0 0 0
2019/04/04 11:33:04 BASE 2.33 49 2.98 43 -0.4 98 -0.7 24 0 971.0 NA 0.0000 9999 8530 0 0 0
2019/04/04 11:34:04 BASE 2.38 50 2.98 43 -0.4 98 -0.7 24 0 971.0 NA 0.0000 9999 8560 0 0 0
2019/04/04 11:35:05 BASE 2.37 50 2.93 45 -0.4 98 -0.6 25 0 971.1 NA 0.0000 9999 8560 11290 0 0
2019/04/04 11:36:04 BASE 2.39 49 2.93 45 -0.4 98 -0.6 25 0 971.1 NA 0.0000 9999 8660 11350 0 0
2019/04/04 11:37:04 BASE 2.43 44 2.68 39 -0.4 98 -0.6 26 0 971.1 NA 0.0000 9999 8630 0 0 0
2019/04/04 11:38:05 BASE 2.43 39 2.68 39 -0.4 98 -0.7 27 0 971.1 NA 0.0000 9999 6920 0 0 0
2019/04/04 11:39:04 BASE 2.44 37 2.68 39 -0.4 98 -0.7 28 0 971.1 NA 0.0000 9999 7020 0 0 0
2019/04/04 11:40:04 BASE 2.42 40 2.68 39 -0.4 98 -0.7 30 0 971.2 NA 0.0000 9999 6960 0 0 0
2019/04/04 11:41:04 BASE 2.58 45 2.98 48 -0.4 98 -0.7 31 0 971.2 NA 0.0000 9999 7120 0 0 0
2019/04/04 11:42:04 BASE 2.90 47 3.14 47 -0.5 98 -0.7 32 0 971.2 NA 0.0000 9999 7910 0 0 0
2019/04/04 11:43:05 BASE 3.06 46 3.19 43 -0.5 98 -0.8 32 0 971.2 NA 0.0000 9999 7350 0 0 0
2019/04/04 11:44:04 BASE 3.05 47 3.19 49 -0.5 98 -0.8 32 0 971.2 NA 0.0000 9999 7280 0 0 0
2019/04/04 11:45:04 BASE 3.04 46 3.24 46 -0.5 98 -0.8 32 0 971.2 NA 0.0000 9999 7150 0 0 0
2019/04/04 11:46:05 BASE 3.05 44 3.24 45 -0.6 98 -0.8 32 0 971.2 NA 0.0000 9999 11320 0 0 0
2019/04/04 11:47:04 BASE 3.08 40 3.24 34 -0.6 98 -0.8 33 0 971.2 NA 0.0000 9999 6690 0 0 0
2019/04/04 11:48:04 BASE 3.02 37 3.24 34 -0.6 98 -0.8 33 0 971.2 NA 0.0000 9999 6960 0 0 0
2019/04/04 11:49:05 BASE 2.91 37 3.24 34 -0.6 99 -0.8 34 0 971.2 NA 0.0000 9999 7320 0 0 0
2019/04/04 11:50:04 BASE 2.99 38 3.24 40 -0.6 99 -0.8 35 0 971.2 NA 0.0000 9999 7380 0 0 0
2019/04/04 11:51:05 BASE 2.83 42 3.24 40 -0.6 99 -0.8 36 0 971.2 NA 0.0000 9999 7250 0 0 0
2019/04/04 11:52:05 BASE 2.57 41 3.24 40 -0.6 99 -0.8 38 0 971.2 NA 0.0000 9999 7450 0 0 0
2019/04/04 11:53:05 BASE 2.74 37 3.24 40 -0.6 99 -0.7 41 0 971.2 NA 0.0000 9999 6530 0 0 0
2019/04/04 11:54:05 BASE 2.86 37 3.24 40 -0.6 99 -0.7 42 0 971.2 NA 0.0000 9999 6590 0 0 0
2019/04/04 11:55:04 BASE 2.92 37 3.55 28 -0.6 100 -0.7 42 0 971.2 NA 0.0000 9999 7350 0 0 0
2019/04/04 11:56:04 BASE 3.17 38 3.70 31 -0.6 100 -0.6 41 0 971.2 NA 0.0000 9999 7320 0 0 0
2019/04/04 11:57:05 BASE 3.44 37 3.70 31 -0.6 100 -0.6 41 0 971.2 NA 0.0000 9999 7580 0 0 0
2019/04/04 11:58:04 BASE 3.52 34 4.01 37 -0.6 100 -0.6 42 0 971.2 NA 0.0000 9999 7420 0 0 0
2019/04/04 11:59:05 BASE 3.14 35 4.01 37 -0.6 100 -0.6 43 0 971.2 NA 0.0000 9999 7640 0 0 0
2019/04/04 12:00:04 BASE 3.00 38 4.01 37 -0.6 100 -0.6 43 0 971.2 NA 0.0000 9999 7780 0 0 0
2019/04/04 12:01:04 BASE 3.45 39 4.12 40 -0.6 100 -0.6 44 0 971.2 NA 0.0000 9999 7120 11480 0 0
2019/04/04 12:02:05 BASE 3.45 40 4.12 40 -0.6 100 -0.6 45 0 971.2 NA 0.0000 9999 6990 11420 0 0
2019/04/04 12:03:04 BASE 3.02 45 4.12 40 -0.5 100 -0.6 45 0 971.2 NA 0.0000 9999 6660 7510 8140 0
2019/04/04 12:04:04 BASE 3.00 47 4.12 40 -0.5 100 -0.6 46 0 971.2 NA 0.0000 9999 5510 8170 0 0
2019/04/04 12:05:04 BASE 3.17 48 4.12 40 -0.5 99 -0.6 44 0 971.2 NA 0.0000 9999 5450 0 0 0
2019/04/04 12:06:04 BASE 3.07 50 4.12 40 -0.5 99 -0.6 42 0 971.2 NA 0.0000 9999 5410 8170 0 0
2019/04/04 12:07:05 BASE 3.14 51 4.12 40 -0.5 99 -0.7 42 0 971.2 NA 0.0000 9999 6370 8240 0 0
2019/04/04 12:08:05 BASE 3.69 49 4.58 43 -0.6 99 -0.7 43 0 971.2 NA 0.0000 9999 6460 0 0 0
2019/04/04 12:09:05 BASE 3.95 48 4.58 43 -0.6 99 -0.7 43 0 971.2 NA 0.0000 9999 5580 0 0 0
2019/04/04 12:10:04 BASE 3.61 54 4.58 43 -0.6 99 -0.7 44 0 971.2 NA 0.0000 9999 5580 0 0 0
2019/04/04 12:11:05 BASE 3.81 57 4.58 51 -0.6 99 -0.8 44 0 971.3 NA 0.0000 9999 7580 0 0 0
2019/04/04 12:12:04 BASE 3.95 56 4.58 51 -0.6 99 -0.8 43 0 971.3 NA 0.0000 9999 6820 0 0 0
2019/04/04 12:13:04 BASE 3.75 61 4.58 51 -0.6 98 -0.8 41 0 971.4 NA 0.0000 9999 7480 0 0 0
2019/04/04 12:14:05 BASE 3.73 67 4.58 51 -0.6 98 -0.8 40 0 971.4 NA 0.0000 9999 7280 0 0 0
2019/04/04 12:15:04 BASE 3.93 62 4.68 55 -0.6 98 -0.8 40 0 971.4 NA 0.0000 9999 7510 0 0 0
2019/04/04 12:16:04 BASE 4.04 51 4.68 55 -0.5 98 -0.8 41 0 971.4 NA 0.0000 9999 6270 0 0 0
2019/04/04 12:17:05 BASE 3.91 44 4.68 55 -0.5 98 -0.8 41 0 971.4 NA 0.0000 9999 6230 0 0 0
2019/04/04 12:18:04 BASE 3.92 41 4.68 55 -0.5 98 -0.8 40 0 971.4 NA 0.0000 9999 5050 0 0 0
2019/04/04 12:19:06 BASE 3.92 37 4.68 55 -0.5 98 -0.8 40 0 971.4 NA 0.0000 9999 6500 0 0 0
2019/04/04 12:20:04 BASE 3.80 33 4.68 55 -0.5 98 -0.8 40 0 971.4 NA 0.0000 9999 7050 0 0 0
2019/04/04 12:21:05 BASE 3.89 33 4.68 55 -0.6 98 -0.8 40 0 971.4 NA 0.0000 9999 4490 11550 0 0
2019/04/04 12:22:01 BASE 3.87 39 4.68 55 -0.6 98 -0.8 40 0 971.4 NA 0.0000 9999 4070 6000 0 0
2019/04/04 12:23:04 BASE 3.60 38 4.68 55 -0.5 98 -0.8 40 0 971.4 NA 0.0000 9999 4100 6100 0 0
2019/04/04 12:24:04 BASE 3.58 31 4.68 55 -0.5 98 -0.8 40 0 971.4 NA 0.0000 9999 4170 0 0 0
2019/04/04 12:25:05 BASE 3.48 32 4.48 39 -0.5 98 -0.8 41 0 971.5 NA 0.0000 9999 4040 0 0 0
2019/04/04 12:26:04 BASE 3.37 37 4.58 48 -0.5 98 -0.8 41 0 971.5 NA 0.0000 9999 4040 0 0 0
2019/04/04 12:27:04 BASE 3.49 43 4.58 48 -0.5 98 -0.7 42 0 971.5 NA 0.0000 9999 6790 0 0 0
2019/04/04 12:28:04 BASE 3.42 47 4.58 48 -0.4 98 -0.7 43 0 971.5 NA 0.0000 9999 5810 0 0 0
2019/04/04 12:29:04 BASE 3.38 50 4.58 48 -0.5 98 -0.7 43 0 971.5 NA 0.0000 9999 6590 0 0 0
2019/04/04 12:30:04 BASE 3.45 51 4.58 48 -0.5 98 -0.8 44 0 971.5 NA 0.0000 9999 11520 0 0 0
2019/04/04 12:31:05 BASE 3.54 55 4.58 48 -0.5 98 -0.8 45 0 971.5 NA 0.0000 9999 11450 0 0 0
2019/04/04 12:32:04 BASE 3.54 61 4.58 48 -0.6 98 -0.9 46 0 971.5 NA 0.0000 9999 6330 0 0 0
2019/04/04 12:33:05 BASE 3.23 64 4.58 48 -0.6 98 -0.9 47 0 971.5 NA 0.0000 9999 5910 0 0 0
2019/04/04 12:34:04 BASE 3.06 67 4.58 48 -0.6 98 -0.9 48 0 971.5 NA 0.0000 9999 5770 0 0 0
2019/04/04 12:35:04 BASE 3.32 65 4.58 48 -0.6 98 -0.8 49 0 971.5 NA 0.0000 9999 5580 0 0 0
2019/04/04 12:36:04 BASE 3.38 64 4.32 42 -0.6 98 -0.8 50 0 971.5 NA 0.0000 9999 5280 0 0 0
2019/04/04 12:37:05 BASE 3.52 61 4.32 44 -0.5 98 -0.8 52 0 971.6 NA 0.0000 9999 7680 0 0 0
2019/04/04 12:38:04 BASE 3.86 52 4.32 44 -0.5 98 -0.7 53 0 971.6 NA 0.0000 9999 4170 7640 0 0
2019/04/04 12:39:05 BASE 3.72 46 4.32 44 -0.4 98 -0.7 55 0 971.6 NA 0.0000 9999 7640 0 0 0
2019/04/04 12:40:05 BASE 3.75 44 4.53 40 -0.4 98 -0.7 56 0 971.6 NA 0.0000 9999 7580 0 0 0
2019/04/04 12:41:05 BASE 4.01 41 4.53 40 -0.4 98 -0.7 56 0 971.6 NA 0.0000 9999 7610 0 0 0
2019/04/04 12:42:04 BASE 3.83 45 4.53 40 -0.4 98 -0.7 57 0 971.6 NA 0.0000 9999 7640 0 0 0
2019/04/04 12:43:04 BASE 3.75 47 4.53 40 -0.4 97 -0.7 58 0 971.6 NA 0.0000 9999 7640 0 0 0
2019/04/04 12:44:04 BASE 3.85 41 4.53 40 -0.4 97 -0.7 58 0 971.6 NA 0.0000 9999 7680 0 0 0
2019/04/04 12:45:05 BASE 3.83 31 4.53 40 -0.4 97 -0.8 59 0 971.6 NA 0.0000 9999 11020 0 0 0
2019/04/04 12:46:05 BASE 3.80 29 4.53 40 -0.3 97 -0.8 59 0 971.6 NA 0.0000 9999 11060 0 0 0
2019/04/04 12:47:04 BASE 3.81 34 4.53 40 -0.3 97 -0.8 60 0 971.7 NA 0.0000 9999 11020 0 0 0
2019/04/04 12:48:04 BASE 3.84 38 4.53 40 -0.4 97 -0.8 61 0 971.7 NA 0.0000 9999 7550 11160 0 0
2019/04/04 12:49:05 BASE 3.66 43 4.53 40 -0.4 97 -0.8 61 0 971.7 NA 0.0000 9999 7580 0 0 0
2019/04/04 12:50:04 BASE 3.54 45 4.32 37 -0.4 96 -0.9 62 0 971.7 NA 0.0000 9999 7550 0 0 0
2019/04/04 12:51:04 BASE 3.66 47 4.22 43 -0.4 96 -0.9 63 0 971.7 NA 0.0000 9999 6690 0 0 0
2019/04/04 12:52:04 BASE 3.61 52 4.22 43 -0.4 96 -1.0 64 0 971.7 NA 0.0000 9999 6730 7680 0 0
2019/04/04 12:53:04 BASE 3.47 56 4.22 43 -0.4 96 -1.0 66 0 971.7 NA 0.0000 9999 6730 7680 0 0
2019/04/04 12:54:05 BASE 3.44 59 4.22 43 -0.4 96 -1.0 68 0 971.7 NA 0.0000 9999 6760 11160 0 0
2019/04/04 12:55:04 BASE 3.32 63 4.22 43 -0.4 96 -1.0 70 0 971.6 NA 0.0000 9999 6760 0 0 0
2019/04/04 12:56:04 BASE 3.52 61 4.22 52 -0.4 96 -1.0 72 0 971.7 NA 0.0000 9999 6820 7640 0 0
2019/04/04 12:57:04 BASE 3.69 56 4.22 52 -0.4 96 -1.0 75 0 971.7 NA 0.0000 9999 6890 7640 0 0
2019/04/04 12:58:04 BASE 3.51 57 4.22 52 -0.4 96 -1.0 76 0 971.7 NA 0.0000 9999 6820 7550 0 0
2019/04/04 12:59:05 BASE 3.45 58 4.22 52 -0.4 96 -1.0 78 0 971.6 NA 0.0000 9999 7550 11120 0 0
2019/04/04 13:00:04 BASE 3.25 55 4.22 52 -0.4 96 -1.0 79 0 971.7 NA 0.0000 9999 7550 10930 0 0
2019/04/04 13:01:04 BASE 3.18 49 4.22 52 -0.3 96 -1.0 80 0 971.7 NA 0.0000 9999 7550 10930 0 0
2019/04/04 13:02:05 BASE 3.42 41 4.22 52 -0.3 95 -0.9 82 0 971.7 NA 0.0000 9999 7580 11020 0 0
2019/04/04 13:03:04 BASE 3.64 36 4.22 52 -0.3 95 -1.0 84 0 971.7 NA 0.0000 9999 10990 0 0 0
2019/04/04 13:04:05 BASE 3.65 40 4.22 52 -0.2 95 -1.0 89 0 971.7 NA 0.0000 9999 10990 0 0 0
2019/04/04 13:05:04 BASE 3.64 43 4.22 52 -0.2 94 -1.0 92 0 971.7 NA 0.0000 9999 6860 10930 0 0
2019/04/04 13:06:04 BASE 3.87 44 4.63 45 -0.2 94 -1.1 97 0 971.7 NA 0.0000 9999 6790 7550 0 0
2019/04/04 13:07:05 BASE 4.04 43 4.63 45 -0.2 93 -1.1 111 0 971.7 NA 0.0000 9999 6760 0 0 0
2019/04/04 13:08:04 BASE 4.09 42 4.63 45 -0.2 93 -1.2 129 0 971.7 NA 0.0000 9999 6760 7550 0 0
2019/04/04 13:09:05 BASE 4.10 43 4.63 45 -0.2 93 -1.2 176 0 971.7 NA 0.0000 9999 6760 0 0 0
2019/04/04 13:10:04 BASE 4.01 43 4.63 45 -0.2 93 -1.2 156 0 971.7 NA 0.0000 9999 6730 0 0 0
2019/04/04 13:11:04 BASE 3.52 48 4.63 45 -0.2 93 -1.2 119 0 971.7 NA 0.0000 9999 6760 7480 0 0
2019/04/04 13:12:04 BASE 3.24 54 4.63 45 -0.2 93 -1.3 113 0 971.8 NA 0.0000 9999 6760 7480 0 0
2019/04/04 13:13:04 BASE 3.53 60 4.63 45 -0.2 92 -1.3 109 0 971.8 NA 0.0000 9999 6790 0 0 0
2019/04/04 13:14:05 BASE 3.68 61 4.63 45 -0.2 92 -1.3 105 0 971.8 NA 0.0000 9999 6790 0 0 0
2019/04/04 13:15:05 BASE 3.75 55 4.63 45 -0.2 92 -1.3 105 0 971.8 NA 0.0000 9999 6760 0 0 0
2019/04/04 13:16:04 BASE 3.68 54 4.48 44 -0.2 92 -1.3 107 0 971.8 NA 0.0000 9999 6760 0 0 0
2019/04/04 13:17:04 BASE 3.60 57 4.48 44 -0.1 92 -1.3 108 0 971.8 NA 0.0000 9999 6760 7450 0 0
2019/04/04 13:18:05 BASE 3.46 52 4.48 44 -0.1 92 -1.3 109 0 971.8 NA 0.0000 9999 6730 7350 0 0
2019/04/04 13:19:05 BASE 3.40 46 4.37 53 -0.1 91 -1.4 109 0 971.8 NA 0.0000 9999 6760 7320 0 0
2019/04/04 13:20:04 BASE 3.45 49 4.37 53 -0.1 91 -1.4 108 0 971.8 NA 0.0000 9999 7280 0 0 0
2019/04/04 13:21:06 BASE 3.40 51 4.37 53 -0.1 91 -1.4 105 0 971.8 NA 0.0000 9999 7320 0 0 0
2019/04/04 13:22:01 BASE 3.28 57 4.37 53 -0.1 91 -1.4 103 0 971.8 NA 0.0000 9999 7320 0 0 0
2019/04/04 13:23:05 BASE 3.20 62 4.37 53 -0.1 91 -1.4 100 0 971.9 NA 0.0000 9999 7380 0 0 0
2019/04/04 13:24:04 BASE 3.39 58 4.37 53 -0.1 91 -1.4 98 0 972.0 NA 0.0000 9999 7320 0 0 0
2019/04/04 13:25:04 BASE 3.63 58 4.37 54 -0.1 91 -1.4 95 0 972.0 NA 0.0000 9999 7280 0 0 0
2019/04/04 13:26:04 BASE 4.14 61 4.78 75 -0.1 91 -1.4 92 0 972.0 NA 0.0000 9999 7280 0 0 0
2019/04/04 13:27:05 BASE 4.49 61 4.78 58 -0.0 91 -1.4 88 0 972.0 NA 0.0000 9999 7320 0 0 0
2019/04/04 13:28:04 BASE 4.20 61 4.78 58 -0.0 90 -1.4 85 0 972.0 NA 0.0000 9999 7280 0 0 0
2019/04/04 13:29:05 BASE 3.77 66 4.78 58 -0.0 90 -1.4 83 0 972.0 NA 0.0000 9999 7220 0 0 0
2019/04/04 13:30:04 BASE 3.15 68 4.78 58 -0.0 90 -1.5 81 0 972.0 NA 0.0000 9999 7220 0 0 0
2019/04/04 13:31:05 BASE 2.57 72 4.78 58 -0.1 90 -1.5 80 0 972.0 NA 0.0000 9999 7220 0 0 0
2019/04/04 13:32:05 BASE 2.70 75 4.78 58 -0.1 90 -1.5 80 0 972.0 NA 0.0000 9999 7250 0 0 0
2019/04/04 13:33:04 BASE 2.82 71 4.78 58 -0.1 90 -1.5 81 0 972.0 NA 0.0000 9999 7150 0 0 0
2019/04/04 13:34:04 BASE 2.65 67 4.78 58 -0.1 90 -1.5 83 0 972.0 NA 0.0000 9999 7120 0 0 0
2019/04/04 13:35:05 BASE 2.52 64 4.78 58 -0.1 90 -1.5 84 0 972.0 NA 0.0000 9999 7150 0 0 0
2019/04/04 13:36:04 BASE 2.34 63 4.78 58 -0.1 90 -1.6 87 0 972.0 NA 0.0000 9999 7220 0 0 0
2019/04/04 13:37:04 BASE 2.20 70 4.68 54 -0.1 90 -1.5 89 0 972.0 NA 0.0000 9999 7120 0 0 0
2019/04/04 13:38:05 BASE 2.29 73 4.58 62 -0.1 90 -1.5 92 0 972.0 NA 0.0000 9999 7150 0 0 0
2019/04/04 13:39:05 BASE 2.27 74 3.19 55 -0.1 91 -1.5 94 0 972.0 NA 0.0000 9999 7150 0 0 0
2019/04/04 13:40:04 BASE 2.33 74 3.19 55 -0.1 91 -1.5 96 0 972.0 NA 0.0000 9999 7150 0 0 0
2019/04/04 13:41:04 BASE 2.41 69 3.19 55 -0.1 91 -1.4 97 0 972.0 NA 0.0000 9999 7150 0 0 0
2019/04/04 13:42:05 BASE 2.74 66 3.55 54 -0.1 91 -1.4 99 0 972.0 NA 0.0000 9999 7120 0 0 0
2019/04/04 13:43:04 BASE 3.30 64 4.01 67 -0.1 91 -1.4 100 0 972.0 NA 0.0000 9999 7190 0 0 0
2019/04/04 13:44:04 BASE 3.53 60 4.37 57 -0.1 91 -1.4 100 0 972.0 NA 0.0000 9999 7090 0 0 0
2019/04/04 13:45:04 BASE 3.83 58 4.89 54 -0.0 90 -1.4 101 0 972.1 NA 0.0000 9999 7090 0 0 0
2019/04/04 13:46:04 BASE 4.10 64 4.89 54 -0.0 90 -1.4 101 0 972.1 NA 0.0000 9999 7050 0 0 0
2019/04/04 13:47:05 BASE 3.59 69 4.89 54 0.0 90 -1.5 102 0 972.1 NA 0.0000 9999 6860 0 0 0
2019/04/04 13:48:04 BASE 3.09 73 4.89 54 0.0 90 -1.5 102 0 972.1 NA 0.0000 9999 6890 0 0 0
2019/04/04 13:49:04 BASE 3.07 75 4.89 54 0.0 89 -1.5 103 0 972.1 NA 0.0000 9999 6760 0 0 0
2019/04/04 13:50:04 BASE 3.03 75 4.89 54 0.1 89 -1.5 103 0 972.1 NA 0.0000 9999 6760 0 0 0
2019/04/04 13:51:05 BASE 3.00 76 4.89 54 0.1 89 -1.5 104 0 972.1 NA 0.0000 9999 6760 0 0 0
2019/04/04 13:52:04 BASE 2.79 76 4.89 54 0.1 89 -1.5 104 0 972.1 NA 0.0000 9999 6860 0 0 0
2019/04/04 13:53:05 BASE 2.44 77 4.89 54 0.1 89 -1.5 105 0 972.2 NA 0.0000 9999 6820 0 0 0
2019/04/04 13:54:04 BASE 2.33 79 4.89 54 0.1 89 -1.5 106 0 972.2 NA 0.0000 9999 6760 0 0 0
2019/04/04 13:55:05 BASE 2.33 75 4.58 56 0.1 89 -1.5 107 0 972.2 NA 0.0000 9999 6890 0 0 0
2019/04/04 13:56:04 BASE 2.43 73 3.70 79 0.2 89 -1.5 108 0 972.2 NA 0.0000 9999 6790 0 0 0
2019/04/04 13:57:04 BASE 2.26 72 3.70 79 0.2 88 -1.5 109 0 972.2 NA 0.0000 9999 6790 0 0 0
2019/04/04 13:58:04 BASE 2.50 69 3.70 79 0.2 88 -1.6 109 0 972.3 NA 0.0000 9999 6790 0 0 0
2019/04/04 13:59:04 BASE 2.61 69 3.60 74 0.2 87 -1.6 110 0 972.3 NA 0.0000 9999 6730 0 0 0
2019/04/04 14:00:04 BASE 2.28 80 3.60 74 0.2 87 -1.6 111 0 972.2 NA 0.0000 9999 6690 0 0 0
2019/04/04 14:01:04 BASE 2.72 90 3.60 74 0.3 87 -1.7 113 0 972.3 NA 0.0000 9999 6730 0 0 0
2019/04/04 14:02:04 BASE 2.74 80 3.60 74 0.3 87 -1.7 116 0 972.2 NA 0.0000 9999 6730 23430 0 0
2019/04/04 14:03:04 BASE 2.30 68 3.60 74 0.3 86 -1.7 118 0 972.3 NA 0.0000 9999 6760 0 0 0
2019/04/04 14:04:04 BASE 2.35 63 3.60 74 0.4 86 -1.7 121 0 972.3 NA 0.0000 9999 6730 0 0 0
2019/04/04 14:05:04 BASE 2.78 53 3.60 74 0.4 86 -1.8 123 0 972.3 NA 0.0000 9999 6820 0 0 0
2019/04/04 14:06:04 BASE 2.65 45 3.60 74 0.4 85 -1.8 126 0 972.3 NA 0.0000 9999 6760 0 0 0
2019/04/04 14:07:05 BASE 2.20 53 3.60 74 0.4 85 -1.8 128 0 972.3 NA 0.0000 9999 6760 0 0 0
2019/04/04 14:08:05 BASE 2.26 57 3.45 95 0.4 85 -1.8 130 0 972.3 NA 0.0000 9999 6820 0 0 0
2019/04/04 14:09:04 BASE 2.28 57 3.45 95 0.4 85 -1.8 131 0 972.3 NA 0.0000 9999 6790 0 0 0
2019/04/04 14:10:04 BASE 2.34 56 3.45 95 0.4 85 -1.8 131 0 972.3 NA 0.0000 9999 6820 0 0 0
2019/04/04 14:11:05 BASE 2.25 53 3.34 42 0.4 85 -1.8 131 0 972.3 NA 0.0000 9999 6790 0 0 0
2019/04/04 14:12:04 BASE 2.21 48 3.34 42 0.4 85 -1.8 131 0 972.4 NA 0.0000 9999 6760 23720 0 0
2019/04/04 14:13:04 BASE 2.27 46 3.34 42 0.4 85 -1.8 130 0 972.4 NA 0.0000 9999 5410 6760 0 0
2019/04/04 14:14:05 BASE 2.28 43 3.34 42 0.3 86 -1.8 130 0 972.4 NA 0.0000 9999 5320 6790 0 0
2019/04/04 14:15:05 BASE 2.21 45 2.83 57 0.3 86 -1.8 129 0 972.4 NA 0.0000 9999 5320 6820 0 0
2019/04/04 14:16:04 BASE 1.93 51 2.83 57 0.3 86 -1.7 128 0 972.4 NA 0.0000 9999 5250 6730 0 0
2019/04/04 14:17:04 BASE 1.73 49 2.68 33 0.3 87 -1.6 126 0 972.4 NA 0.0000 9999 5280 6760 0 0
2019/04/04 14:18:05 BASE 1.84 46 2.68 33 0.3 87 -1.6 126 0 972.4 NA 0.0000 9999 5280 6760 0 0
2019/04/04 14:19:04 BASE 2.05 43 2.68 33 0.3 88 -1.5 126 0 972.4 NA 0.0000 9999 6790 0 0 0
2019/04/04 14:20:04 BASE 2.01 43 2.68 33 0.3 88 -1.5 126 0 972.5 NA 0.0000 9999 5180 6820 0 0
2019/04/04 14:21:15 BASE 1.84 46 2.68 33 0.3 88 -1.5 127 0 972.5 NA 0.0000 9999 5320 6820 0 0
2019/04/04 14:22:05 BASE 1.78 41 2.68 33 0.3 88 -1.5 128 0 972.6 NA 0.0000 9999 5250 6760 0 0
2019/04/04 14:23:01 BASE 1.86 32 2.68 33 0.3 88 -1.5 130 0 972.6 NA 0.0000 9999 5280 6760 0 0
2019/04/04 14:24:05 BASE 2.04 19 3.04 360 0.3 88 -1.4 131 0 972.6 NA 0.0000 9999 5280 6820 0 0
2019/04/04 14:25:04 BASE 2.62 13 3.81 15 0.3 88 -1.4 132 0 972.6 NA 0.0000 9999 5250 6820 0 0
2019/04/04 14:26:04 BASE 3.22 10 3.81 15 0.3 89 -1.3 133 0 972.5 NA 0.0000 9999 5180 6730 0 0
2019/04/04 14:27:05 BASE 3.54 7 4.17 5 0.3 89 -1.3 134 0 972.6 NA 0.0000 9999 5280 6860 0 0
2019/04/04 14:28:04 BASE 3.94 5 4.78 7 0.3 90 -1.2 135 0 972.6 NA 0.0000 9999 5250 6760 0 0
2019/04/04 14:29:05 BASE 4.60 4 5.45 1 0.3 90 -1.1 135 0 972.6 NA 0.0000 9999 5280 6820 0 0
2019/04/04 14:30:04 BASE 5.07 3 5.45 360 0.4 90 -1.1 134 0 972.6 NA 0.0000 9999 5280 0 0 0
2019/04/04 14:31:04 BASE 5.14 3 5.56 360 0.4 90 -1.0 133 0 972.6 NA 0.0000 9999 5250 6760 0 0
2019/04/04 14:32:04 BASE 4.97 2 5.56 360 0.4 90 -1.0 132 0 972.7 NA 0.0000 9999 5220 6730 0 0
2019/04/04 14:33:04 BASE 5.13 2 5.66 2 0.4 90 -1.0 133 0 972.7 NA 0.0000 9999 5220 6730 0 0
2019/04/04 14:34:04 BASE 5.56 3 5.76 5 0.4 89 -1.1 134 0 972.6 NA 0.0000 9999 5250 0 0 0
2019/04/04 14:35:05 BASE 5.60 4 5.76 5 0.5 89 -1.1 136 0 972.7 NA 0.0000 9999 5250 0 0 0
2019/04/04 14:36:04 BASE 5.42 4 5.76 5 0.5 88 -1.2 138 0 972.7 NA 0.0000 9999 5220 6730 0 0
2019/04/04 14:37:04 BASE 5.28 5 5.76 5 0.5 88 -1.3 140 0 972.7 NA 0.0000 9999 5220 6690 0 0
2019/04/04 14:38:04 BASE 5.38 5 6.12 4 0.5 88 -1.3 141 0 972.7 NA 0.0000 9999 5280 6760 0 0
2019/04/04 14:39:04 BASE 5.28 3 6.12 4 0.5 87 -1.4 142 0 972.7 NA 0.0000 9999 5280 6760 0 0
2019/04/04 14:40:04 BASE 5.06 5 6.12 4 0.5 87 -1.5 143 0 972.7 NA 0.0000 9999 6690 0 0 0
2019/04/04 14:41:04 BASE 5.35 4 6.28 8 0.5 87 -1.5 145 0 972.7 NA 0.0000 9999 5350 6790 0 0
2019/04/04 14:42:04 BASE 5.78 3 6.43 1 0.5 87 -1.4 147 0 972.7 NA 0.0000 9999 5320 0 0 0
2019/04/04 14:43:05 BASE 5.79 5 6.43 1 0.5 87 -1.4 149 0 972.7 NA 0.0000 9999 5350 0 0 0
2019/04/04 14:44:04 BASE 5.75 1 6.43 1 0.5 87 -1.4 151 0 972.7 NA 0.0000 9999 5320 0 0 0
2019/04/04 14:45:04 BASE 6.20 1 7.25 360 0.5 88 -1.3 150 0 972.7 NA 0.0000 9999 5350 6730 22870 0
2019/04/04 14:46:04 BASE 6.57 359 7.25 360 0.5 88 -1.3 149 0 972.7 NA 0.0000 9999 5380 6730 0 0
2019/04/04 14:47:05 BASE 6.63 357 7.25 360 0.5 88 -1.3 147 0 972.7 NA 0.0000 9999 5320 6760 0 0
2019/04/04 14:48:04 BASE 6.64 359 7.25 360 0.5 87 -1.4 144 0 972.7 NA 0.0000 9999 5350 6730 0 0
2019/04/04 14:49:05 BASE 6.65 360 7.25 360 0.5 87 -1.4 144 0 972.7 NA 0.0000 9999 5410 6730 0 0
2019/04/04 14:50:04 BASE 6.73 0 7.25 360 0.5 87 -1.5 144 0 972.8 NA 0.0000 9999 5350 6690 0 0
2019/04/04 14:51:04 BASE 6.74 1 7.25 360 0.5 86 -1.5 146 0 972.8 NA 0.0000 9999 5350 6690 0 0
2019/04/04 14:52:04 BASE 6.85 1 7.51 1 0.5 86 -1.6 148 0 972.8 NA 0.0000 9999 5320 6630 0 0
2019/04/04 14:53:05 BASE 6.75 360 7.51 1 0.5 86 -1.6 149 0 972.8 NA 0.0000 9999 5380 6690 0 0
2019/04/04 14:54:04 BASE 6.22 359 7.51 1 0.5 86 -1.6 148 0 972.8 NA 0.0000 9999 5380 6690 0 0
2019/04/04 14:55:04 BASE 6.02 1 7.51 1 0.5 86 -1.5 147 0 972.8 NA 0.0000 9999 5350 6630 0 0
2019/04/04 14:56:05 BASE 6.09 1 7.51 1 0.5 86 -1.5 147 0 972.8 NA 0.0000 9999 5410 6630 0 0
2019/04/04 14:57:05 BASE 6.10 358 7.51 1 0.5 87 -1.5 148 0 972.8 NA 0.0000 9999 6630 18600 0 0
2019/04/04 14:58:04 BASE 6.12 357 7.51 1 0.5 87 -1.4 149 0 972.8 NA 0.0000 9999 6690 0 0 0
2019/04/04 14:59:05 BASE 6.02 355 7.51 1 0.5 87 -1.4 151 0 972.9 NA 0.0000 9999 6730 10340 0 0
2019/04/04 15:00:04 BASE 5.84 355 7.51 1 0.5 87 -1.3 151 0 972.9 NA 0.0000 9999 5410 6660 10270 0
2019/04/04 15:01:05 BASE 5.64 360 7.51 1 0.5 88 -1.3 151 0 972.9 NA 0.0000 9999 5350 6760 0 0
2019/04/04 15:02:04 BASE 5.53 360 7.10 2 0.5 88 -1.3 151 0 972.8 NA 0.0000 9999 5280 6730 10270 0
2019/04/04 15:03:04 BASE 5.42 0 6.69 354 0.5 88 -1.3 151 0 972.9 NA 0.0000 9999 5320 6760 0 0
2019/04/04 15:04:05 BASE 5.15 0 6.69 354 0.5 88 -1.3 150 0 972.8 NA 0.0000 9999 5320 6760 0 0
2019/04/04 15:05:04 BASE 4.96 0 6.69 354 0.5 87 -1.3 150 0 972.9 NA 0.0000 9999 5350 0 0 0
2019/04/04 15:06:04 BASE 4.98 3 6.69 354 0.5 87 -1.3 150 0 972.9 NA 0.0000 9999 5320 0 0 0
2019/04/04 15:07:04 BASE 4.98 5 6.69 354 0.6 87 -1.4 150 0 972.9 NA 0.0000 9999 5350 0 0 0
2019/04/04 15:08:04 BASE 5.04 4 6.69 354 0.6 87 -1.3 151 0 972.9 NA 0.0000 9999 5350 0 0 0
2019/04/04 15:09:04 BASE 4.83 4 6.12 3 0.6 87 -1.3 151 0 972.9 NA 0.0000 9999 5320 0 0 0
2019/04/04 15:10:04 BASE 4.56 5 5.81 2 0.6 87 -1.3 151 0 972.9 NA 0.0000 9999 5350 0 0 0
2019/04/04 15:11:04 BASE 4.56 0 5.81 2 0.6 87 -1.3 150 0 972.9 NA 0.0000 9999 5320 0 0 0
2019/04/04 15:12:04 BASE 4.50 359 5.45 251 0.6 87 -1.3 149 0 972.9 NA 0.0000 9999 5350 0 0 0
2019/04/04 15:13:04 BASE 4.19 4 5.45 251 0.6 87 -1.3 148 0 972.9 NA 0.0000 9999 5350 0 0 0
2019/04/04 15:14:04 BASE 3.86 6 5.45 251 0.6 87 -1.3 147 0 972.9 NA 0.0000 9999 5410 0 0 0
2019/04/04 15:15:04 BASE 3.75 7 5.45 251 0.6 87 -1.3 146 0 972.9 NA 0.0000 9999 5380 0 0 0
2019/04/04 15:16:05 BASE 3.70 8 5.45 251 0.6 87 -1.3 146 0 972.9 NA 0.0000 9999 5380 0 0 0
2019/04/04 15:17:05 BASE 3.82 8 5.45 251 0.6 87 -1.2 146 0 972.9 NA 0.0000 9999 5380 0 0 0
2019/04/04 15:18:04 BASE 3.80 6 5.45 251 0.6 88 -1.2 148 0 972.9 NA 0.0000 9999 5350 0 0 0
2019/04/04 15:19:04 BASE 3.80 5 5.45 251 0.6 88 -1.2 149 0 972.9 NA 0.0000 9999 5350 0 0 0
2019/04/04 15:20:04 BASE 3.77 4 5.45 251 0.6 88 -1.1 151 0 972.9 NA 0.0000 9999 5380 0 0 0
2019/04/04 15:21:06 BASE 3.72 1 4.94 360 0.6 88 -1.2 153 0 972.9 NA 0.0000 9999 5350 22670 0 0
2019/04/04 15:22:01 BASE 3.48 358 4.37 355 0.6 88 -1.2 154 0 972.9 NA 0.0000 9999 5350 0 0 0
2019/04/04 15:23:04 BASE 3.27 353 4.37 355 0.6 87 -1.3 155 0 972.9 NA 0.0000 9999 5350 0 0 0
2019/04/04 15:24:04 BASE 3.39 354 4.37 355 0.6 87 -1.3 156 0 972.9 NA 0.0000 9999 5380 0 0 0
2019/04/04 15:25:05 BASE 3.35 2 4.37 355 0.6 87 -1.3 157 0 973.0 NA 0.0000 9999 5380 0 0 0
2019/04/04 15:26:05 BASE 3.29 356 4.37 355 0.6 87 -1.3 158 0 973.0 NA 0.0000 9999 5380 0 0 0
2019/04/04 15:27:04 BASE 3.33 349 4.37 355 0.6 87 -1.2 159 0 973.0 NA 0.0000 9999 5410 0 0 0
2019/04/04 15:28:05 BASE 3.15 348 4.37 355 0.6 87 -1.2 158 0 973.0 NA 0.0000 9999 5380 0 0 0
2019/04/04 15:29:05 BASE 2.96 349 4.37 355 0.6 87 -1.2 156 0 973.0 NA 0.0000 9999 5410 0 0 0
2019/04/04 15:30:04 BASE 2.92 348 4.37 355 0.6 87 -1.2 153 0 973.0 NA 0.0000 9999 5350 0 0 0
2019/04/04 15:31:04 BASE 2.89 344 3.76 3 0.6 87 -1.3 149 0 973.1 NA 0.0000 9999 5410 0 0 0
2019/04/04 15:32:05 BASE 2.81 345 3.76 3 0.6 87 -1.3 146 0 973.2 NA 0.0000 9999 5380 0 0 0
2019/04/04 15:33:05 BASE 2.61 349 3.76 3 0.6 87 -1.3 145 0 973.2 NA 0.0000 9999 5410 0 0 0
2019/04/04 15:34:05 BASE 2.56 353 3.70 345 0.6 87 -1.3 144 0 973.2 NA 0.0000 9999 5410 0 0 0
2019/04/04 15:35:04 BASE 2.68 354 3.70 345 0.6 87 -1.3 143 0 973.2 NA 0.0000 9999 5480 0 0 0
2019/04/04 15:36:04 BASE 2.69 357 3.65 349 0.6 87 -1.3 142 0 973.2 NA 0.0000 9999 5380 6500 0 0
2019/04/04 15:37:05 BASE 2.73 356 3.24 348 0.6 87 -1.2 141 0 973.3 NA 0.0000 9999 5450 6460 0 0
2019/04/04 15:38:04 BASE 2.78 353 3.19 343 0.6 88 -1.2 140 0 973.3 NA 0.0000 9999 5410 6460 0 0
2019/04/04 15:39:05 BASE 2.82 355 3.19 343 0.6 88 -1.2 139 0 973.3 NA 0.0000 9999 5410 6460 0 0
2019/04/04 15:40:04 BASE 2.96 359 3.19 3 0.6 88 -1.2 140 0 973.3 NA 0.0000 9999 5480 0 0 0
2019/04/04 15:41:04 BASE 3.07 1 3.19 360 0.6 88 -1.2 140 0 973.3 NA 0.0000 9999 5480 0 0 0
2019/04/04 15:42:04 BASE 3.20 1 3.60 360 0.6 88 -1.1 140 0 973.3 NA 0.0000 9999 5510 0 0 0
2019/04/04 15:43:05 BASE 3.23 0 3.60 360 0.6 88 -1.1 139 0 973.4 NA 0.0000 9999 5510 0 0 0
2019/04/04 15:44:04 BASE 3.24 1 3.60 360 0.6 89 -1.1 138 0 973.4 NA 0.0000 9999 5480 0 0 0
2019/04/04 15:45:05 BASE 3.34 360 3.60 360 0.6 89 -1.1 136 0 973.4 NA 0.0000 9999 5450 0 0 0
2019/04/04 15:46:04 BASE 3.24 354 3.60 360 0.6 89 -1.1 133 0 973.4 NA 0.0000 9999 5410 0 0 0
2019/04/04 15:47:04 BASE 3.19 357 3.70 360 0.6 88 -1.1 133 0 973.4 NA 0.0000 9999 5410 0 0 0
2019/04/04 15:48:04 BASE 3.20 1 3.70 360 0.6 88 -1.1 133 0 973.4 NA 0.0000 9999 5450 0 0 0
2019/04/04 15:49:04 BASE 3.15 1 3.70 360 0.6 88 -1.2 134 0 973.4 NA 0.0000 9999 5450 20640 0 0
2019/04/04 15:50:04 BASE 3.16 359 3.70 360 0.6 88 -1.2 133 0 973.4 NA 0.0000 9999 5450 0 0 0
2019/04/04 15:51:05 BASE 3.25 356 3.70 360 0.6 87 -1.3 133 0 973.4 NA 0.0000 9999 5480 0 0 0
2019/04/04 15:52:04 BASE 3.52 359 4.01 5 0.6 87 -1.3 132 0 973.5 NA 0.0000 9999 5410 21390 0 0
2019/04/04 15:53:04 BASE 3.81 3 4.22 2 0.6 87 -1.3 131 0 973.5 NA 0.0000 9999 5510 0 0 0
2019/04/04 15:54:04 BASE 4.07 3 4.42 360 0.6 88 -1.2 131 0 973.5 NA 0.0000 9999 5380 0 0 0
2019/04/04 15:55:05 BASE 4.27 3 4.58 4 0.6 88 -1.2 130 0 973.5 NA 0.0000 9999 5580 0 0 0
2019/04/04 15:56:04 BASE 4.47 2 5.14 353 0.6 88 -1.2 129 0 973.5 NA 0.0000 9999 5540 0 0 0
2019/04/04 15:57:04 BASE 4.47 1 5.14 353 0.6 87 -1.2 127 0 973.5 NA 0.0000 9999 5580 0 0 0
2019/04/04 15:58:04 BASE 4.39 2 5.14 353 0.6 87 -1.3 125 0 973.5 NA 0.0000 9999 5640 0 0 0
2019/04/04 15:59:05 BASE 4.25 356 5.14 353 0.6 87 -1.3 124 0 973.6 NA 0.0000 9999 5480 0 0 0
2019/04/04 16:00:04 BASE 4.05 351 5.14 353 0.6 87 -1.3 124 0 973.6 NA 0.0000 9999 5410 0 0 0
2019/04/04 16:01:05 BASE 4.24 357 5.14 353 0.6 87 -1.3 123 0 973.6 NA 0.0000 9999 5410 0 0 0
2019/04/04 16:02:04 BASE 4.50 357 5.14 353 0.6 87 -1.3 123 0 973.6 NA 0.0000 9999 5450 0 0 0
2019/04/04 16:03:06 BASE 4.49 358 5.14 353 0.6 87 -1.3 123 0 973.6 NA 0.0000 9999 5510 0 0 0
2019/04/04 16:04:05 BASE 4.43 360 5.14 353 0.6 87 -1.4 123 0 973.6 NA 0.0000 9999 5450 0 0 0
2019/04/04 16:05:04 BASE 4.35 357 5.14 353 0.6 86 -1.4 122 0 973.6 NA 0.0000 9999 5480 0 0 0
2019/04/04 16:06:04 BASE 4.12 360 5.04 360 0.6 86 -1.4 121 0 973.6 NA 0.0000 9999 5510 0 0 0
2019/04/04 16:07:04 BASE 4.02 356 5.04 360 0.6 86 -1.4 120 0 973.7 NA 0.0000 9999 5510 0 0 0
2019/04/04 16:08:04 BASE 3.95 355 5.04 360 0.6 86 -1.4 120 0 973.7 NA 0.0000 9999 5480 0 0 0
2019/04/04 16:09:05 BASE 4.00 356 5.04 360 0.6 86 -1.5 119 0 973.7 NA 0.0000 9999 5510 0 0 0
2019/04/04 16:10:04 BASE 4.35 352 5.04 360 0.6 86 -1.5 119 0 973.7 NA 0.0000 9999 5580 0 0 0
2019/04/04 16:11:04 BASE 4.64 353 5.25 275 0.6 86 -1.5 120 0 973.7 NA 0.0000 9999 5610 0 0 0
2019/04/04 16:12:04 BASE 4.50 0 5.25 275 0.6 86 -1.5 120 0 973.7 NA 0.0000 9999 5580 0 0 0
2019/04/04 16:13:04 BASE 4.29 4 5.25 275 0.6 86 -1.5 121 0 973.7 NA 0.0000 9999 5610 0 0 0
2019/04/04 16:14:04 BASE 4.45 1 5.25 4 0.6 86 -1.5 121 0 973.7 NA 0.0000 9999 5640 0 0 0
2019/04/04 16:15:04 BASE 4.73 360 5.25 4 0.6 86 -1.5 122 0 973.7 NA 0.0000 9999 5640 0 0 0
2019/04/04 16:16:04 BASE 4.91 0 5.35 235 0.6 86 -1.5 122 0 973.7 NA 0.0000 9999 5610 0 0 0
2019/04/04 16:17:04 BASE 5.07 359 5.35 1 0.6 86 -1.5 123 0 973.7 NA 0.0000 9999 5580 0 0 0
2019/04/04 16:18:05 BASE 5.05 1 5.35 1 0.6 86 -1.5 123 0 973.7 NA 0.0000 9999 5640 0 0 0
2019/04/04 16:19:04 BASE 5.04 0 5.40 2 0.6 86 -1.5 124 0 973.7 NA 0.0000 9999 5640 0 0 0
2019/04/04 16:20:04 BASE 5.08 359 5.40 2 0.6 86 -1.5 125 0 973.7 NA 0.0000 9999 5710 0 0 0
2019/04/04 16:21:06 BASE 5.07 358 5.40 2 0.6 86 -1.5 126 0 973.7 NA 0.0000 9999 5640 0 0 0
2019/04/04 16:22:01 BASE 5.05 353 5.40 2 0.6 86 -1.5 127 0 973.7 NA 0.0000 9999 5540 0 0 0
2019/04/04 16:23:04 BASE 5.15 352 5.61 3 0.6 86 -1.5 127 0 973.8 NA 0.0000 9999 5450 0 0 0
2019/04/04 16:24:04 BASE 5.36 0 5.71 1 0.6 86 -1.4 128 0 973.9 NA 0.0000 9999 5510 0 0 0
2019/04/04 16:25:04 BASE 5.44 3 5.81 3 0.6 86 -1.4 129 0 973.9 NA 0.0000 9999 5580 0 0 0
2019/04/04 16:26:04 BASE 5.56 0 6.02 2 0.6 87 -1.3 129 0 973.9 NA 0.0000 9999 5610 0 0 0
2019/04/04 16:27:05 BASE 5.63 0 6.07 360 0.6 87 -1.3 129 0 973.9 NA 0.0000 9999 5710 6530 0 0
2019/04/04 16:28:04 BASE 5.53 2 6.07 360 0.6 88 -1.1 128 0 973.9 NA 0.0000 9999 5710 0 0 0
2019/04/04 16:29:04 BASE 5.96 2 6.79 1 0.6 89 -1.0 127 0 973.9 NA 0.0000 9999 5580 0 0 0
2019/04/04 16:30:04 BASE 6.22 4 6.79 1 0.6 90 -0.9 127 0 974.0 NA 0.0000 9999 5710 0 0 0
2019/04/04 16:31:04 BASE 6.46 7 7.31 7 0.6 90 -0.8 127 0 974.0 NA 0.0000 9999 5610 0 0 0
2019/04/04 16:32:04 BASE 6.57 9 7.31 7 0.6 91 -0.8 127 0 974.0 NA 0.0000 9999 5640 21330 0 0
2019/04/04 16:33:04 BASE 6.31 7 7.31 7 0.6 91 -0.8 127 0 974.0 NA 0.0000 9999 5740 0 0 0
2019/04/04 16:34:04 BASE 6.49 5 7.31 7 0.6 91 -0.8 127 0 974.0 NA 0.0000 9999 5710 0 0 0
2019/04/04 16:35:05 BASE 6.21 7 7.31 7 0.6 90 -0.8 127 0 974.0 NA 0.0000 9999 5680 0 0 0
2019/04/04 16:36:05 BASE 6.07 8 7.31 7 0.5 90 -0.9 127 0 974.0 NA 0.0000 9999 5680 0 0 0
2019/04/04 16:37:05 BASE 6.22 8 7.31 7 0.5 90 -0.9 127 0 974.0 NA 0.0000 9999 5710 6630 0 0
2019/04/04 16:38:01 BASE 6.38 9 7.31 7 0.5 90 -0.9 127 0 974.0 NA 0.0000 9999 5710 0 0 0
2019/04/04 16:39:05 BASE 6.64 10 7.31 7 0.5 90 -0.9 127 0 974.0 NA 0.0000 9999 5810 0 0 0
2019/04/04 16:40:04 BASE 6.78 9 7.31 8 0.5 90 -0.9 126 0 974.0 NA 0.0000 9999 5810 0 0 0
2019/04/04 16:41:04 BASE 6.88 9 7.31 8 0.5 91 -0.9 126 0 974.0 NA 0.0000 9999 5770 0 0 0
2019/04/04 16:42:04 BASE 7.00 9 7.46 8 0.5 91 -0.9 126 0 974.0 NA 0.0000 9999 5810 0 0 0
2019/04/04 16:43:04 BASE 7.04 7 7.46 8 0.5 91 -0.8 126 0 974.1 NA 0.0000 9999 5840 0 0 0
2019/04/04 16:44:04 BASE 6.80 7 7.46 8 0.5 91 -0.8 127 0 974.1 NA 0.0000 9999 5870 0 0 0
2019/04/04 16:45:05 BASE 6.50 5 7.46 8 0.5 91 -0.8 128 0 974.1 NA 0.0000 9999 5870 6430 0 0
2019/04/04 16:46:04 BASE 6.16 359 7.46 8 0.4 91 -0.9 129 0 974.1 NA 0.0000 9999 5970 0 0 0
2019/04/04 16:47:05 BASE 5.79 356 7.46 8 0.4 91 -0.8 130 0 974.1 NA 0.0000 9999 5870 6530 0 0
2019/04/04 16:48:05 BASE 5.60 358 7.46 8 0.4 91 -0.8 131 0 974.1 NA 0.0000 9999 5840 0 0 0
2019/04/04 16:49:05 BASE 5.55 5 7.46 8 0.5 92 -0.7 131 0 974.1 NA 0.0000 9999 5970 0 0 0
2019/04/04 16:50:04 BASE 5.52 5 7.46 8 0.5 92 -0.7 132 0 974.1 NA 0.0000 9999 5910 6660 0 0
2019/04/04 16:51:05 BASE 5.35 1 7.46 8 0.5 93 -0.6 132 0 974.2 NA 0.0000 9999 5940 0 0 0
2019/04/04 16:52:05 BASE 5.07 355 7.25 5 0.4 93 -0.6 133 0 974.2 NA 0.0000 9999 5910 6690 18930 0
2019/04/04 16:53:04 BASE 5.02 357 6.89 10 0.4 93 -0.6 133 0 974.2 NA 0.0000 9999 5970 0 0 0
2019/04/04 16:54:05 BASE 5.29 1 6.53 7 0.4 93 -0.6 133 0 974.2 NA 0.0000 9999 5970 6590 0 0
2019/04/04 16:55:05 BASE 5.24 356 6.28 2 0.4 93 -0.6 132 0 974.2 NA 0.0000 9999 5610 6040 22640 0
2019/04/04 16:56:04 BASE 5.07 351 6.12 6 0.5 93 -0.6 132 0 974.2 NA 0.0000 9999 5610 6040 0 0
2019/04/04 16:57:04 BASE 4.95 350 6.12 6 0.5 93 -0.5 131 0 974.2 NA 0.0000 9999 5610 6070 0 0
2019/04/04 16:58:04 BASE 4.74 349 6.12 6 0.5 93 -0.5 132 0 974.2 NA 0.0000 9999 5580 6070 21720 0
2019/04/04 16:59:04 BASE 4.77 351 6.12 6 0.5 93 -0.5 132 0 974.2 NA 0.0000 9999 5580 0 0 0
2019/04/04 17:00:04 BASE 4.88 352 5.71 355 0.5 93 -0.6 133 0 974.2 NA 0.0000 9999 5610 0 0 0
2019/04/04 17:01:04 BASE 4.63 349 5.71 355 0.5 93 -0.6 134 0 974.3 NA 0.0000 9999 5540 0 0 0
2019/04/04 17:02:04 BASE 4.58 348 5.71 355 0.5 92 -0.6 135 0 974.3 NA 0.0000 9999 7050 0 0 0
2019/04/04 17:03:04 BASE 4.56 350 5.71 355 0.5 92 -0.6 136 0 974.3 NA 0.0000 9999 5510 0 0 0
2019/04/04 17:04:04 BASE 4.28 351 5.61 347 0.5 92 -0.7 137 0 974.3 NA 0.0000 9999 5970 0 0 0
2019/04/04 17:05:04 BASE 4.31 352 5.61 347 0.4 92 -0.7 138 0 974.3 NA 0.0000 9999 5910 0 0 0
2019/04/04 17:06:04 BASE 4.18 351 5.50 354 0.4 92 -0.7 140 0 974.3 NA 0.0000 9999 5910 0 0 0
2019/04/04 17:07:04 BASE 3.72 351 5.50 354 0.4 92 -0.8 140 0 974.3 NA 0.0000 9999 5910 6730 0 0
2019/04/04 17:08:04 BASE 3.44 352 5.50 354 0.4 91 -0.8 140 0 974.3 NA 0.0000 9999 5940 6730 0 0
2019/04/04 17:09:05 BASE 3.22 348 5.14 352 0.4 91 -0.8 140 0 974.3 NA 0.0000 9999 5710 6690 0 0
2019/04/04 17:10:04 BASE 3.32 350 4.99 353 0.4 91 -0.8 139 0 974.4 NA 0.0000 9999 5540 6660 0 0
2019/04/04 17:11:04 BASE 3.46 351 4.99 353 0.4 92 -0.8 138 0 974.4 NA 0.0000 9999 5480 6760 0 0
2019/04/04 17:12:05 BASE 3.33 347 4.68 354 0.4 92 -0.7 138 0 974.5 NA 0.0000 9999 5510 0 0 0
2019/04/04 17:13:04 BASE 3.40 345 4.68 354 0.4 92 -0.7 137 0 974.5 NA 0.0000 9999 7220 0 0 0
2019/04/04 17:14:04 BASE 3.32 346 4.68 354 0.4 92 -0.7 138 0 974.4 NA 0.0000 9999 7320 0 0 0
2019/04/04 17:15:04 BASE 3.26 348 4.22 349 0.4 92 -0.7 138 0 974.5 NA 0.0000 9999 7220 0 0 0
2019/04/04 17:16:04 BASE 3.19 349 3.76 338 0.5 92 -0.7 138 0 974.5 NA 0.0000 9999 5740 0 0 0
2019/04/04 17:17:04 BASE 2.98 351 3.76 338 0.5 92 -0.7 139 0 974.5 NA 0.0000 9999 7090 0 0 0
2019/04/04 17:18:04 BASE 2.89 348 3.76 338 0.5 92 -0.6 140 0 974.5 NA 0.0000 9999 6000 7190 0 0
2019/04/04 17:19:05 BASE 2.89 346 3.76 338 0.5 92 -0.6 140 0 974.6 NA 0.0000 9999 7050 0 0 0
2019/04/04 17:20:04 BASE 2.77 349 3.76 338 0.5 92 -0.6 139 0 974.6 NA 0.0000 9999 6230 7190 0 0
2019/04/04 17:21:06 BASE 2.52 353 3.76 338 0.5 92 -0.6 137 0 974.6 NA 0.0000 9999 6270 7190 0 0
2019/04/04 17:22:01 BASE 2.51 3 3.76 338 0.5 92 -0.6 135 0 974.6 NA 0.0000 9999 7120 0 0 0
2019/04/04 17:23:04 BASE 2.54 6 3.55 346 0.5 92 -0.6 134 0 974.6 NA 0.0000 9999 6070 0 0 0
2019/04/04 17:24:04 BASE 2.73 8 3.55 346 0.5 92 -0.7 133 0 974.6 NA 0.0000 9999 5680 6200 7220 0
2019/04/04 17:25:04 BASE 2.95 12 3.45 20 0.5 92 -0.7 132 0 974.6 NA 0.0000 9999 5640 6760 0 0
2019/04/04 17:26:04 BASE 3.11 16 3.65 10 0.5 92 -0.7 132 0 974.6 NA 0.0000 9999 6760 7220 0 0
2019/04/04 17:27:04 BASE 2.91 21 3.65 10 0.5 92 -0.7 132 0 974.6 NA 0.0000 9999 7190 0 0 0
2019/04/04 17:28:04 BASE 2.29 31 3.65 10 0.5 92 -0.7 132 0 974.6 NA 0.0000 9999 6170 0 0 0
2019/04/04 17:29:04 BASE 1.18 49 3.65 10 0.5 92 -0.6 131 0 974.6 NA 0.0000 9999 7250 0 0 0
2019/04/04 17:30:04 BASE 0.35 72 3.65 10 0.5 92 -0.6 129 0 974.6 NA 0.0000 9999 5640 6790 0 0
2019/04/04 17:31:04 BASE 0.56 82 3.65 10 0.5 92 -0.6 127 0 974.6 NA 0.0000 9999 7150 0 0 0
2019/04/04 17:32:04 BASE 0.91 70 3.65 10 0.6 92 -0.6 125 0 974.7 NA 0.0000 9999 6730 0 0 0
2019/04/04 17:33:04 BASE 0.54 49 3.65 10 0.6 92 -0.6 123 0 974.7 NA 0.0000 9999 7090 0 0 0
2019/04/04 17:34:04 BASE 0.04 57 3.65 10 0.6 92 -0.6 122 0 974.7 NA 0.0000 9999 7150 0 0 0
2019/04/04 17:35:04 BASE 0.44 65 3.65 10 0.6 92 -0.6 121 0 974.7 NA 0.0000 9999 7120 0 0 0
2019/04/04 17:36:04 BASE 0.77 62 3.29 23 0.6 91 -0.6 119 0 974.8 NA 0.0000 9999 6790 0 0 0
2019/04/04 17:37:04 BASE 1.19 65 2.42 26 0.6 91 -0.7 118 0 974.8 NA 0.0000 9999 7090 0 0 0
2019/04/04 17:38:04 BASE 1.17 76 2.16 49 0.6 91 -0.7 118 0 974.8 NA 0.0000 9999 7050 0 0 0
2019/04/04 17:39:04 BASE 0.78 80 2.16 49 0.6 91 -0.7 117 0 974.8 NA 0.0000 9999 7050 0 0 0
2019/04/04 17:40:04 BASE 0.71 67 2.16 49 0.6 91 -0.7 116 0 974.8 NA 0.0000 9999 7120 0 0 0
2019/04/04 17:41:04 BASE 0.42 71 2.16 49 0.6 91 -0.7 115 0 974.7 NA 0.0000 9999 5710 7150 0 0
2019/04/04 17:42:04 BASE 0.50 67 2.16 49 0.6 91 -0.7 114 0 974.8 NA 0.0000 9999 5680 7250 0 0
2019/04/04 17:43:04 BASE 0.46 53 2.16 49 0.6 91 -0.7 114 0 974.8 NA 0.0000 9999 5680 7150 0 0
2019/04/04 17:44:04 BASE 0.34 43 2.16 49 0.5 91 -0.8 113 0 974.8 NA 0.0000 9999 5640 7150 0 0
2019/04/04 17:45:04 BASE 0.55 36 2.16 49 0.5 91 -0.8 112 0 974.8 NA 0.0000 9999 7150 0 0 0
2019/04/04 17:46:04 BASE 1.04 33 2.16 49 0.5 91 -0.8 111 0 974.8 NA 0.0000 9999 7150 0 0 0
2019/04/04 17:47:04 BASE 1.19 27 1.75 47 0.5 91 -0.8 109 0 974.8 NA 0.0000 9999 7150 0 0 0
2019/04/04 17:48:04 BASE 1.30 24 2.11 25 0.5 91 -0.8 107 0 974.8 NA 0.0000 9999 5710 7220 19190 0
2019/04/04 17:49:05 BASE 1.70 27 2.11 25 0.5 91 -0.8 105 0 974.9 NA 0.0000 9999 5680 7250 0 0
2019/04/04 17:50:04 BASE 1.77 29 2.26 31 0.5 91 -0.8 103 0 974.9 NA 0.0000 9999 5680 7190 0 0
2019/04/04 17:51:04 BASE 2.01 30 2.52 36 0.5 91 -0.8 101 0 974.9 NA 0.0000 9999 5680 7150 0 0
2019/04/04 17:52:04 BASE 2.07 29 2.52 36 0.4 92 -0.8 100 0 974.9 NA 0.0000 9999 5680 7250 0 0
2019/04/04 17:53:05 BASE 1.94 27 2.52 36 0.4 92 -0.8 99 0 974.9 NA 0.0000 9999 7250 0 0 0
2019/04/04 17:54:04 BASE 1.63 25 2.52 36 0.4 92 -0.8 98 0 974.9 NA 0.0000 9999 7250 0 0 0
2019/04/04 17:55:04 BASE 1.00 22 2.52 36 0.4 92 -0.8 98 0 974.9 NA 0.0000 9999 7250 0 0 0
2019/04/04 17:56:04 BASE 0.76 34 2.52 36 0.4 92 -0.8 97 0 974.9 NA 0.0000 9999 7220 0 0 0
2019/04/04 17:57:04 BASE 0.78 52 2.52 36 0.4 92 -0.7 97 0 974.9 NA 0.0000 9999 7190 0 0 0
2019/04/04 17:58:05 BASE 0.68 51 2.52 36 0.4 92 -0.7 97 0 974.9 NA 0.0000 9999 7280 0 0 0
2019/04/04 17:59:05 BASE 0.69 44 2.52 36 0.4 93 -0.6 97 0 975.0 NA 0.0000 9999 7320 0 0 0
2019/04/04 18:00:04 BASE 0.70 41 2.52 36 0.5 93 -0.6 97 0 974.9 NA 0.0000 9999 2130 7350 0 0
2019/04/04 18:01:04 BASE 0.97 35 2.47 27 0.5 93 -0.5 98 0 975.0 NA 0.0000 9999 2130 7320 0 0
2019/04/04 18:02:05 BASE 1.31 30 2.21 26 0.5 93 -0.6 98 0 975.1 NA 0.0000 9999 2130 7350 0 0
2019/04/04 18:03:05 BASE 1.19 30 1.65 26 0.5 93 -0.6 98 0 975.1 NA 0.0000 9999 7350 0 0 0
2019/04/04 18:04:04 BASE 0.78 25 1.54 28 0.4 92 -0.7 98 0 975.0 NA 0.0000 9999 7320 0 0 0
2019/04/04 18:05:04 BASE 0.42 15 1.54 28 0.4 92 -0.7 98 0 975.0 NA 0.0000 9999 7350 0 0 0
2019/04/04 18:06:04 BASE 0.19 30 1.54 28 0.4 92 -0.8 98 0 975.1 NA 0.0000 9999 5840 7380 9740 0
2019/04/04 18:07:05 BASE 0.10 55 1.54 28 0.4 92 -0.7 97 0 975.1 NA 0.0000 9999 5770 7320 0 0
2019/04/04 18:08:04 BASE 0.10 69 1.54 28 0.4 92 -0.7 97 0 975.2 NA 0.0000 9999 5770 7350 0 0
2019/04/04 18:09:04 BASE 0.00 77 1.54 28 0.4 92 -0.7 96 0 975.1 NA 0.0000 9999 5740 7380 0 0
2019/04/04 18:10:04 BASE 0.00 79 1.54 28 0.4 92 -0.7 96 0 975.2 NA 0.0000 9999 5740 0 0 0
2019/04/04 18:11:05 BASE 0.00 76 1.54 28 0.4 92 -0.7 97 0 975.2 NA 0.0000 9999 5710 21290 0 0
2019/04/04 18:12:04 BASE 0.00 71 1.34 67 0.5 92 -0.7 97 0 975.2 NA 0.0000 9999 5710 0 0 0
2019/04/04 18:13:04 BASE 0.00 66 1.34 67 0.5 92 -0.7 97 0 975.2 NA 0.0000 9999 5770 0 0 0
2019/04/04 18:14:05 BASE 0.00 62 1.34 67 0.5 92 -0.7 97 0 975.2 NA 0.0000 9999 5740 0 0 0
2019/04/04 18:15:05 BASE 0.00 49 1.34 67 0.5 92 -0.6 97 0 975.2 NA 0.0000 9999 5710 7350 0 0
2019/04/04 18:16:04 BASE 0.00 41 1.34 67 0.5 92 -0.6 96 0 975.2 NA 0.0000 9999 6400 7510 0 0
2019/04/04 18:17:04 BASE 0.00 43 M M 0.5 92 -0.7 96 0 975.2 NA 0.0000 9999 6400 7220 0 0
2019/04/04 18:18:04 BASE 0.00 48 M M 0.5 92 -0.7 95 0 975.2 NA 0.0000 9999 6370 7250 0 0
2019/04/04 18:19:04 BASE 0.00 51 M M 0.5 91 -0.7 94 0 975.2 NA 0.0000 9999 6200 21880 22340 0
2019/04/04 18:20:04 BASE 0.00 49 M M 0.5 91 -0.7 93 0 975.2 NA 0.0000 9999 6140 9780 0 0
2019/04/04 18:21:05 BASE 0.00 44 M M 0.5 91 -0.8 93 0 975.2 NA 0.0000 9999 9780 0 0 0
2019/04/04 18:22:01 BASE 0.00 42 M M 0.6 91 -0.8 92 0 975.2 NA 0.0000 9999 7190 9710 0 0
2019/04/04 18:23:06 BASE 0.00 58 M M 0.5 91 -0.8 92 0 975.2 NA 0.0000 9999 7220 7740 0 0
2019/04/04 18:24:04 BASE 0.00 61 M M 0.5 90 -0.9 91 0 975.2 NA 0.0000 9999 6200 7190 7780 0
2019/04/04 18:25:04 BASE 0.00 44 M M 0.5 90 -0.9 90 0 975.2 NA 0.0000 9999 6230 7220 0 0
2019/04/04 18:26:04 BASE 0.00 38 M M 0.5 90 -0.9 89 0 975.2 NA 0.0000 9999 6170 7150 0 0
2019/04/04 18:27:04 BASE 0.00 41 M M 0.5 90 -0.9 88 0 975.2 NA 0.0000 9999 6200 0 0 0
2019/04/04 18:28:04 BASE 0.29 48 1.29 45 0.6 90 -0.9 87 0 975.3 NA 0.0000 9999 6140 7870 0 0
2019/04/04 18:29:05 BASE 0.82 39 1.65 19 0.6 90 -1.0 85 0 975.3 NA 0.0000 9999 6070 0 0 0
2019/04/04 18:30:04 BASE 1.28 42 1.70 53 0.6 90 -1.0 84 0 975.3 NA 0.0000 9999 6040 0 0 0
2019/04/04 18:31:04 BASE 1.36 55 1.70 53 0.6 90 -0.9 83 0 975.3 NA 0.0000 9999 5970 0 0 0
2019/04/04 18:32:04 BASE 0.75 52 1.70 53 0.6 90 -1.0 82 0 975.2 NA 0.0000 9999 5970 0 0 0
2019/04/04 18:33:05 BASE 0.84 38 1.70 53 0.5 90 -0.9 82 0 975.2 NA 0.0000 9999 6000 0 0 0
2019/04/04 18:34:04 BASE 0.80 24 1.70 53 0.5 90 -0.9 81 0 975.2 NA 0.0000 9999 6040 0 0 0
2019/04/04 18:35:04 BASE 0.28 26 1.70 53 0.5 90 -0.9 81 0 975.3 NA 0.0000 9999 6070 0 0 0
2019/04/04 18:36:04 BASE 0.74 42 1.70 53 0.5 90 -0.9 81 0 975.3 NA 0.0000 9999 6040 0 0 0
2019/04/04 18:37:04 BASE 1.41 55 1.85 63 0.6 90 -0.9 81 0 975.3 NA 0.0000 9999 6070 0 0 0
2019/04/04 18:38:04 BASE 1.77 59 2.21 61 0.6 90 -0.9 80 0 975.3 NA 0.0000 9999 6000 0 0 0
2019/04/04 18:39:04 BASE 1.79 58 2.21 61 0.6 89 -1.0 80 0 975.3 NA 0.0000 9999 6040 0 0 0
2019/04/04 18:40:04 BASE 1.53 56 2.21 61 0.6 89 -1.0 79 0 975.4 NA 0.0000 9999 6040 0 0 0
2019/04/04 18:41:05 BASE 1.41 53 2.21 61 0.6 89 -1.0 78 0 975.4 NA 0.0000 9999 5970 0 0 0
2019/04/04 18:42:05 BASE 1.40 50 2.21 61 0.6 89 -1.1 78 0 975.4 NA 0.0000 9999 6000 0 0 0
2019/04/04 18:43:04 BASE 1.32 51 2.21 61 0.5 89 -1.1 78 0 975.4 NA 0.0000 9999 6040 0 0 0
2019/04/04 18:44:04 BASE 1.30 54 2.21 61 0.5 89 -1.1 78 0 975.4 NA 0.0000 9999 5970 0 0 0
2019/04/04 18:45:04 BASE 1.21 52 2.21 61 0.5 89 -1.0 78 0 975.4 NA 0.0000 9999 5970 0 0 0
2019/04/04 18:46:04 BASE 0.76 53 2.21 61 0.5 89 -1.0 78 0 975.4 NA 0.0000 9999 6040 7740 0 0
2019/04/04 18:47:04 BASE 0.26 58 2.21 61 0.5 89 -1.0 78 0 975.4 NA 0.0000 9999 6140 7740 0 0
2019/04/04 18:48:04 BASE 0.17 59 1.80 58 0.5 89 -1.0 78 0 975.4 NA 0.0000 9999 6230 7640 22470 0
2019/04/04 18:49:05 BASE 0.32 59 1.59 50 0.5 89 -1.0 79 0 975.4 NA 0.0000 9999 7710 0 0 0
2019/04/04 18:50:04 BASE 0.20 55 1.59 50 0.5 89 -1.1 79 0 975.4 NA 0.0000 9999 7510 0 0 0
2019/04/04 18:51:04 BASE 0.00 48 1.54 53 0.5 89 -1.1 79 0 975.4 NA 0.0000 9999 6100 7480 0 0
2019/04/04 18:52:04 BASE 0.00 45 1.49 54 0.5 89 -1.1 79 0 975.4 NA 0.0000 9999 6100 7610 0 0
2019/04/04 18:53:05 BASE 0.00 43 1.49 54 0.5 89 -1.1 79 0 975.4 NA 0.0000 9999 6140 7550 9150 0
2019/04/04 18:54:04 BASE 0.00 41 1.39 61 0.5 89 -1.1 79 0 975.5 NA 0.0000 9999 6170 7510 0 0
2019/04/04 18:55:04 BASE 0.00 41 1.39 61 0.5 89 -1.1 79 0 975.5 NA 0.0000 9999 6170 9290 0 0
2019/04/04 18:56:04 BASE 0.00 45 1.23 57 0.5 89 -1.1 79 0 975.6 NA 0.0000 9999 6170 9190 0 0
2019/04/04 18:57:05 BASE 0.00 57 1.23 57 0.5 89 -1.1 78 0 975.6 NA 0.0000 9999 6200 9220 0 0
2019/04/04 18:58:04 BASE 0.00 64 1.23 57 0.5 89 -1.1 78 0 975.6 NA 0.0000 9999 6270 9250 0 0
2019/04/04 18:59:04 BASE 0.00 63 M M 0.6 89 -1.0 77 0 975.6 NA 0.0000 9999 6200 7250 9120 0
2019/04/04 19:00:04 BASE 0.00 62 M M 0.6 89 -1.0 76 0 975.5 NA 0.0000 9999 6270 7250 9250 0
2019/04/04 19:01:05 BASE 0.00 62 M M 0.6 89 -1.0 75 0 975.6 NA 0.0000 9999 6370 7190 0 0
2019/04/04 19:02:04 BASE 0.00 61 M M 0.6 89 -1.0 74 0 975.6 NA 0.0000 9999 6370 7190 0 0
2019/04/04 19:03:04 BASE 0.00 43 M M 0.6 89 -1.0 73 0 975.6 NA 0.0000 9999 6330 7090 0 0
2019/04/04 19:04:04 BASE 0.00 26 M M 0.6 89 -1.1 72 0 975.6 NA 0.0000 9999 6370 7280 0 0
2019/04/04 19:05:04 BASE 0.00 26 M M 0.6 89 -1.1 71 0 975.6 NA 0.0000 9999 6400 0 0 0
2019/04/04 19:06:04 BASE 0.00 26 M M 0.6 89 -1.1 71 0 975.6 NA 0.0000 9999 6400 7150 0 0
2019/04/04 19:07:05 BASE 0.00 26 M M 0.6 89 -1.1 70 0 975.6 NA 0.0000 9999 6370 7120 0 0
2019/04/04 19:08:04 BASE 0.00 27 M M 0.6 89 -1.0 70 0 975.6 NA 0.0000 9999 6370 7090 0 0
2019/04/04 19:09:05 BASE 0.00 27 M M 0.6 89 -1.0 69 0 975.7 NA 0.0000 9999 6270 6960 22840 0
2019/04/04 19:10:04 BASE 0.00 27 M M 0.6 89 -1.0 69 0 975.8 NA 0.0000 9999 7050 0 0 0
2019/04/04 19:11:05 BASE 0.00 27 M M 0.6 89 -1.0 68 0 975.8 NA 0.0000 9999 7050 0 0 0
2019/04/04 19:12:04 BASE 0.00 27 M M 0.6 89 -1.0 67 0 975.8 NA 0.0000 9999 6430 7090 0 0
2019/04/04 19:13:04 BASE 0.50 34 1.65 49 0.5 90 -1.0 66 0 975.8 NA 0.0000 9999 6460 7120 0 0
2019/04/04 19:14:05 BASE 1.28 47 1.75 49 0.5 90 -1.0 65 0 975.8 NA 0.0000 9999 6430 7090 0 0
2019/04/04 19:15:05 BASE 1.38 53 1.75 49 0.5 90 -0.9 64 0 975.8 NA 0.0000 9999 6430 7050 0 0
2019/04/04 19:16:04 BASE 1.46 61 1.95 77 0.5 91 -0.9 63 0 975.8 NA 0.0000 9999 6460 7090 0 0
2019/04/04 19:17:04 BASE 1.59 72 1.95 77 0.5 91 -0.8 62 0 975.9 NA 0.0000 9999 6400 7090 0 0
2019/04/04 19:18:04 BASE 1.71 76 2.11 80 0.4 92 -0.7 61 0 975.9 NA 0.0000 9999 6400 6990 0 0
2019/04/04 19:19:05 BASE 1.92 75 2.31 67 0.4 92 -0.7 61 0 975.9 NA 0.0000 9999 6430 6990 0 0
2019/04/04 19:20:05 BASE 2.03 80 2.47 83 0.4 92 -0.7 60 0 975.9 NA 0.0000 9999 6400 6990 0 0
2019/04/04 19:21:05 BASE 2.01 80 2.47 83 0.4 92 -0.7 60 0 975.9 NA 0.0000 9999 6430 7020 0 0
2019/04/04 19:22:01 BASE 2.05 78 2.47 83 0.4 92 -0.7 60 0 975.9 NA 0.0000 9999 6430 7020 0 0
2019/04/04 19:23:05 BASE 2.30 82 2.83 86 0.4 92 -0.7 61 0 975.9 NA 0.0000 9999 6500 7020 0 0
2019/04/04 19:24:04 BASE 2.46 82 2.83 83 0.4 92 -0.7 61 0 975.9 NA 0.0000 9999 6430 7090 0 0
2019/04/04 19:25:04 BASE 2.32 80 2.83 83 0.4 92 -0.7 61 0 975.9 NA 0.0000 9999 6500 6990 0 0
2019/04/04 19:26:04 BASE 2.22 81 2.83 83 0.4 92 -0.7 61 0 975.9 NA 0.0000 9999 7020 0 0 0
2019/04/04 19:27:05 BASE 2.57 82 3.09 81 0.4 92 -0.7 62 0 975.9 NA 0.0000 9999 7020 0 0 0
2019/04/04 19:28:04 BASE 2.75 81 3.09 81 0.4 92 -0.8 62 0 975.9 NA 0.0000 9999 6920 0 0 0
2019/04/04 19:29:04 BASE 2.55 84 3.09 81 0.4 92 -0.8 62 0 976.0 NA 0.0000 9999 6920 0 0 0
2019/04/04 19:30:04 BASE 2.42 87 3.09 81 0.4 92 -0.8 62 0 976.0 NA 0.0000 9999 6960 0 0 0
2019/04/04 19:31:04 BASE 2.57 86 3.09 81 0.4 92 -0.8 62 0 976.0 NA 0.0000 9999 6990 0 0 0
2019/04/04 19:32:04 BASE 2.71 88 3.09 81 0.4 92 -0.8 62 0 976.0 NA 0.0000 9999 6960 0 0 0
2019/04/04 19:33:04 BASE 2.68 88 3.09 81 0.4 92 -0.8 62 0 976.0 NA 0.0000 9999 6990 0 0 0
2019/04/04 19:34:04 BASE 2.72 84 3.09 81 0.4 92 -0.8 61 0 976.0 NA 0.0000 9999 6920 0 0 0
2019/04/04 19:35:05 BASE 2.86 81 3.09 81 0.4 92 -0.8 61 0 976.0 NA 0.0000 9999 6960 0 0 0
2019/04/04 19:36:04 BASE 3.01 76 3.34 77 0.3 92 -0.8 60 0 976.0 NA 0.0000 9999 6960 0 0 0
2019/04/04 19:37:04 BASE 2.97 71 3.34 77 0.3 92 -0.8 60 0 976.0 NA 0.0000 9999 6920 0 0 0
2019/04/04 19:38:04 BASE 2.65 68 3.34 77 0.3 92 -0.8 59 0 976.0 NA 0.0000 9999 6990 0 0 0
2019/04/04 19:39:05 BASE 2.34 69 3.34 77 0.4 92 -0.9 59 0 976.0 NA 0.0000 9999 6990 0 0 0
2019/04/04 19:40:04 BASE 1.97 75 3.34 77 0.4 91 -0.9 58 0 976.0 NA 0.0000 9999 7050 0 0 0
2019/04/04 19:41:04 BASE 1.57 86 3.34 77 0.4 91 -0.9 57 0 976.0 NA 0.0000 9999 7090 0 0 0
2019/04/04 19:42:04 BASE 0.86 86 3.34 77 0.4 91 -0.9 56 0 976.0 NA 0.0000 9999 7020 0 0 0
2019/04/04 19:43:04 BASE 0.15 76 3.34 77 0.4 91 -0.9 55 0 976.1 NA 0.0000 9999 7120 0 0 0
2019/04/04 19:44:04 BASE 0.51 90 3.34 77 0.4 91 -0.9 53 0 976.1 NA 0.0000 9999 7120 0 0 0
2019/04/04 19:45:04 BASE 1.61 107 3.34 77 0.4 91 -0.9 52 0 976.1 NA 0.0000 9999 7150 0 0 0
2019/04/04 19:46:04 BASE 2.57 108 3.24 106 0.4 91 -0.9 50 0 976.1 NA 0.0000 9999 7190 0 0 0
2019/04/04 19:47:05 BASE 2.94 107 3.24 106 0.4 91 -0.9 49 0 976.2 NA 0.0000 9999 7150 0 0 0
2019/04/04 19:48:04 BASE 2.87 105 3.24 106 0.4 92 -0.9 47 0 976.2 NA 0.0000 9999 6890 0 0 0
2019/04/04 19:49:05 BASE 2.95 101 3.34 94 0.3 92 -0.8 46 0 976.1 NA 0.0000 9999 6590 0 0 0
2019/04/04 19:50:04 BASE 3.12 95 3.34 94 0.3 92 -0.8 45 0 976.1 NA 0.0000 9999 6590 0 0 0
2019/04/04 19:51:05 BASE 2.97 90 3.34 94 0.3 92 -0.8 44 0 976.2 NA 0.0000 9999 6590 0 0 0
2019/04/04 19:52:04 BASE 2.52 88 3.34 94 0.3 92 -0.8 43 0 976.2 NA 0.0000 9999 6560 7280 0 0
2019/04/04 19:53:04 BASE 2.18 89 3.34 94 0.3 92 -0.8 43 0 976.2 NA 0.0000 9999 6890 0 0 0
2019/04/04 19:54:04 BASE 2.08 92 3.34 94 0.4 91 -0.9 42 0 976.2 NA 0.0000 9999 6890 0 0 0
2019/04/04 19:55:06 BASE 2.05 94 3.34 94 0.4 91 -0.9 41 0 976.2 NA 0.0000 9999 6820 0 0 0
2019/04/04 19:56:04 BASE 2.07 93 3.34 94 0.4 91 -1.0 40 0 976.2 NA 0.0000 9999 6860 7870 0 0
2019/04/04 19:57:05 BASE 2.33 89 3.34 94 0.4 90 -1.0 40 0 976.2 NA 0.0000 9999 7840 0 0 0
2019/04/04 19:58:04 BASE 2.47 90 3.34 94 0.4 90 -1.0 39 0 976.2 NA 0.0000 9999 7910 0 0 0
2019/04/04 19:59:05 BASE 2.29 96 3.29 93 0.4 90 -1.0 39 0 976.2 NA 0.0000 9999 7150 7910 8300 0
2019/04/04 20:00:05 BASE 2.86 99 3.50 99 0.4 90 -1.0 38 0 976.3 NA 0.0000 9999 6960 7870 0 0
2019/04/04 20:01:04 BASE 3.35 100 3.50 99 0.4 90 -1.1 37 0 976.4 NA 0.0000 9999 6660 0 0 0
2019/04/04 20:02:04 BASE 3.50 97 3.91 96 0.3 90 -1.1 36 0 976.4 NA 0.0000 9999 6590 0 0 0
2019/04/04 20:03:04 BASE 3.57 95 3.91 96 0.3 90 -1.1 36 0 976.4 NA 0.0000 9999 6590 0 0 0
2019/04/04 20:04:04 BASE 3.55 96 3.91 96 0.3 91 -1.1 35 0 976.4 NA 0.0000 9999 6590 0 0 0
2019/04/04 20:05:05 BASE 3.56 99 4.06 100 0.2 91 -1.1 34 0 976.4 NA 0.0000 9999 6560 0 0 0
2019/04/04 20:06:04 BASE 3.29 98 4.06 100 0.2 91 -1.0 34 0 976.4 NA 0.0000 9999 6560 0 0 0
2019/04/04 20:07:05 BASE 3.26 93 4.06 100 0.2 92 -1.0 34 0 976.4 NA 0.0000 9999 6530 0 0 0
2019/04/04 20:08:04 BASE 3.43 89 4.06 100 0.2 92 -1.0 33 0 976.4 NA 0.0000 9999 6590 0 0 0
2019/04/04 20:09:04 BASE 3.25 92 4.06 100 0.2 92 -0.9 33 0 976.4 NA 0.0000 9999 6690 7610 0 0
2019/04/04 20:10:04 BASE 3.10 93 4.06 100 0.3 92 -0.9 33 0 976.5 NA 0.0000 9999 6660 7610 0 0
2019/04/04 20:11:05 BASE 3.11 92 4.06 100 0.3 92 -0.9 32 0 976.5 NA 0.0000 9999 6690 7580 0 0
2019/04/04 20:12:05 BASE 3.01 94 4.06 100 0.3 91 -0.9 32 0 976.5 NA 0.0000 9999 6660 7680 0 0
2019/04/04 20:13:04 BASE 3.10 95 4.06 100 0.3 91 -1.0 31 0 976.5 NA 0.0000 9999 6660 7190 0 0
2019/04/04 20:14:04 BASE 3.22 95 4.06 100 0.3 91 -1.1 31 0 976.5 NA 0.0000 9999 6660 7120 0 0
2019/04/04 20:15:05 BASE 3.15 96 3.70 82 0.3 91 -1.1 30 0 976.6 NA 0.0000 9999 6690 0 0 0
2019/04/04 20:16:04 BASE 3.13 97 3.70 82 0.3 90 -1.1 30 0 976.6 NA 0.0000 9999 6730 0 0 0
2019/04/04 20:17:04 BASE 2.98 95 3.70 82 0.3 90 -1.1 29 0 976.6 NA 0.0000 9999 6730 7640 0 0
2019/04/04 20:18:04 BASE 2.68 94 3.50 93 0.3 91 -1.1 29 0 976.6 NA 0.0000 9999 6860 0 0 0
2019/04/04 20:19:05 BASE 2.38 96 3.50 93 0.3 91 -1.0 29 0 976.6 NA 0.0000 9999 6960 7510 0 0
2019/04/04 20:20:04 BASE 2.27 94 3.50 93 0.3 91 -1.0 28 0 976.6 NA 0.0000 9999 7580 0 0 0
2019/04/04 20:21:05 BASE 2.28 84 3.50 93 0.3 91 -1.0 28 0 976.7 NA 0.0000 9999 7550 0 0 0
2019/04/04 20:22:01 BASE 2.03 79 3.50 93 0.3 91 -1.0 28 0 976.7 NA 0.0000 9999 7090 7640 0 0
2019/04/04 20:23:04 BASE 1.69 82 3.34 97 0.3 91 -1.0 28 0 976.7 NA 0.0000 9999 7150 7550 0 0
2019/04/04 20:24:04 BASE 1.06 75 3.29 95 0.3 91 -1.0 28 0 976.7 NA 0.0000 9999 7580 0 0 0
2019/04/04 20:25:04 BASE 0.55 54 3.29 95 0.3 91 -1.0 28 0 976.7 NA 0.0000 9999 7580 8270 0 0
2019/04/04 20:26:04 BASE 0.77 41 2.98 91 0.3 91 -0.9 28 0 976.7 NA 0.0000 9999 8040 0 0 0
2019/04/04 20:27:04 BASE 0.59 18 2.62 96 0.3 91 -0.9 29 0 976.7 NA 0.0000 9999 7970 0 0 0
2019/04/04 20:28:04 BASE 0.73 3 2.52 103 0.3 92 -0.8 29 0 976.6 NA 0.0000 9999 7740 0 0 0
2019/04/04 20:29:04 BASE 0.68 354 2.42 76 0.3 92 -0.8 29 0 976.6 NA 0.0000 9999 7810 0 0 0
2019/04/04 20:30:05 BASE 0.67 340 2.42 76 0.2 93 -0.8 28 0 976.7 NA 0.0000 9999 7870 8500 10010 0
2019/04/04 20:31:04 BASE 0.88 350 1.95 83 0.2 93 -0.8 28 0 976.7 NA 0.0000 9999 7970 10070 0 0
2019/04/04 20:32:06 BASE 0.26 1 1.75 83 0.1 93 -0.8 28 0 976.7 NA 0.0000 9999 8070 0 0 0
2019/04/04 20:33:01 BASE 0.00 1 1.70 346 0.1 94 -0.8 27 0 976.7 NA 0.0000 9999 8200 9880 0 0
2019/04/04 20:34:05 BASE 0.00 357 1.70 346 0.1 94 -0.8 27 0 976.7 NA 0.0000 9999 8010 10010 0 0
2019/04/04 20:35:05 BASE 0.00 354 1.70 346 0.1 94 -0.8 26 0 976.7 NA 0.0000 9999 8070 10170 0 0
2019/04/04 20:36:04 BASE 0.00 354 1.70 346 0.1 94 -0.8 25 0 976.7 NA 0.0000 9999 7580 8070 0 0
2019/04/04 20:37:04 BASE 0.00 354 1.70 346 0.1 94 -0.8 25 0 976.7 NA 0.0000 9999 7510 0 0 0
2019/04/04 20:38:04 BASE 0.00 354 1.70 346 0.1 94 -0.7 24 0 976.7 NA 0.0000 9999 7580 8040 0 0
2019/04/04 20:39:05 BASE 0.00 3 1.70 346 0.1 94 -0.8 23 0 976.7 NA 0.0000 9999 7610 0 0 0
2019/04/04 20:40:04 BASE 0.00 30 1.44 1 0.1 94 -0.8 23 0 976.8 NA 0.0000 9999 7580 0 0 0
2019/04/04 20:41:04 BASE 0.00 36 M M 0.1 93 -0.8 22 0 976.8 NA 0.0000 9999 7550 0 0 0
2019/04/04 20:42:04 BASE 0.00 23 M M 0.1 93 -0.8 21 0 976.8 NA 0.0000 9999 7450 0 0 0
2019/04/04 20:43:05 BASE 0.00 21 M M 0.1 93 -0.8 21 0 976.8 NA 0.0000 9999 7450 0 0 0
2019/04/04 20:44:04 BASE 0.00 24 M M 0.1 93 -0.8 20 0 976.8 NA 0.0000 9999 7480 0 0 0
2019/04/04 20:45:04 BASE 0.00 32 M M 0.1 93 -0.8 20 0 976.8 NA 0.0000 9999 7580 0 0 0
2019/04/04 20:46:05 BASE 0.05 25 1.08 14 0.1 93 -0.8 19 0 976.8 NA 0.0000 9999 7610 0 0 0
2019/04/04 20:47:04 BASE 0.05 12 1.08 14 0.1 93 -0.9 19 0 976.8 NA 0.0000 9999 8200 0 0 0
2019/04/04 20:48:04 BASE 0.00 15 1.08 14 0.1 93 -0.9 18 0 976.8 NA 0.0000 9999 8270 10110 0 0
2019/04/04 20:49:04 BASE 0.00 23 1.08 14 0.1 93 -0.9 18 0 976.8 NA 0.0000 9999 8240 0 0 0
2019/04/04 20:50:04 BASE 0.00 34 1.08 14 0.1 93 -0.9 18 0 976.8 NA 0.0000 9999 8300 9580 0 0
2019/04/04 20:51:05 BASE 0.23 39 1.18 33 0.1 93 -0.9 17 0 976.8 NA 0.0000 9999 8270 0 0 0
2019/04/04 20:52:04 BASE 0.82 33 1.34 26 0.1 93 -0.9 17 0 976.9 NA 0.0000 9999 8240 0 0 0
2019/04/04 20:53:04 BASE 1.24 22 1.44 17 0.1 93 -0.9 16 0 976.9 NA 0.0000 9999 8240 0 0 0
2019/04/04 20:54:04 BASE 1.44 17 1.75 17 0.1 93 -0.9 16 0 977.0 NA 0.0000 9999 8140 0 0 0
2019/04/04 20:55:04 BASE 1.62 16 1.75 18 0.0 93 -1.0 15 0 977.0 NA 0.0000 9999 8040 0 0 0
2019/04/04 20:56:04 BASE 1.66 17 1.75 18 -0.0 93 -1.0 15 0 977.0 NA 0.0000 9999 8010 0 0 0
2019/04/04 20:57:04 BASE 1.56 16 1.75 18 -0.1 93 -1.1 14 0 977.0 NA 0.0000 9999 7940 0 0 0
2019/04/04 20:58:04 BASE 1.41 17 1.75 18 -0.1 93 -1.1 14 0 977.0 NA 0.0000 9999 8010 0 0 0
2019/04/04 20:59:05 BASE 1.33 21 1.75 18 -0.1 93 -1.1 14 0 977.0 NA 0.0000 9999 8300 0 0 0
2019/04/04 21:00:04 BASE 1.35 26 1.75 18 -0.1 93 -1.1 14 0 977.0 NA 0.0000 9999 8040 10300 0 0
2019/04/04 21:01:04 BASE 1.35 30 1.75 18 -0.2 94 -1.1 13 0 977.0 NA 0.0000 9999 8760 10270 0 0
2019/04/04 21:02:04 BASE 1.25 31 1.75 18 -0.2 94 -1.0 13 0 977.0 NA 0.0000 9999 10300 0 0 0
2019/04/04 21:03:05 BASE 1.20 32 1.75 18 -0.2 94 -1.0 13 0 977.0 NA 0.0000 9999 10370 0 0 0
2019/04/04 21:04:04 BASE 1.03 31 1.75 18 -0.1 94 -1.0 12 0 977.0 NA 0.0000 9999 10340 0 0 0
2019/04/04 21:05:04 BASE 0.69 27 1.75 18 -0.1 94 -1.0 12 0 977.1 NA 0.0000 9999 10300 0 0 0
2019/04/04 21:06:04 BASE 0.50 21 1.59 16 -0.1 94 -0.9 11 0 977.1 NA 0.0000 9999 10240 0 0 0
2019/04/04 21:07:05 BASE 0.81 18 1.44 32 -0.1 94 -0.9 11 0 977.1 NA 0.0000 9999 10240 0 0 0
2019/04/04 21:08:04 BASE 1.15 17 1.44 32 -0.1 94 -0.9 11 0 977.1 NA 0.0000 9999 10170 0 0 0
2019/04/04 21:09:04 BASE 1.20 17 1.44 32 -0.1 94 -0.9 10 0 977.1 NA 0.0000 9999 10240 0 0 0
2019/04/04 21:10:04 BASE 1.14 16 1.44 32 -0.1 94 -0.9 10 0 977.1 NA 0.0000 9999 10270 0 0 0
2019/04/04 21:11:05 BASE 1.14 11 1.39 7 -0.1 94 -0.9 9 0 977.1 NA 0.0000 9999 10240 0 0 0
2019/04/04 21:12:04 BASE 0.98 11 1.39 7 -0.1 94 -0.9 9 0 977.1 NA 0.0000 9999 10270 0 0 0
2019/04/04 21:13:04 BASE 0.64 15 1.39 7 -0.1 94 -0.9 9 0 977.2 NA 0.0000 9999 10200 0 0 0
2019/04/04 21:14:04 BASE 0.59 13 1.39 7 -0.1 94 -0.9 8 0 977.2 NA 0.0000 9999 10270 0 0 0
2019/04/04 21:15:05 BASE 0.28 9 1.39 7 -0.0 94 -0.9 8 0 977.2 NA 0.0000 9999 10270 0 0 0
2019/04/04 21:16:04 BASE 0.00 12 1.39 7 -0.0 94 -0.9 7 0 977.2 NA 0.0000 9999 10270 0 0 0
2019/04/04 21:17:04 BASE 0.00 18 1.39 7 -0.0 94 -0.9 7 0 977.2 NA 0.0000 9999 10200 0 0 0
2019/04/04 21:18:05 BASE 0.00 19 1.39 7 0.0 94 -0.9 7 0 977.2 NA 0.0000 9999 10070 0 0 0
2019/04/04 21:19:04 BASE 0.00 19 1.39 7 0.0 94 -0.9 6 0 977.2 NA 0.0000 9999 10200 0 0 0
2019/04/04 21:20:04 BASE 0.00 19 1.39 7 0.0 94 -0.9 6 0 977.2 NA 0.0000 9999 10240 0 0 0
2019/04/04 21:21:06 BASE 0.00 23 1.29 10 0.0 93 -0.9 6 0 977.2 NA 0.0000 9999 10240 0 0 0
2019/04/04 21:22:01 BASE 0.05 52 1.18 11 0.0 93 -1.0 6 0 977.2 NA 0.0000 9999 10140 0 0 0
2019/04/04 21:23:05 BASE 0.60 82 1.49 90 0.0 93 -1.0 5 0 977.2 NA 0.0000 9999 10200 0 0 0
2019/04/04 21:24:04 BASE 1.32 90 1.80 94 -0.0 93 -1.0 5 0 977.2 NA 0.0000 9999 10070 0 0 0
2019/04/04 21:25:04 BASE 1.66 96 1.80 94 -0.1 93 -1.1 5 0 977.2 NA 0.0000 9999 9880 0 0 0
2019/04/04 21:26:04 BASE 1.56 101 1.80 94 -0.1 93 -1.1 4 0 977.2 NA 0.0000 9999 10010 0 0 0
2019/04/04 21:27:04 BASE 1.35 106 1.80 94 -0.2 94 -1.1 4 0 977.2 NA 0.0000 9999 9940 0 0 0
2019/04/04 21:28:04 BASE 0.98 104 1.80 94 -0.3 94 -1.1 4 0 977.2 NA 0.0000 9999 10110 0 0 0
2019/04/04 21:29:05 BASE 0.43 96 1.80 94 -0.3 94 -1.1 3 0 977.2 NA 0.0000 9999 10070 0 0 0
2019/04/04 21:30:04 BASE 0.13 92 1.80 94 -0.3 95 -1.0 3 0 977.2 NA 0.0000 9999 10140 0 0 0
2019/04/04 21:31:04 BASE 0.00 85 1.80 94 -0.3 95 -1.0 3 0 977.2 NA 0.0000 9999 10110 0 0 0
2019/04/04 21:32:04 BASE 0.00 85 1.80 94 -0.2 95 -0.9 3 0 977.2 NA 0.0000 9999 10110 0 0 0
2019/04/04 21:33:05 BASE 0.00 90 1.80 94 -0.2 95 -0.9 3 0 977.3 NA 0.0000 9999 10170 0 0 0
2019/04/04 21:34:04 BASE 0.00 90 1.75 98 -0.1 95 -0.9 3 0 977.3 NA 0.0000 9999 10200 0 0 0
2019/04/04 21:35:04 BASE 0.00 90 1.70 107 -0.1 94 -0.9 2 0 977.3 NA 0.0000 9999 10200 0 0 0
2019/04/04 21:36:04 BASE 0.00 80 1.44 103 -0.0 94 -0.9 2 0 977.3 NA 0.0000 9999 7420 0 0 0
2019/04/04 21:37:05 BASE 0.04 46 1.39 101 -0.0 94 -0.9 2 0 977.3 NA 0.0000 9999 7350 0 0 0
2019/04/04 21:38:04 BASE 0.63 25 1.49 31 0.0 93 -0.9 2 0 977.3 NA 0.0000 9999 7450 10240 0 0
2019/04/04 21:39:04 BASE 1.64 28 3.14 29 0.1 93 -1.0 2 0 977.3 NA 0.0000 9999 7550 10240 0 0
2019/04/04 21:40:04 BASE 2.46 32 3.34 29 0.0 92 -1.0 2 0 977.3 NA 0.0000 9999 7580 10270 0 0
2019/04/04 21:41:05 BASE 3.08 31 3.70 27 -0.0 92 -1.1 2 0 977.3 NA 0.0000 9999 10370 0 0 0
2019/04/04 21:42:04 BASE 2.92 35 3.70 27 -0.1 92 -1.2 1 0 977.3 NA 0.0000 9999 7580 0 0 0
2019/04/04 21:43:04 BASE 2.17 38 3.70 27 -0.2 93 -1.2 1 0 977.3 NA 0.0000 9999 7450 0 0 0
2019/04/04 21:44:05 BASE 1.68 41 3.70 27 -0.3 93 -1.2 1 0 977.3 NA 0.0000 9999 7510 10270 0 0
2019/04/04 21:45:05 BASE 1.42 50 3.70 27 -0.3 94 -1.2 1 0 977.3 NA 0.0000 9999 7450 10300 0 0
2019/04/04 21:46:04 BASE 1.26 60 3.70 27 -0.3 94 -1.1 1 0 977.4 NA 0.0000 9999 7450 10240 0 0
2019/04/04 21:47:05 BASE 1.08 64 3.70 27 -0.3 95 -1.0 1 0 977.4 NA 0.0000 9999 10270 0 0 0
2019/04/04 21:48:04 BASE 0.64 61 3.70 27 -0.3 95 -1.0 1 0 977.4 NA 0.0000 9999 10200 0 0 0
2019/04/04 21:49:05 BASE 0.13 56 3.70 27 -0.2 95 -1.0 1 0 977.4 NA 0.0000 9999 10170 0 0 0
2019/04/04 21:50:04 BASE 0.00 53 3.70 27 -0.2 95 -1.0 1 0 977.4 NA 0.0000 9999 10110 0 0 0
2019/04/04 21:51:04 BASE 0.00 52 2.78 40 -0.2 94 -1.0 1 0 977.4 NA 0.0000 9999 10070 0 0 0
2019/04/04 21:52:04 BASE 0.00 52 2.11 36 -0.2 94 -1.0 1 0 977.4 NA 0.0000 9999 10140 0 0 0
2019/04/04 21:53:05 BASE 0.17 58 1.75 42 -0.1 94 -1.0 1 0 977.4 NA 0.0000 9999 10110 0 0 0
2019/04/04 21:54:04 BASE 0.40 64 1.44 47 -0.1 94 -1.0 1 0 977.5 NA 0.0000 9999 10110 0 0 0
2019/04/04 21:55:04 BASE 0.68 65 1.29 65 -0.1 93 -1.0 1 0 977.5 NA 0.0000 9999 10170 0 0 0
2019/04/04 21:56:04 BASE 0.86 66 1.18 65 -0.1 93 -1.0 0 0 977.6 NA 0.0000 9999 10140 0 0 0
2019/04/04 21:57:05 BASE 0.36 69 1.18 65 -0.0 93 -1.0 0 0 977.6 NA 0.0000 9999 10040 0 0 0
2019/04/04 21:58:05 BASE 0.00 74 1.18 65 -0.0 93 -1.1 0 0 977.6 NA 0.0000 9999 9970 0 0 0
2019/04/04 21:59:05 BASE 0.00 81 1.18 65 -0.0 93 -1.1 0 0 977.6 NA 0.0000 9999 9880 0 0 0
2019/04/04 22:00:04 BASE 0.00 86 1.18 65 0.0 92 -1.1 0 0 977.6 NA 0.0000 9999 9880 0 0 0
2019/04/04 22:01:05 BASE 0.00 88 1.18 65 0.0 92 -1.1 0 0 977.7 NA 0.0000 9999 10200 0 0 0
2019/04/04 22:02:04 BASE 0.00 88 1.18 65 0.1 92 -1.1 0 0 977.7 NA 0.0000 9999 10170 0 0 0
2019/04/04 22:03:04 BASE 0.00 88 1.18 65 0.1 92 -1.1 0 0 977.7 NA 0.0000 9999 10200 0 0 0
2019/04/04 22:04:04 BASE 0.00 89 1.18 65 0.1 91 -1.1 0 0 977.7 NA 0.0000 9999 10140 0 0 0
2019/04/04 22:05:05 BASE 0.00 89 1.13 70 0.2 91 -1.1 0 0 977.7 NA 0.0000 9999 10140 0 0 0
2019/04/04 22:06:05 BASE 0.00 89 M M 0.2 91 -1.1 0 0 977.7 NA 0.0000 9999 8010 10170 0 0
2019/04/04 22:07:04 BASE 0.00 89 M M 0.2 91 -1.1 0 0 977.7 NA 0.0000 9999 7910 10170 0 0
2019/04/04 22:08:05 BASE 0.00 88 M M 0.3 90 -1.1 0 0 977.7 NA 0.0000 9999 7740 0 0 0
2019/04/04 22:09:05 BASE 0.00 88 M M 0.3 90 -1.2 0 0 977.8 NA 0.0000 9999 7580 0 0 0
2019/04/04 22:10:04 BASE 0.00 88 M M 0.3 89 -1.2 0 0 977.8 NA 0.0000 9999 7610 0 0 0
2019/04/04 22:11:04 BASE 0.00 88 M M 0.4 89 -1.2 0 0 977.8 NA 0.0000 9999 7580 0 0 0
2019/04/04 22:12:04 BASE 0.00 87 M M 0.4 89 -1.3 0 0 977.8 NA 0.0000 9999 7710 10070 0 0
2019/04/04 22:13:05 BASE 0.00 74 M M 0.4 88 -1.3 0 0 977.8 NA 0.0000 9999 7550 10140 0 0
2019/04/04 22:14:04 BASE 0.00 40 M M 0.4 88 -1.3 0 0 977.8 NA 0.0000 9999 7480 10170 0 0
2019/04/04 22:15:04 BASE 0.77 11 1.85 3 0.3 88 -1.4 0 0 977.9 NA 0.0000 9999 7450 10040 0 0
2019/04/04 22:16:04 BASE 1.58 9 1.85 3 0.2 88 -1.5 0 0 977.9 NA 0.0000 9999 7550 10170 0 0
2019/04/04 22:17:05 BASE 1.92 14 2.62 10 0.1 89 -1.5 0 0 977.9 NA 0.0000 9999 7510 0 0 0
2019/04/04 22:18:05 BASE 2.30 11 2.88 6 -0.1 90 -1.6 0 0 977.9 NA 0.0000 9999 7480 10200 0 0
2019/04/04 22:19:05 BASE 2.20 6 2.88 6 -0.3 92 -1.5 0 0 977.9 NA 0.0000 9999 10140 0 0 0
2019/04/04 22:20:04 BASE 1.88 7 2.88 6 -0.4 94 -1.4 0 0 977.9 NA 0.0000 9999 7480 10200 0 0
2019/04/04 22:21:06 BASE 1.40 2 2.88 6 -0.5 95 -1.2 0 0 977.9 NA 0.0000 9999 7420 10040 0 0
2019/04/04 22:22:01 BASE 1.13 351 2.88 6 -0.5 96 -1.1 0 0 977.9 NA 0.0000 9999 7480 10010 0 0
2019/04/04 22:23:03 BASE 1.46 345 2.88 6 -0.5 97 -1.0 0 0 977.9 NA 0.0000 9999 10140 0 0 0
2019/04/04 22:24:04 BASE 1.79 339 2.88 6 -0.5 97 -0.9 0 0 977.9 NA 0.0000 9999 10140 0 0 0
2019/04/04 22:25:05 BASE 1.76 340 2.88 6 -0.5 97 -0.9 0 0 977.9 NA 0.0000 9999 10200 0 0 0
2019/04/04 22:26:04 BASE 1.68 341 2.88 6 -0.4 97 -0.9 0 0 977.9 NA 0.0000 9999 7550 10140 0 0
2019/04/04 22:27:04 BASE 1.59 345 2.88 6 -0.4 97 -0.8 0 0 977.9 NA 0.0000 9999 7510 10170 0 0
2019/04/04 22:28:04 BASE 1.43 352 2.62 360 -0.4 97 -0.8 0 0 977.9 NA 0.0000 9999 7510 10140 0 0
2019/04/04 22:29:05 BASE 1.37 359 2.06 337 -0.4 97 -0.8 0 0 977.9 NA 0.0000 9999 7480 10170 0 0
2019/04/04 22:30:04 BASE 1.43 8 2.06 337 -0.4 97 -0.8 0 0 977.9 NA 0.0000 9999 7380 0 0 0
2019/04/04 22:31:04 BASE 1.37 16 2.06 337 -0.4 97 -0.8 0 0 977.9 NA 0.0000 9999 7280 0 0 0
2019/04/04 22:32:04 BASE 1.33 19 2.06 337 -0.4 97 -0.8 0 0 977.9 NA 0.0000 9999 7120 0 0 0
2019/04/04 22:33:05 BASE 1.44 22 2.06 337 -0.4 97 -0.8 0 0 977.9 NA 0.0000 9999 7090 0 0 0
2019/04/04 22:34:05 BASE 1.45 22 1.85 343 -0.4 97 -0.8 0 0 978.0 NA 0.0000 9999 7250 0 0 0
2019/04/04 22:35:04 BASE 1.53 19 1.85 343 -0.4 97 -0.8 0 0 978.1 NA 0.0000 9999 7220 0 0 0
2019/04/04 22:36:04 BASE 1.58 20 1.75 19 -0.4 97 -0.9 0 0 978.1 NA 0.0000 9999 7190 0 0 0
2019/04/04 22:37:05 BASE 1.77 24 2.42 31 -0.5 97 -0.9 0 0 978.1 NA 0.0000 9999 7250 0 0 0
2019/04/04 22:38:04 BASE 2.22 31 2.68 38 -0.5 97 -0.9 0 0 978.1 NA 0.0000 9999 7350 10010 0 0
2019/04/04 22:39:04 BASE 2.34 35 2.68 38 -0.5 97 -0.9 0 0 978.1 NA 0.0000 9999 7280 10070 0 0
2019/04/04 22:40:04 BASE 2.16 32 2.68 38 -0.5 97 -0.9 0 0 978.1 NA 0.0000 9999 7350 10040 0 0
2019/04/04 22:41:05 BASE 2.15 32 2.68 38 -0.4 97 -0.9 0 0 978.1 NA 0.0000 9999 7280 0 0 0
2019/04/04 22:42:04 BASE 2.22 34 2.68 38 -0.4 97 -0.9 0 0 978.1 NA 0.0000 9999 7280 0 0 0
2019/04/04 22:43:04 BASE 2.10 36 2.68 38 -0.4 96 -0.9 0 0 978.1 NA 0.0000 9999 7280 0 0 0
2019/04/04 22:44:04 BASE 1.98 40 2.68 38 -0.4 96 -0.9 0 0 978.1 NA 0.0000 9999 7280 0 0 0
2019/04/04 22:45:05 BASE 2.00 42 2.68 38 -0.4 96 -0.9 0 0 978.1 NA 0.0000 9999 7250 0 0 0
2019/04/04 22:46:04 BASE 2.00 41 2.68 38 -0.3 96 -0.9 0 0 978.2 NA 0.0000 9999 7280 10070 0 0
2019/04/04 22:47:04 BASE 2.11 43 2.68 38 -0.3 96 -0.9 0 0 978.2 NA 0.0000 9999 7150 10010 0 0
2019/04/04 22:48:04 BASE 2.34 48 2.68 49 -0.3 96 -0.9 0 0 978.2 NA 0.0000 9999 7350 10040 0 0
2019/04/04 22:49:04 BASE 2.43 50 2.68 49 -0.3 96 -0.9 0 0 978.2 NA 0.0000 9999 7220 10110 0 0
2019/04/04 22:50:04 BASE 2.33 48 2.68 49 -0.3 96 -0.9 0 0 978.2 NA 0.0000 9999 7250 10070 0 0
2019/04/04 22:51:04 BASE 2.33 47 2.68 49 -0.3 96 -0.9 0 0 978.2 NA 0.0000 9999 7150 0 0 0
2019/04/04 22:52:05 BASE 2.29 52 2.68 49 -0.3 96 -0.9 0 0 978.2 NA 0.0000 9999 7150 0 0 0
2019/04/04 22:53:04 BASE 2.19 56 2.68 49 -0.3 95 -0.9 0 0 978.2 NA 0.0000 9999 7150 0 0 0
2019/04/04 22:54:04 BASE 2.11 58 2.68 49 -0.3 95 -1.0 0 0 978.3 NA 0.0000 9999 7190 0 0 0
2019/04/04 22:55:04 BASE 2.04 58 2.68 49 -0.3 95 -1.0 0 0 978.3 NA 0.0000 9999 7150 0 0 0
2019/04/04 22:56:04 BASE 1.98 58 2.68 49 -0.3 95 -1.0 0 0 978.3 NA 0.0000 9999 7150 0 0 0
2019/04/04 22:57:05 BASE 2.06 60 2.68 49 -0.3 95 -1.0 0 0 978.3 NA 0.0000 9999 7150 0 0 0
2019/04/04 22:58:04 BASE 2.25 60 2.57 53 -0.2 95 -0.9 0 0 978.3 NA 0.0000 9999 7150 0 0 0
2019/04/04 22:59:05 BASE 2.40 59 2.52 59 -0.2 95 -0.9 0 0 978.3 NA 0.0000 9999 7150 0 0 0
2019/04/04 23:00:04 BASE 2.36 56 2.52 59 -0.2 95 -0.9 0 0 978.3 NA 0.0000 9999 7120 0 0 0
2019/04/04 23:01:04 BASE 2.31 49 2.52 43 -0.3 95 -1.0 0 0 978.3 NA 0.0000 9999 7050 0 0 0
2019/04/04 23:02:04 BASE 2.27 46 2.52 41 -0.3 95 -1.0 0 0 978.3 NA 0.0000 9999 7090 0 0 0
2019/04/04 23:03:04 BASE 2.25 52 2.57 61 -0.3 95 -1.0 0 0 978.3 NA 0.0000 9999 7050 0 0 0
2019/04/04 23:04:04 BASE 2.40 58 2.78 57 -0.3 95 -1.0 0 0 978.3 NA 0.0000 9999 7050 0 0 0
2019/04/04 23:05:04 BASE 2.70 57 2.98 55 -0.3 95 -1.0 0 0 978.3 NA 0.0000 9999 7090 0 0 0
2019/04/04 23:06:04 BASE 2.82 51 2.98 55 -0.3 95 -1.0 0 0 978.3 NA 0.0000 9999 7090 0 0 0
2019/04/04 23:07:05 BASE 2.84 46 3.19 47 -0.3 95 -1.0 0 0 978.3 NA 0.0000 9999 7090 0 0 0
2019/04/04 23:08:04 BASE 2.87 46 3.19 47 -0.3 95 -1.0 0 0 978.3 NA 0.0000 9999 7090 0 0 0
2019/04/04 23:09:05 BASE 2.85 47 3.19 47 -0.3 95 -1.0 0 0 978.4 NA 0.0000 9999 7050 0 0 0
2019/04/04 23:10:04 BASE 2.82 48 3.19 47 -0.3 95 -1.1 0 0 978.4 NA 0.0000 9999 7090 0 0 0
2019/04/04 23:11:04 BASE 2.74 50 3.19 47 -0.3 94 -1.1 0 0 978.4 NA 0.0000 9999 7120 0 0 0
2019/04/04 23:12:04 BASE 2.82 50 3.19 47 -0.3 94 -1.1 0 0 978.4 NA 0.0000 9999 7120 0 0 0
2019/04/04 23:13:05 BASE 3.07 48 3.55 45 -0.3 94 -1.2 0 0 978.4 NA 0.0000 9999 7120 0 0 0
2019/04/04 23:14:04 BASE 2.99 47 3.55 45 -0.3 94 -1.2 0 0 978.4 NA 0.0000 9999 7120 0 0 0
2019/04/04 23:15:04 BASE 3.34 44 4.22 44 -0.3 94 -1.2 0 0 978.4 NA 0.0000 9999 7150 0 0 0
2019/04/04 23:16:04 BASE 3.61 45 4.22 44 -0.3 94 -1.2 0 0 978.4 NA 0.0000 9999 6330 7220 0 0
2019/04/04 23:17:04 BASE 2.91 47 4.22 44 -0.3 94 -1.2 0 0 978.4 NA 0.0000 9999 6660 7250 0 0
2019/04/04 23:18:03 BASE 2.55 47 4.22 44 -0.3 94 -1.2 0 0 978.4 NA 0.0000 9999 7150 0 0 0
2019/04/04 23:19:04 BASE 2.52 49 4.22 44 -0.3 93 -1.3 0 0 978.4 NA 0.0000 9999 7150 0 0 0
2019/04/04 23:20:04 BASE 2.37 47 4.22 44 -0.3 93 -1.3 0 0 978.4 NA 0.0000 9999 7120 0 0 0
2019/04/04 23:21:06 BASE 2.33 40 4.22 44 -0.3 93 -1.3 0 0 978.4 NA 0.0000 9999 6990 0 0 0
2019/04/04 23:22:01 BASE 2.13 44 4.22 44 -0.3 93 -1.3 0 0 978.4 NA 0.0000 9999 6920 0 0 0
2019/04/04 23:23:04 BASE 2.07 59 4.22 44 -0.3 93 -1.4 0 0 978.4 NA 0.0000 9999 6860 0 0 0
2019/04/04 23:24:04 BASE 2.19 64 4.22 44 -0.3 93 -1.4 0 0 978.4 NA 0.0000 9999 6820 0 0 0
2019/04/04 23:25:04 BASE 1.98 61 3.81 33 -0.3 92 -1.4 0 0 978.4 NA 0.0000 9999 6820 0 0 0
2019/04/04 23:26:04 BASE 1.95 62 3.19 56 -0.3 92 -1.4 0 0 978.5 NA 0.0000 9999 6820 0 0 0
2019/04/04 23:27:04 BASE 2.35 64 2.88 53 -0.2 91 -1.5 0 0 978.5 NA 0.0000 9999 6860 0 0 0
2019/04/04 23:28:04 BASE 2.81 53 3.86 44 -0.2 91 -1.5 0 0 978.5 NA 0.0000 9999 6920 0 0 0
2019/04/04 23:29:05 BASE 2.72 51 3.86 44 -0.2 91 -1.6 0 0 978.5 NA 0.0000 9999 6920 0 0 0
2019/04/04 23:30:04 BASE 2.49 63 3.86 44 -0.2 90 -1.6 0 0 978.5 NA 0.0000 9999 6890 0 0 0
2019/04/04 23:31:04 BASE 2.35 71 3.86 44 -0.2 90 -1.6 0 0 978.5 NA 0.0000 9999 6920 0 0 0
2019/04/04 23:32:04 BASE 1.94 73 3.86 44 -0.2 90 -1.6 0 0 978.5 NA 0.0000 9999 6890 0 0 0
2019/04/04 23:33:05 BASE 1.92 64 3.86 44 -0.2 90 -1.7 0 0 978.5 NA 0.0000 9999 6960 0 0 0
2019/04/04 23:34:04 BASE 2.13 61 3.86 44 -0.2 90 -1.7 0 0 978.5 NA 0.0000 9999 6820 0 0 0
2019/04/04 23:35:04 BASE 2.24 62 3.86 44 -0.2 89 -1.7 0 0 978.5 NA 0.0000 9999 6820 0 0 0
2019/04/04 23:36:04 BASE 2.66 59 4.12 45 -0.2 89 -1.8 0 0 978.5 NA 0.0000 9999 5870 0 0 0
2019/04/04 23:37:05 BASE 3.47 49 4.68 48 -0.2 89 -1.8 0 0 978.5 NA 0.0000 9999 5870 7250 0 0
2019/04/04 23:38:03 BASE 3.55 53 4.68 48 -0.2 89 -1.9 0 0 978.5 NA 0.0000 9999 5840 7250 0 0
2019/04/04 23:39:05 BASE 3.41 60 4.68 48 -0.2 89 -1.9 0 0 978.5 NA 0.0000 9999 5810 7250 0 0
2019/04/04 23:40:04 BASE 3.59 56 4.68 48 -0.3 89 -1.9 0 0 978.5 NA 0.0000 9999 5840 7250 0 0
2019/04/04 23:41:04 BASE 3.52 57 4.68 48 -0.3 89 -1.9 0 0 978.5 NA 0.0000 9999 7350 0 0 0
2019/04/04 23:42:04 BASE 3.40 53 4.68 48 -0.4 90 -1.8 0 0 978.5 NA 0.0000 9999 7450 9710 0 0
2019/04/04 23:43:05 BASE 3.26 52 4.68 48 -0.4 90 -1.8 0 0 978.5 NA 0.0000 9999 7320 0 0 0
2019/04/04 23:44:04 BASE 3.51 60 4.68 48 -0.4 90 -1.9 0 0 978.5 NA 0.0000 9999 7320 0 0 0
2019/04/04 23:45:04 BASE 3.73 66 4.68 48 -0.4 90 -1.8 0 0 978.5 NA 0.0000 9999 7320 0 0 0
2019/04/04 23:46:04 BASE 3.62 64 4.68 48 -0.5 90 -1.8 0 0 978.5 NA 0.0000 9999 7320 0 0 0
2019/04/04 23:47:04 BASE 3.53 57 4.42 64 -0.5 91 -1.8 0 0 978.5 NA 0.0000 9999 6730 7250 0 0
2019/04/04 23:48:04 BASE 3.99 53 6.02 44 -0.5 91 -1.8 0 0 978.5 NA 0.0000 9999 7190 0 0 0
2019/04/04 23:49:04 BASE 5.04 49 6.02 44 -0.5 91 -1.8 0 0 978.5 NA 0.0000 9999 6760 0 0 0
2019/04/04 23:50:04 BASE 5.13 47 6.02 44 -0.5 91 -1.8 0 0 978.5 NA 0.0000 9999 6660 0 0 0
2019/04/04 23:51:04 BASE 4.46 49 6.02 44 -0.5 91 -1.8 0 0 978.5 NA 0.0000 9999 6330 0 0 0
2019/04/04 23:52:04 BASE 3.99 51 6.02 44 -0.6 91 -1.8 0 0 978.6 NA 0.0000 9999 6330 7150 0 0
2019/04/04 23:53:04 BASE 3.72 52 6.02 44 -0.6 92 -1.8 0 0 978.6 NA 0.0000 9999 5840 6990 0 0
2019/04/04 23:54:04 BASE 3.74 46 6.02 44 -0.6 92 -1.7 0 0 978.6 NA 0.0000 9999 5770 6990 0 0
2019/04/04 23:55:05 BASE 3.31 46 6.02 44 -0.6 92 -1.7 0 0 978.6 NA 0.0000 9999 5710 6960 0 0
2019/04/04 23:56:04 BASE 3.46 43 6.02 44 -0.5 92 -1.7 0 0 978.6 NA 0.0000 9999 5710 0 0 0
2019/04/04 23:57:04 BASE 4.79 32 6.17 31 -0.5 92 -1.7 0 0 978.6 NA 0.0000 9999 6860 0 0 0
2019/04/04 23:58:04 BASE 5.51 33 6.17 31 -0.5 92 -1.6 0 0 978.6 NA 0.0000 9999 6890 0 0 0
2019/04/04 23:59:05 BASE 5.54 34 6.17 31 -0.5 92 -1.6 0 0 978.6 NA 0.0000 9999 6820 0 0 0